<?xml version="1.0" encoding="UTF-8" standalone="no" ?><gpx xmlns="http://www.topografix.com/GPX/1/1" xmlns:gpxx="http://www.garmin.com/xmlschemas/GpxExtensions/v3" xmlns:gpxtrkx="http://www.garmin.com/xmlschemas/TrackStatsExtension/v1" xmlns:wptx1="http://www.garmin.com/xmlschemas/WaypointExtension/v1" xmlns:gpxtpx="http://www.garmin.com/xmlschemas/TrackPointExtension/v1" creator="GPSMAP 64" version="1.1" xmlns:xsi="http://www.w3.org/2001/XMLSchema-instance" xsi:schemaLocation="http://www.topografix.com/GPX/1/1 http://www.topografix.com/GPX/1/1/gpx.xsd http://www.garmin.com/xmlschemas/GpxExtensions/v3 http://www8.garmin.com/xmlschemas/GpxExtensionsv3.xsd http://www.garmin.com/xmlschemas/TrackStatsExtension/v1 http://www8.garmin.com/xmlschemas/TrackStatsExtension.xsd http://www.garmin.com/xmlschemas/WaypointExtension/v1 http://www8.garmin.com/xmlschemas/WaypointExtensionv1.xsd http://www.garmin.com/xmlschemas/TrackPointExtension/v1 http://www.garmin.com/xmlschemas/TrackPointExtensionv1.xsd"><metadata><link href="http://www.garmin.com"><text>Garmin International</text></link><time>2026-08-14T14:31:07Z</time></metadata><trk><name>Текущий трек: 14 AUG 2026 10:07</name><extensions><gpxx:TrackExtension><gpxx:DisplayColor>Red</gpxx:DisplayColor></gpxx:TrackExtension><gpxtrkx:TrackStatsExtension><gpxtrkx:Distance>36052</gpxtrkx:Distance><gpxtrkx:TotalElapsedTime>26647</gpxtrkx:TotalElapsedTime><gpxtrkx:MovingTime>23460</gpxtrkx:MovingTime><gpxtrkx:StoppedTime>3175</gpxtrkx:StoppedTime><gpxtrkx:MovingSpeed>2</gpxtrkx:MovingSpeed><gpxtrkx:MaxSpeed>592</gpxtrkx:MaxSpeed><gpxtrkx:MaxElevation>7759</gpxtrkx:MaxElevation><gpxtrkx:MinElevation>-1514</gpxtrkx:MinElevation><gpxtrkx:Ascent>353523</gpxtrkx:Ascent><gpxtrkx:Descent>366674</gpxtrkx:Descent><gpxtrkx:AvgAscentRate>0</gpxtrkx:AvgAscentRate><gpxtrkx:MaxAscentRate>24</gpxtrkx:MaxAscentRate><gpxtrkx:AvgDescentRate>0</gpxtrkx:AvgDescentRate><gpxtrkx:MaxDescentRate>-15</gpxtrkx:MaxDescentRate></gpxtrkx:TrackStatsExtension></extensions><trkseg><trkpt lat="59.3505895324" lon="34.6993828006"><ele>168.06</ele><time>2026-08-14T07:07:00Z</time></trkpt><trkpt lat="59.3505986687" lon="34.6993856505"><ele>168.68</ele><time>2026-08-14T07:07:32Z</time></trkpt><trkpt lat="59.3505632970" lon="34.6993838064"><ele>168.65</ele><time>2026-08-14T07:07:57Z</time></trkpt><trkpt lat="59.3505777977" lon="34.6993654501"><ele>168.56</ele><time>2026-08-14T07:08:24Z</time></trkpt><trkpt lat="59.3506415840" lon="34.6994432341"><ele>168.38</ele><time>2026-08-14T07:08:42Z</time></trkpt><trkpt lat="59.3505675718" lon="34.6994647756"><ele>167.60</ele><time>2026-08-14T07:08:56Z</time></trkpt><trkpt lat="59.3505681586" lon="34.6994744986"><ele>166.96</ele><time>2026-08-14T07:09:12Z</time></trkpt><trkpt lat="59.3506268319" lon="34.6995101217"><ele>166.24</ele><time>2026-08-14T07:09:30Z</time></trkpt><trkpt lat="59.3506334536" lon="34.6994003188"><ele>165.36</ele><time>2026-08-14T07:09:46Z</time></trkpt><trkpt lat="59.3506376445" lon="34.6994564775"><ele>164.80</ele><time>2026-08-14T07:10:03Z</time></trkpt><trkpt lat="59.3506265804" lon="34.6993564814"><ele>164.60</ele><time>2026-08-14T07:10:09Z</time></trkpt><trkpt lat="59.3505928013" lon="34.6990914457"><ele>164.59</ele><time>2026-08-14T07:10:21Z</time></trkpt><trkpt lat="59.3505764566" lon="34.6990194451"><ele>164.59</ele><time>2026-08-14T07:10:40Z</time></trkpt><trkpt lat="59.3505876884" lon="34.6991200279"><ele>165.17</ele><time>2026-08-14T07:10:55Z</time></trkpt><trkpt lat="59.3505832460" lon="34.6991458442"><ele>165.63</ele><time>2026-08-14T07:11:15Z</time></trkpt><trkpt lat="59.3505855091" lon="34.6991291642"><ele>165.30</ele><time>2026-08-14T07:11:33Z</time></trkpt><trkpt lat="59.3506114930" lon="34.6992145758"><ele>165.73</ele><time>2026-08-14T07:11:50Z</time></trkpt><trkpt lat="59.3506210484" lon="34.6991883405"><ele>166.17</ele><time>2026-08-14T07:12:15Z</time></trkpt><trkpt lat="59.3505786359" lon="34.6992084570"><ele>165.60</ele><time>2026-08-14T07:12:36Z</time></trkpt><trkpt lat="59.3505960703" lon="34.6992305852"><ele>166.12</ele><time>2026-08-14T07:13:03Z</time></trkpt><trkpt lat="59.3505840003" lon="34.6992381290"><ele>164.45</ele><time>2026-08-14T07:13:35Z</time></trkpt><trkpt lat="59.3505765405" lon="34.6992143244"><ele>163.47</ele><time>2026-08-14T07:14:05Z</time></trkpt><trkpt lat="59.3505866826" lon="34.6992409788"><ele>163.34</ele><time>2026-08-14T07:14:25Z</time></trkpt><trkpt lat="59.3506040331" lon="34.6992038470"><ele>162.65</ele><time>2026-08-14T07:14:44Z</time></trkpt><trkpt lat="59.3505759537" lon="34.6990930382"><ele>162.05</ele><time>2026-08-14T07:15:04Z</time></trkpt><trkpt lat="59.3505800609" lon="34.6990549006"><ele>162.35</ele><time>2026-08-14T07:15:31Z</time></trkpt><trkpt lat="59.3505777977" lon="34.6991144121"><ele>161.75</ele><time>2026-08-14T07:15:49Z</time></trkpt><trkpt lat="59.3505632970" lon="34.6990338620"><ele>161.40</ele><time>2026-08-14T07:16:11Z</time></trkpt><trkpt lat="59.3505885266" lon="34.6990564931"><ele>161.83</ele><time>2026-08-14T07:16:27Z</time></trkpt><trkpt lat="59.3505689129" lon="34.6991061978"><ele>161.45</ele><time>2026-08-14T07:16:47Z</time></trkpt><trkpt lat="59.3505773786" lon="34.6992128994"><ele>161.13</ele><time>2026-08-14T07:17:06Z</time></trkpt><trkpt lat="59.3505694158" lon="34.6992093790"><ele>161.71</ele><time>2026-08-14T07:17:29Z</time></trkpt><trkpt lat="59.3505622074" lon="34.6992362849"><ele>161.71</ele><time>2026-08-14T07:17:45Z</time></trkpt><trkpt lat="59.3505884428" lon="34.6993743349"><ele>160.08</ele><time>2026-08-14T07:18:06Z</time></trkpt><trkpt lat="59.3506062124" lon="34.6994250454"><ele>161.46</ele><time>2026-08-14T07:18:40Z</time></trkpt><trkpt lat="59.3505933881" lon="34.6993090399"><ele>161.18</ele><time>2026-08-14T07:18:57Z</time></trkpt><trkpt lat="59.3505826592" lon="34.6992334351"><ele>162.52</ele><time>2026-08-14T07:19:21Z</time></trkpt><trkpt lat="59.3506039493" lon="34.6992393862"><ele>163.29</ele><time>2026-08-14T07:19:50Z</time></trkpt><trkpt lat="59.3505928852" lon="34.6992313396"><ele>162.91</ele><time>2026-08-14T07:20:22Z</time></trkpt><trkpt lat="59.3506002612" lon="34.6992032602"><ele>164.13</ele><time>2026-08-14T07:20:56Z</time></trkpt><trkpt lat="59.3505656440" lon="34.6992200240"><ele>163.33</ele><time>2026-08-14T07:21:27Z</time></trkpt><trkpt lat="59.3505658954" lon="34.6992517076"><ele>162.96</ele><time>2026-08-14T07:21:55Z</time></trkpt><trkpt lat="59.3505847547" lon="34.6992367879"><ele>163.32</ele><time>2026-08-14T07:22:20Z</time></trkpt><trkpt lat="59.3505877722" lon="34.6992091276"><ele>163.45</ele><time>2026-08-14T07:22:47Z</time></trkpt><trkpt lat="59.3505891133" lon="34.6991588362"><ele>163.72</ele><time>2026-08-14T07:23:13Z</time></trkpt><trkpt lat="59.3504700903" lon="34.6985591948"><ele>162.84</ele><time>2026-08-14T07:23:23Z</time></trkpt><trkpt lat="59.3504198827" lon="34.6982849389"><ele>162.45</ele><time>2026-08-14T07:23:26Z</time></trkpt><trkpt lat="59.3503231555" lon="34.6974995546"><ele>163.84</ele><time>2026-08-14T07:23:33Z</time></trkpt><trkpt lat="59.3500341475" lon="34.6962733660"><ele>161.72</ele><time>2026-08-14T07:23:45Z</time></trkpt><trkpt lat="59.3500138633" lon="34.6961547621"><ele>161.90</ele><time>2026-08-14T07:23:46Z</time></trkpt><trkpt lat="59.3499980215" lon="34.6960307937"><ele>161.99</ele><time>2026-08-14T07:23:47Z</time></trkpt><trkpt lat="59.3499874603" lon="34.6959028021"><ele>161.87</ele><time>2026-08-14T07:23:48Z</time></trkpt><trkpt lat="59.3499824312" lon="34.6957707871"><ele>161.81</ele><time>2026-08-14T07:23:49Z</time></trkpt><trkpt lat="59.3499790784" lon="34.6956376825"><ele>161.89</ele><time>2026-08-14T07:23:50Z</time></trkpt><trkpt lat="59.3499524239" lon="34.6950082015"><ele>162.03</ele><time>2026-08-14T07:23:55Z</time></trkpt><trkpt lat="59.3498415314" lon="34.6935541928"><ele>161.11</ele><time>2026-08-14T07:24:07Z</time></trkpt><trkpt lat="59.3497645017" lon="34.6927471831"><ele>162.14</ele><time>2026-08-14T07:24:13Z</time></trkpt><trkpt lat="59.3497575447" lon="34.6926086303"><ele>162.50</ele><time>2026-08-14T07:24:14Z</time></trkpt><trkpt lat="59.3497453071" lon="34.6923497971"><ele>162.53</ele><time>2026-08-14T07:24:16Z</time></trkpt><trkpt lat="59.3497476541" lon="34.6922147647"><ele>162.44</ele><time>2026-08-14T07:24:17Z</time></trkpt><trkpt lat="59.3497029785" lon="34.6910375264"><ele>162.44</ele><time>2026-08-14T07:24:28Z</time></trkpt><trkpt lat="59.3496884778" lon="34.6908325888"><ele>162.38</ele><time>2026-08-14T07:24:30Z</time></trkpt><trkpt lat="59.3496196624" lon="34.6904550679"><ele>162.43</ele><time>2026-08-14T07:24:34Z</time></trkpt><trkpt lat="59.3494232744" lon="34.6897331346"><ele>161.31</ele><time>2026-08-14T07:24:43Z</time></trkpt><trkpt lat="59.3494105339" lon="34.6896374132"><ele>161.30</ele><time>2026-08-14T07:24:44Z</time></trkpt><trkpt lat="59.3493471667" lon="34.6890565474"><ele>162.00</ele><time>2026-08-14T07:24:50Z</time></trkpt><trkpt lat="59.3493313249" lon="34.6889798529"><ele>161.89</ele><time>2026-08-14T07:24:51Z</time></trkpt><trkpt lat="59.3493007310" lon="34.6887569781"><ele>161.70</ele><time>2026-08-14T07:24:54Z</time></trkpt><trkpt lat="59.3492981326" lon="34.6886792779"><ele>161.28</ele><time>2026-08-14T07:24:55Z</time></trkpt><trkpt lat="59.3492911756" lon="34.6883258130"><ele>160.09</ele><time>2026-08-14T07:24:59Z</time></trkpt><trkpt lat="59.3492867332" lon="34.6882188600"><ele>160.16</ele><time>2026-08-14T07:25:00Z</time></trkpt><trkpt lat="59.3492868170" lon="34.6881159302"><ele>159.74</ele><time>2026-08-14T07:25:01Z</time></trkpt><trkpt lat="59.3492839672" lon="34.6877840906"><ele>158.72</ele><time>2026-08-14T07:25:04Z</time></trkpt><trkpt lat="59.3492090330" lon="34.6867413819"><ele>160.65</ele><time>2026-08-14T07:25:13Z</time></trkpt><trkpt lat="59.3492090330" lon="34.6863771044"><ele>161.86</ele><time>2026-08-14T07:25:17Z</time></trkpt><trkpt lat="59.3492304068" lon="34.6862354502"><ele>163.26</ele><time>2026-08-14T07:25:24Z</time></trkpt><trkpt lat="59.3491166644" lon="34.6857298538"><ele>162.79</ele><time>2026-08-14T07:25:36Z</time></trkpt><trkpt lat="59.3490072805" lon="34.6853885427"><ele>162.94</ele><time>2026-08-14T07:25:44Z</time></trkpt><trkpt lat="59.3489674665" lon="34.6850629896"><ele>161.33</ele><time>2026-08-14T07:25:53Z</time></trkpt><trkpt lat="59.3489816319" lon="34.6850929130"><ele>163.41</ele><time>2026-08-14T07:26:10Z</time></trkpt><trkpt lat="59.3490180932" lon="34.6851135325"><ele>163.47</ele><time>2026-08-14T07:26:13Z</time></trkpt><trkpt lat="59.3490929436" lon="34.6853068192"><ele>162.97</ele><time>2026-08-14T07:26:21Z</time></trkpt><trkpt lat="59.3492453266" lon="34.6856674086"><ele>160.91</ele><time>2026-08-14T07:26:29Z</time></trkpt><trkpt lat="59.3493212666" lon="34.6859586798"><ele>156.73</ele><time>2026-08-14T07:26:37Z</time></trkpt><trkpt lat="59.3492622580" lon="34.6862643678"><ele>153.29</ele><time>2026-08-14T07:26:49Z</time></trkpt><trkpt lat="59.3492211029" lon="34.6868492570"><ele>156.36</ele><time>2026-08-14T07:26:58Z</time></trkpt><trkpt lat="59.3492672872" lon="34.6877506468"><ele>154.20</ele><time>2026-08-14T07:27:10Z</time></trkpt><trkpt lat="59.3492560554" lon="34.6879374795"><ele>154.27</ele><time>2026-08-14T07:27:14Z</time></trkpt><trkpt lat="59.3491972145" lon="34.6880051214"><ele>153.28</ele><time>2026-08-14T07:27:17Z</time></trkpt><trkpt lat="59.3491084501" lon="34.6881870087"><ele>152.63</ele><time>2026-08-14T07:27:23Z</time></trkpt><trkpt lat="59.3489631917" lon="34.6882352047"><ele>156.59</ele><time>2026-08-14T07:27:34Z</time></trkpt><trkpt lat="59.3487727549" lon="34.6881519724"><ele>159.61</ele><time>2026-08-14T07:27:45Z</time></trkpt><trkpt lat="59.3484829925" lon="34.6879813168"><ele>162.06</ele><time>2026-08-14T07:27:55Z</time></trkpt><trkpt lat="59.3481116742" lon="34.6877766307"><ele>161.68</ele><time>2026-08-14T07:28:08Z</time></trkpt><trkpt lat="59.3478660006" lon="34.6876161173"><ele>157.79</ele><time>2026-08-14T07:28:17Z</time></trkpt><trkpt lat="59.3476433773" lon="34.6874912269"><ele>158.92</ele><time>2026-08-14T07:28:26Z</time></trkpt><trkpt lat="59.3475438002" lon="34.6874384210"><ele>160.79</ele><time>2026-08-14T07:28:31Z</time></trkpt><trkpt lat="59.3474035710" lon="34.6873568650"><ele>160.86</ele><time>2026-08-14T07:28:38Z</time></trkpt><trkpt lat="59.3472126313" lon="34.6872769017"><ele>162.75</ele><time>2026-08-14T07:28:55Z</time></trkpt><trkpt lat="59.3470641039" lon="34.6871992014"><ele>163.15</ele><time>2026-08-14T07:29:07Z</time></trkpt><trkpt lat="59.3470475916" lon="34.6872230060"><ele>162.56</ele><time>2026-08-14T07:29:11Z</time></trkpt><trkpt lat="59.3468895927" lon="34.6873507462"><ele>166.90</ele><time>2026-08-14T07:29:31Z</time></trkpt><trkpt lat="59.3468757626" lon="34.6872914862"><ele>173.73</ele><time>2026-08-14T07:29:55Z</time></trkpt><trkpt lat="59.3466788717" lon="34.6871681046"><ele>173.37</ele><time>2026-08-14T07:30:06Z</time></trkpt><trkpt lat="59.3465267401" lon="34.6871308889"><ele>171.70</ele><time>2026-08-14T07:30:12Z</time></trkpt><trkpt lat="59.3461420946" lon="34.6870636661"><ele>162.46</ele><time>2026-08-14T07:30:24Z</time></trkpt><trkpt lat="59.3459174596" lon="34.6871161368"><ele>158.71</ele><time>2026-08-14T07:30:34Z</time></trkpt><trkpt lat="59.3457672559" lon="34.6871689428"><ele>158.71</ele><time>2026-08-14T07:30:53Z</time></trkpt><trkpt lat="59.3457583711" lon="34.6871223394"><ele>159.57</ele><time>2026-08-14T07:31:01Z</time></trkpt><trkpt lat="59.3456175551" lon="34.6870518476"><ele>160.28</ele><time>2026-08-14T07:31:17Z</time></trkpt><trkpt lat="59.3455499969" lon="34.6872029733"><ele>159.40</ele><time>2026-08-14T07:31:27Z</time></trkpt><trkpt lat="59.3453688640" lon="34.6872584615"><ele>159.86</ele><time>2026-08-14T07:31:49Z</time></trkpt><trkpt lat="59.3451306503" lon="34.6873791609"><ele>159.46</ele><time>2026-08-14T07:32:00Z</time></trkpt><trkpt lat="59.3449101225" lon="34.6874135267"><ele>159.09</ele><time>2026-08-14T07:32:10Z</time></trkpt><trkpt lat="59.3448255491" lon="34.6873585414"><ele>159.10</ele><time>2026-08-14T07:32:16Z</time></trkpt><trkpt lat="59.3448185083" lon="34.6873416938"><ele>159.08</ele><time>2026-08-14T07:32:17Z</time></trkpt><trkpt lat="59.3448062707" lon="34.6873230860"><ele>159.14</ele><time>2026-08-14T07:32:18Z</time></trkpt><trkpt lat="59.3447892554" lon="34.6873147041"><ele>159.16</ele><time>2026-08-14T07:32:19Z</time></trkpt><trkpt lat="59.3447708152" lon="34.6873020474"><ele>159.14</ele><time>2026-08-14T07:32:20Z</time></trkpt><trkpt lat="59.3447553087" lon="34.6872936655"><ele>159.19</ele><time>2026-08-14T07:32:21Z</time></trkpt><trkpt lat="59.3447453342" lon="34.6872867085"><ele>159.19</ele><time>2026-08-14T07:32:22Z</time></trkpt><trkpt lat="59.3445628602" lon="34.6872846130"><ele>160.55</ele><time>2026-08-14T07:32:39Z</time></trkpt><trkpt lat="59.3444445916" lon="34.6871013846"><ele>162.09</ele><time>2026-08-14T07:32:50Z</time></trkpt><trkpt lat="59.3444123212" lon="34.6870851237"><ele>163.48</ele><time>2026-08-14T07:33:03Z</time></trkpt><trkpt lat="59.3441772927" lon="34.6867720596"><ele>163.49</ele><time>2026-08-14T07:33:16Z</time></trkpt><trkpt lat="59.3438854348" lon="34.6865102928"><ele>163.34</ele><time>2026-08-14T07:33:27Z</time></trkpt><trkpt lat="59.3436363246" lon="34.6856339648"><ele>156.94</ele><time>2026-08-14T07:33:39Z</time></trkpt><trkpt lat="59.3435893022" lon="34.6854663268"><ele>156.29</ele><time>2026-08-14T07:33:41Z</time></trkpt><trkpt lat="59.3433493283" lon="34.6847116202"><ele>160.42</ele><time>2026-08-14T07:33:51Z</time></trkpt><trkpt lat="59.3432918284" lon="34.6844625100"><ele>160.03</ele><time>2026-08-14T07:33:54Z</time></trkpt><trkpt lat="59.3431152217" lon="34.6837699134"><ele>159.94</ele><time>2026-08-14T07:34:05Z</time></trkpt><trkpt lat="59.3427709769" lon="34.6835677419"><ele>157.95</ele><time>2026-08-14T07:34:14Z</time></trkpt><trkpt lat="59.3426771834" lon="34.6835292690"><ele>155.37</ele><time>2026-08-14T07:34:17Z</time></trkpt><trkpt lat="59.3424873333" lon="34.6834519878"><ele>155.09</ele><time>2026-08-14T07:34:25Z</time></trkpt><trkpt lat="59.3423159234" lon="34.6834282670"><ele>156.37</ele><time>2026-08-14T07:34:30Z</time></trkpt><trkpt lat="59.3417836726" lon="34.6833985113"><ele>156.18</ele><time>2026-08-14T07:34:40Z</time></trkpt><trkpt lat="59.3412380945" lon="34.6834624652"><ele>153.52</ele><time>2026-08-14T07:34:49Z</time></trkpt><trkpt lat="59.3410498369" lon="34.6834204718"><ele>151.58</ele><time>2026-08-14T07:34:56Z</time></trkpt><trkpt lat="59.3407137226" lon="34.6833543386"><ele>152.21</ele><time>2026-08-14T07:35:05Z</time></trkpt><trkpt lat="59.3404615112" lon="34.6833255887"><ele>149.69</ele><time>2026-08-14T07:35:09Z</time></trkpt><trkpt lat="59.3404118065" lon="34.6833056398"><ele>148.99</ele><time>2026-08-14T07:35:10Z</time></trkpt><trkpt lat="59.3403641135" lon="34.6832777280"><ele>148.30</ele><time>2026-08-14T07:35:11Z</time></trkpt><trkpt lat="59.3403049372" lon="34.6832482237"><ele>147.78</ele><time>2026-08-14T07:35:12Z</time></trkpt><trkpt lat="59.3402316794" lon="34.6832127683"><ele>146.49</ele><time>2026-08-14T07:35:13Z</time></trkpt><trkpt lat="59.3401594274" lon="34.6831714455"><ele>145.59</ele><time>2026-08-14T07:35:14Z</time></trkpt><trkpt lat="59.3400832359" lon="34.6831265185"><ele>144.86</ele><time>2026-08-14T07:35:15Z</time></trkpt><trkpt lat="59.3393449578" lon="34.6828452218"><ele>136.08</ele><time>2026-08-14T07:35:25Z</time></trkpt><trkpt lat="59.3392787408" lon="34.6828193218"><ele>135.27</ele><time>2026-08-14T07:35:26Z</time></trkpt><trkpt lat="59.3391082529" lon="34.6827548649"><ele>133.85</ele><time>2026-08-14T07:35:29Z</time></trkpt><trkpt lat="59.3388971128" lon="34.6826847922"><ele>131.80</ele><time>2026-08-14T07:35:34Z</time></trkpt><trkpt lat="59.3384138122" lon="34.6822013240"><ele>131.86</ele><time>2026-08-14T07:35:44Z</time></trkpt><trkpt lat="59.3380598444" lon="34.6818896849"><ele>132.68</ele><time>2026-08-14T07:35:50Z</time></trkpt><trkpt lat="59.3380062841" lon="34.6818736754"><ele>132.28</ele><time>2026-08-14T07:35:51Z</time></trkpt><trkpt lat="59.3375419267" lon="34.6816238947"><ele>132.94</ele><time>2026-08-14T07:35:59Z</time></trkpt><trkpt lat="59.3373194709" lon="34.6814943105"><ele>130.50</ele><time>2026-08-14T07:36:03Z</time></trkpt><trkpt lat="59.3371787388" lon="34.6813829988"><ele>129.38</ele><time>2026-08-14T07:36:06Z</time></trkpt><trkpt lat="59.3371364940" lon="34.6813493036"><ele>128.90</ele><time>2026-08-14T07:36:07Z</time></trkpt><trkpt lat="59.3370844424" lon="34.6813130099"><ele>128.42</ele><time>2026-08-14T07:36:08Z</time></trkpt><trkpt lat="59.3366618268" lon="34.6811391693"><ele>121.54</ele><time>2026-08-14T07:36:18Z</time></trkpt><trkpt lat="59.3366121221" lon="34.6811117604"><ele>121.28</ele><time>2026-08-14T07:36:19Z</time></trkpt><trkpt lat="59.3365445640" lon="34.6810607146"><ele>120.66</ele><time>2026-08-14T07:36:20Z</time></trkpt><trkpt lat="59.3364925124" lon="34.6810500696"><ele>120.54</ele><time>2026-08-14T07:36:21Z</time></trkpt><trkpt lat="59.3363411352" lon="34.6810328029"><ele>123.01</ele><time>2026-08-14T07:36:24Z</time></trkpt><trkpt lat="59.3362910952" lon="34.6810249239"><ele>123.60</ele><time>2026-08-14T07:36:25Z</time></trkpt><trkpt lat="59.3362407200" lon="34.6810111776"><ele>123.79</ele><time>2026-08-14T07:36:26Z</time></trkpt><trkpt lat="59.3358438369" lon="34.6808219142"><ele>127.18</ele><time>2026-08-14T07:36:36Z</time></trkpt><trkpt lat="59.3354898691" lon="34.6805369295"><ele>131.57</ele><time>2026-08-14T07:36:47Z</time></trkpt><trkpt lat="59.3352343049" lon="34.6801384538"><ele>132.05</ele><time>2026-08-14T07:36:54Z</time></trkpt><trkpt lat="59.3351993524" lon="34.6800972149"><ele>131.83</ele><time>2026-08-14T07:36:55Z</time></trkpt><trkpt lat="59.3351678364" lon="34.6800556406"><ele>131.80</ele><time>2026-08-14T07:36:56Z</time></trkpt><trkpt lat="59.3351419363" lon="34.6800344344"><ele>132.10</ele><time>2026-08-14T07:36:57Z</time></trkpt><trkpt lat="59.3351226579" lon="34.6800001524"><ele>133.18</ele><time>2026-08-14T07:36:58Z</time></trkpt><trkpt lat="59.3351003621" lon="34.6799434070"><ele>135.02</ele><time>2026-08-14T07:36:59Z</time></trkpt><trkpt lat="59.3350725342" lon="34.6799120586"><ele>135.43</ele><time>2026-08-14T07:37:00Z</time></trkpt><trkpt lat="59.3347779941" lon="34.6795363817"><ele>139.32</ele><time>2026-08-14T07:37:09Z</time></trkpt><trkpt lat="59.3345509283" lon="34.6791719366"><ele>138.89</ele><time>2026-08-14T07:37:20Z</time></trkpt><trkpt lat="59.3343254551" lon="34.6788053121"><ele>137.65</ele><time>2026-08-14T07:37:28Z</time></trkpt><trkpt lat="59.3340399675" lon="34.6784375142"><ele>137.01</ele><time>2026-08-14T07:37:37Z</time></trkpt><trkpt lat="59.3336781207" lon="34.6778208576"><ele>135.50</ele><time>2026-08-14T07:37:49Z</time></trkpt><trkpt lat="59.3333435990" lon="34.6770089027"><ele>135.87</ele><time>2026-08-14T07:38:00Z</time></trkpt><trkpt lat="59.3331236579" lon="34.6763733029"><ele>142.42</ele><time>2026-08-14T07:38:10Z</time></trkpt><trkpt lat="59.3328551855" lon="34.6759622544"><ele>146.72</ele><time>2026-08-14T07:38:17Z</time></trkpt><trkpt lat="59.3327613082" lon="34.6757781878"><ele>146.50</ele><time>2026-08-14T07:38:19Z</time></trkpt><trkpt lat="59.3324947637" lon="34.6750117466"><ele>148.16</ele><time>2026-08-14T07:38:28Z</time></trkpt><trkpt lat="59.3321798556" lon="34.6743826848"><ele>150.02</ele><time>2026-08-14T07:38:40Z</time></trkpt><trkpt lat="59.3319749180" lon="34.6738045011"><ele>148.77</ele><time>2026-08-14T07:38:48Z</time></trkpt><trkpt lat="59.3315709103" lon="34.6736501064"><ele>142.94</ele><time>2026-08-14T07:38:59Z</time></trkpt><trkpt lat="59.3314105645" lon="34.6735268924"><ele>141.90</ele><time>2026-08-14T07:39:03Z</time></trkpt><trkpt lat="59.3310252484" lon="34.6729725134"><ele>139.85</ele><time>2026-08-14T07:39:14Z</time></trkpt><trkpt lat="59.3310076464" lon="34.6729186177"><ele>139.61</ele><time>2026-08-14T07:39:15Z</time></trkpt><trkpt lat="59.3309340533" lon="34.6725548431"><ele>139.92</ele><time>2026-08-14T07:39:26Z</time></trkpt><trkpt lat="59.3309148587" lon="34.6724960860"><ele>140.40</ele><time>2026-08-14T07:39:28Z</time></trkpt><trkpt lat="59.3305889703" lon="34.6722201537"><ele>139.91</ele><time>2026-08-14T07:39:39Z</time></trkpt><trkpt lat="59.3302315660" lon="34.6721945889"><ele>139.77</ele><time>2026-08-14T07:39:48Z</time></trkpt><trkpt lat="59.3297750875" lon="34.6721758135"><ele>142.50</ele><time>2026-08-14T07:40:00Z</time></trkpt><trkpt lat="59.3295082916" lon="34.6720598917"><ele>143.92</ele><time>2026-08-14T07:40:06Z</time></trkpt><trkpt lat="59.3293818925" lon="34.6719948482"><ele>144.13</ele><time>2026-08-14T07:40:09Z</time></trkpt><trkpt lat="59.3289344665" lon="34.6716593206"><ele>144.98</ele><time>2026-08-14T07:40:21Z</time></trkpt><trkpt lat="59.3285908923" lon="34.6712861583"><ele>145.35</ele><time>2026-08-14T07:40:31Z</time></trkpt><trkpt lat="59.3280061707" lon="34.6706735250"><ele>151.15</ele><time>2026-08-14T07:40:46Z</time></trkpt><trkpt lat="59.3277115468" lon="34.6703138575"><ele>155.71</ele><time>2026-08-14T07:40:56Z</time></trkpt><trkpt lat="59.3275283184" lon="34.6701650787"><ele>155.14</ele><time>2026-08-14T07:41:04Z</time></trkpt><trkpt lat="59.3271372188" lon="34.6700202394"><ele>152.14</ele><time>2026-08-14T07:41:14Z</time></trkpt><trkpt lat="59.3268147670" lon="34.6701759752"><ele>149.15</ele><time>2026-08-14T07:41:24Z</time></trkpt><trkpt lat="59.3266686704" lon="34.6706819907"><ele>141.58</ele><time>2026-08-14T07:41:36Z</time></trkpt><trkpt lat="59.3264812510" lon="34.6710527223"><ele>139.38</ele><time>2026-08-14T07:41:46Z</time></trkpt><trkpt lat="59.3264681753" lon="34.6710818075"><ele>138.94</ele><time>2026-08-14T07:41:47Z</time></trkpt><trkpt lat="59.3262718711" lon="34.6713425685"><ele>137.87</ele><time>2026-08-14T07:41:57Z</time></trkpt><trkpt lat="59.3260858767" lon="34.6716124658"><ele>138.29</ele><time>2026-08-14T07:42:05Z</time></trkpt><trkpt lat="59.3259717152" lon="34.6718402859"><ele>136.15</ele><time>2026-08-14T07:42:11Z</time></trkpt><trkpt lat="59.3257827032" lon="34.6719660982"><ele>135.20</ele><time>2026-08-14T07:42:17Z</time></trkpt><trkpt lat="59.3253591657" lon="34.6721651684"><ele>130.76</ele><time>2026-08-14T07:42:28Z</time></trkpt><trkpt lat="59.3251127377" lon="34.6723158751"><ele>129.23</ele><time>2026-08-14T07:42:36Z</time></trkpt><trkpt lat="59.3250678945" lon="34.6727876086"><ele>127.14</ele><time>2026-08-14T07:42:45Z</time></trkpt><trkpt lat="59.3251087144" lon="34.6735073626"><ele>133.77</ele><time>2026-08-14T07:42:55Z</time></trkpt><trkpt lat="59.3251719140" lon="34.6738120448"><ele>134.44</ele><time>2026-08-14T07:43:00Z</time></trkpt><trkpt lat="59.3250471912" lon="34.6745048929"><ele>130.50</ele><time>2026-08-14T07:43:10Z</time></trkpt><trkpt lat="59.3248104863" lon="34.6750370599"><ele>133.10</ele><time>2026-08-14T07:43:20Z</time></trkpt><trkpt lat="59.3247852568" lon="34.6750701685"><ele>133.99</ele><time>2026-08-14T07:43:21Z</time></trkpt><trkpt lat="59.3245887849" lon="34.6753106453"><ele>136.81</ele><time>2026-08-14T07:43:31Z</time></trkpt><trkpt lat="59.3242720328" lon="34.6751602739"><ele>140.45</ele><time>2026-08-14T07:43:41Z</time></trkpt><trkpt lat="59.3242236692" lon="34.6751218848"><ele>140.38</ele><time>2026-08-14T07:43:42Z</time></trkpt><trkpt lat="59.3239692785" lon="34.6748625487"><ele>142.20</ele><time>2026-08-14T07:43:48Z</time></trkpt><trkpt lat="59.3239313923" lon="34.6747975051"><ele>142.39</ele><time>2026-08-14T07:43:49Z</time></trkpt><trkpt lat="59.3238842860" lon="34.6747418493"><ele>142.09</ele><time>2026-08-14T07:43:50Z</time></trkpt><trkpt lat="59.3238436338" lon="34.6747113392"><ele>142.27</ele><time>2026-08-14T07:43:51Z</time></trkpt><trkpt lat="59.3238060828" lon="34.6746797394"><ele>142.31</ele><time>2026-08-14T07:43:52Z</time></trkpt><trkpt lat="59.3234723154" lon="34.6744986903"><ele>143.08</ele><time>2026-08-14T07:44:00Z</time></trkpt><trkpt lat="59.3228770327" lon="34.6742348280"><ele>145.96</ele><time>2026-08-14T07:44:13Z</time></trkpt><trkpt lat="59.3228252325" lon="34.6742167231"><ele>146.47</ele><time>2026-08-14T07:44:14Z</time></trkpt><trkpt lat="59.3227678165" lon="34.6741885599"><ele>146.76</ele><time>2026-08-14T07:44:15Z</time></trkpt><trkpt lat="59.3227145914" lon="34.6741491649"><ele>148.17</ele><time>2026-08-14T07:44:16Z</time></trkpt><trkpt lat="59.3225446064" lon="34.6740529407"><ele>150.51</ele><time>2026-08-14T07:44:19Z</time></trkpt><trkpt lat="59.3224224821" lon="34.6740055829"><ele>151.98</ele><time>2026-08-14T07:44:21Z</time></trkpt><trkpt lat="59.3217531871" lon="34.6732701547"><ele>157.32</ele><time>2026-08-14T07:44:33Z</time></trkpt><trkpt lat="59.3214072660" lon="34.6725059766"><ele>159.35</ele><time>2026-08-14T07:44:45Z</time></trkpt><trkpt lat="59.3210894242" lon="34.6719216742"><ele>159.24</ele><time>2026-08-14T07:44:56Z</time></trkpt><trkpt lat="59.3207546510" lon="34.6713043470"><ele>159.65</ele><time>2026-08-14T07:45:06Z</time></trkpt><trkpt lat="59.3207290862" lon="34.6712336037"><ele>159.58</ele><time>2026-08-14T07:45:07Z</time></trkpt><trkpt lat="59.3206809741" lon="34.6710761078"><ele>159.36</ele><time>2026-08-14T07:45:09Z</time></trkpt><trkpt lat="59.3206134997" lon="34.6707580145"><ele>157.34</ele><time>2026-08-14T07:45:13Z</time></trkpt><trkpt lat="59.3205938023" lon="34.6706802305"><ele>157.38</ele><time>2026-08-14T07:45:14Z</time></trkpt><trkpt lat="59.3205677345" lon="34.6705962438"><ele>156.96</ele><time>2026-08-14T07:45:15Z</time></trkpt><trkpt lat="59.3205171078" lon="34.6704183798"><ele>155.75</ele><time>2026-08-14T07:45:17Z</time></trkpt><trkpt lat="59.3203443568" lon="34.6698280424"><ele>152.92</ele><time>2026-08-14T07:45:24Z</time></trkpt><trkpt lat="59.3200520799" lon="34.6687252354"><ele>152.18</ele><time>2026-08-14T07:45:36Z</time></trkpt><trkpt lat="59.3199927360" lon="34.6684727725"><ele>151.46</ele><time>2026-08-14T07:45:39Z</time></trkpt><trkpt lat="59.3199738767" lon="34.6683899593"><ele>151.55</ele><time>2026-08-14T07:45:40Z</time></trkpt><trkpt lat="59.3197778240" lon="34.6676557884"><ele>147.47</ele><time>2026-08-14T07:45:49Z</time></trkpt><trkpt lat="59.3197277840" lon="34.6674049180"><ele>146.16</ele><time>2026-08-14T07:45:57Z</time></trkpt><trkpt lat="59.3197354954" lon="34.6674490906"><ele>146.96</ele><time>2026-08-14T07:45:59Z</time></trkpt><trkpt lat="59.3197536841" lon="34.6675666049"><ele>148.45</ele><time>2026-08-14T07:46:10Z</time></trkpt><trkpt lat="59.3197226711" lon="34.6674795169"><ele>149.83</ele><time>2026-08-14T07:46:23Z</time></trkpt><trkpt lat="59.3195781671" lon="34.6668947954"><ele>151.16</ele><time>2026-08-14T07:46:38Z</time></trkpt><trkpt lat="59.3195754010" lon="34.6667947154"><ele>152.01</ele><time>2026-08-14T07:46:47Z</time></trkpt><trkpt lat="59.3195705395" lon="34.6667397302"><ele>154.68</ele><time>2026-08-14T07:46:56Z</time></trkpt><trkpt lat="59.3195550330" lon="34.6666960604"><ele>154.95</ele><time>2026-08-14T07:46:57Z</time></trkpt><trkpt lat="59.3195370957" lon="34.6666287538"><ele>155.12</ele><time>2026-08-14T07:46:58Z</time></trkpt><trkpt lat="59.3195230141" lon="34.6665555798"><ele>155.24</ele><time>2026-08-14T07:46:59Z</time></trkpt><trkpt lat="59.3195100222" lon="34.6664833277"><ele>155.40</ele><time>2026-08-14T07:47:00Z</time></trkpt><trkpt lat="59.3193974532" lon="34.6658228338"><ele>156.99</ele><time>2026-08-14T07:47:12Z</time></trkpt><trkpt lat="59.3193818629" lon="34.6656385995"><ele>158.07</ele><time>2026-08-14T07:47:15Z</time></trkpt><trkpt lat="59.3193694577" lon="34.6655688621"><ele>158.13</ele><time>2026-08-14T07:47:16Z</time></trkpt><trkpt lat="59.3193383608" lon="34.6653369348"><ele>158.94</ele><time>2026-08-14T07:47:19Z</time></trkpt><trkpt lat="59.3192567211" lon="34.6642989200"><ele>158.75</ele><time>2026-08-14T07:47:33Z</time></trkpt><trkpt lat="59.3191900849" lon="34.6639193874"><ele>156.79</ele><time>2026-08-14T07:47:38Z</time></trkpt><trkpt lat="59.3191659451" lon="34.6638607141"><ele>156.42</ele><time>2026-08-14T07:47:39Z</time></trkpt><trkpt lat="59.3191343453" lon="34.6637971792"><ele>155.62</ele><time>2026-08-14T07:47:40Z</time></trkpt><trkpt lat="59.3188911863" lon="34.6633888129"><ele>149.10</ele><time>2026-08-14T07:47:49Z</time></trkpt><trkpt lat="59.3188798707" lon="34.6632965282"><ele>147.80</ele><time>2026-08-14T07:48:00Z</time></trkpt><trkpt lat="59.3188517075" lon="34.6632490028"><ele>147.36</ele><time>2026-08-14T07:48:14Z</time></trkpt><trkpt lat="59.3188372068" lon="34.6632011421"><ele>147.23</ele><time>2026-08-14T07:48:15Z</time></trkpt><trkpt lat="59.3185958080" lon="34.6626548097"><ele>146.86</ele><time>2026-08-14T07:48:26Z</time></trkpt><trkpt lat="59.3183902837" lon="34.6619192138"><ele>146.43</ele><time>2026-08-14T07:48:37Z</time></trkpt><trkpt lat="59.3183639646" lon="34.6612206660"><ele>147.82</ele><time>2026-08-14T07:48:47Z</time></trkpt><trkpt lat="59.3183171097" lon="34.6605538018"><ele>147.22</ele><time>2026-08-14T07:48:57Z</time></trkpt><trkpt lat="59.3182678241" lon="34.6596467122"><ele>150.39</ele><time>2026-08-14T07:49:09Z</time></trkpt><trkpt lat="59.3182309438" lon="34.6591093484"><ele>153.16</ele><time>2026-08-14T07:49:19Z</time></trkpt><trkpt lat="59.3182223942" lon="34.6589314006"><ele>155.37</ele><time>2026-08-14T07:49:31Z</time></trkpt><trkpt lat="59.3182203826" lon="34.6581992414"><ele>156.81</ele><time>2026-08-14T07:49:42Z</time></trkpt><trkpt lat="59.3181737792" lon="34.6578559186"><ele>157.61</ele><time>2026-08-14T07:49:52Z</time></trkpt><trkpt lat="59.3181466218" lon="34.6577917971"><ele>157.85</ele><time>2026-08-14T07:49:54Z</time></trkpt><trkpt lat="59.3181313667" lon="34.6577591915"><ele>157.95</ele><time>2026-08-14T07:49:55Z</time></trkpt><trkpt lat="59.3181166984" lon="34.6577148512"><ele>158.26</ele><time>2026-08-14T07:49:56Z</time></trkpt><trkpt lat="59.3179828394" lon="34.6570463106"><ele>159.45</ele><time>2026-08-14T07:50:07Z</time></trkpt><trkpt lat="59.3177651614" lon="34.6561331861"><ele>163.86</ele><time>2026-08-14T07:50:17Z</time></trkpt><trkpt lat="59.3176999502" lon="34.6555742808"><ele>163.53</ele><time>2026-08-14T07:50:26Z</time></trkpt><trkpt lat="59.3175910693" lon="34.6548650879"><ele>161.02</ele><time>2026-08-14T07:50:37Z</time></trkpt><trkpt lat="59.3175953440" lon="34.6548914071"><ele>161.12</ele><time>2026-08-14T07:50:44Z</time></trkpt><trkpt lat="59.3176074978" lon="34.6549624857"><ele>161.67</ele><time>2026-08-14T07:50:52Z</time></trkpt><trkpt lat="59.3176465575" lon="34.6550233383"><ele>161.69</ele><time>2026-08-14T07:50:54Z</time></trkpt><trkpt lat="59.3176525924" lon="34.6550783236"><ele>161.74</ele><time>2026-08-14T07:50:55Z</time></trkpt><trkpt lat="59.3176994473" lon="34.6557305194"><ele>161.30</ele><time>2026-08-14T07:51:03Z</time></trkpt><trkpt lat="59.3179736193" lon="34.6569475718"><ele>157.32</ele><time>2026-08-14T07:51:16Z</time></trkpt><trkpt lat="59.3181719352" lon="34.6577215567"><ele>152.26</ele><time>2026-08-14T07:51:25Z</time></trkpt><trkpt lat="59.3181923870" lon="34.6577989217"><ele>151.33</ele><time>2026-08-14T07:51:26Z</time></trkpt><trkpt lat="59.3182088155" lon="34.6578853391"><ele>150.97</ele><time>2026-08-14T07:51:27Z</time></trkpt><trkpt lat="59.3182240706" lon="34.6579796355"><ele>150.83</ele><time>2026-08-14T07:51:28Z</time></trkpt><trkpt lat="59.3182373978" lon="34.6580668911"><ele>149.96</ele><time>2026-08-14T07:51:29Z</time></trkpt><trkpt lat="59.3182417564" lon="34.6581685636"><ele>149.90</ele><time>2026-08-14T07:51:30Z</time></trkpt><trkpt lat="59.3182409182" lon="34.6582806297"><ele>150.50</ele><time>2026-08-14T07:51:31Z</time></trkpt><trkpt lat="59.3182397448" lon="34.6583807096"><ele>150.58</ele><time>2026-08-14T07:51:32Z</time></trkpt><trkpt lat="59.3182381522" lon="34.6584845614"><ele>150.33</ele><time>2026-08-14T07:51:33Z</time></trkpt><trkpt lat="59.3182461150" lon="34.6589349210"><ele>151.49</ele><time>2026-08-14T07:51:38Z</time></trkpt><trkpt lat="59.3182585202" lon="34.6589845419"><ele>153.57</ele><time>2026-08-14T07:51:39Z</time></trkpt><trkpt lat="59.3183877692" lon="34.6589607373"><ele>156.41</ele><time>2026-08-14T07:51:44Z</time></trkpt><trkpt lat="59.3184583448" lon="34.6588450670"><ele>156.58</ele><time>2026-08-14T07:51:46Z</time></trkpt><trkpt lat="59.3185880966" lon="34.6587016527"><ele>157.79</ele><time>2026-08-14T07:51:49Z</time></trkpt><trkpt lat="59.3188702315" lon="34.6584850643"><ele>161.58</ele><time>2026-08-14T07:51:56Z</time></trkpt><trkpt lat="59.3193574715" lon="34.6581970621"><ele>161.65</ele><time>2026-08-14T07:52:09Z</time></trkpt><trkpt lat="59.3196075875" lon="34.6580609400"><ele>163.27</ele><time>2026-08-14T07:52:15Z</time></trkpt><trkpt lat="59.3197732139" lon="34.6578768734"><ele>161.98</ele><time>2026-08-14T07:52:19Z</time></trkpt><trkpt lat="59.3200713582" lon="34.6573716123"><ele>158.59</ele><time>2026-08-14T07:52:27Z</time></trkpt><trkpt lat="59.3201197218" lon="34.6572358254"><ele>157.57</ele><time>2026-08-14T07:52:29Z</time></trkpt><trkpt lat="59.3202372361" lon="34.6569709573"><ele>155.69</ele><time>2026-08-14T07:52:33Z</time></trkpt><trkpt lat="59.3205380626" lon="34.6564398799"><ele>148.91</ele><time>2026-08-14T07:52:45Z</time></trkpt><trkpt lat="59.3205827381" lon="34.6561730839"><ele>144.63</ele><time>2026-08-14T07:52:51Z</time></trkpt><trkpt lat="59.3206205405" lon="34.6557314415"><ele>137.45</ele><time>2026-08-14T07:53:01Z</time></trkpt><trkpt lat="59.3207155075" lon="34.6555183735"><ele>134.50</ele><time>2026-08-14T07:53:09Z</time></trkpt><trkpt lat="59.3207650445" lon="34.6551331412"><ele>132.53</ele><time>2026-08-14T07:53:17Z</time></trkpt><trkpt lat="59.3207943812" lon="34.6549059078"><ele>132.90</ele><time>2026-08-14T07:53:21Z</time></trkpt><trkpt lat="59.3209286593" lon="34.6545297280"><ele>130.39</ele><time>2026-08-14T07:53:29Z</time></trkpt><trkpt lat="59.3210763484" lon="34.6541721560"><ele>123.04</ele><time>2026-08-14T07:53:39Z</time></trkpt><trkpt lat="59.3210545555" lon="34.6539963875"><ele>121.49</ele><time>2026-08-14T07:53:43Z</time></trkpt><trkpt lat="59.3210403901" lon="34.6537746862"><ele>119.18</ele><time>2026-08-14T07:53:48Z</time></trkpt><trkpt lat="59.3211568147" lon="34.6535090636"><ele>122.26</ele><time>2026-08-14T07:53:55Z</time></trkpt><trkpt lat="59.3212901708" lon="34.6532057226"><ele>117.91</ele><time>2026-08-14T07:54:05Z</time></trkpt><trkpt lat="59.3214853015" lon="34.6528033912"><ele>112.89</ele><time>2026-08-14T07:54:16Z</time></trkpt><trkpt lat="59.3215170689" lon="34.6527294628"><ele>111.44</ele><time>2026-08-14T07:54:18Z</time></trkpt><trkpt lat="59.3216804322" lon="34.6525707096"><ele>111.28</ele><time>2026-08-14T07:54:24Z</time></trkpt><trkpt lat="59.3218602240" lon="34.6523941029"><ele>107.86</ele><time>2026-08-14T07:54:33Z</time></trkpt><trkpt lat="59.3219713680" lon="34.6523895767"><ele>106.46</ele><time>2026-08-14T07:54:37Z</time></trkpt><trkpt lat="59.3220745493" lon="34.6524024010"><ele>106.29</ele><time>2026-08-14T07:54:40Z</time></trkpt><trkpt lat="59.3224010244" lon="34.6521004848"><ele>106.61</ele><time>2026-08-14T07:54:53Z</time></trkpt><trkpt lat="59.3224454485" lon="34.6520600840"><ele>107.84</ele><time>2026-08-14T07:54:55Z</time></trkpt><trkpt lat="59.3226116616" lon="34.6518155001"><ele>106.57</ele><time>2026-08-14T07:55:04Z</time></trkpt><trkpt lat="59.3227845803" lon="34.6517039370"><ele>105.86</ele><time>2026-08-14T07:55:13Z</time></trkpt><trkpt lat="59.3228196166" lon="34.6516803838"><ele>105.08</ele><time>2026-08-14T07:55:15Z</time></trkpt><trkpt lat="59.3230100535" lon="34.6514599398"><ele>103.49</ele><time>2026-08-14T07:55:26Z</time></trkpt><trkpt lat="59.3230395578" lon="34.6514267474"><ele>102.79</ele><time>2026-08-14T07:55:28Z</time></trkpt><trkpt lat="59.3231219519" lon="34.6513456944"><ele>100.88</ele><time>2026-08-14T07:55:32Z</time></trkpt><trkpt lat="59.3234438170" lon="34.6509483084"><ele>93.17</ele><time>2026-08-14T07:55:45Z</time></trkpt><trkpt lat="59.3235653546" lon="34.6507671755"><ele>92.93</ele><time>2026-08-14T07:55:56Z</time></trkpt><trkpt lat="59.3236826174" lon="34.6507254336"><ele>110.06</ele><time>2026-08-14T07:56:20Z</time></trkpt><trkpt lat="59.3238108605" lon="34.6505892277"><ele>113.50</ele><time>2026-08-14T07:56:30Z</time></trkpt><trkpt lat="59.3240734655" lon="34.6502976213"><ele>116.59</ele><time>2026-08-14T07:56:42Z</time></trkpt><trkpt lat="59.3241701089" lon="34.6501331683"><ele>118.49</ele><time>2026-08-14T07:56:48Z</time></trkpt><trkpt lat="59.3244631402" lon="34.6499248780"><ele>117.78</ele><time>2026-08-14T07:56:58Z</time></trkpt><trkpt lat="59.3245812412" lon="34.6495752688"><ele>114.50</ele><time>2026-08-14T07:57:07Z</time></trkpt><trkpt lat="59.3248240650" lon="34.6491278429"><ele>109.93</ele><time>2026-08-14T07:57:18Z</time></trkpt><trkpt lat="59.3249150086" lon="34.6489054710"><ele>107.78</ele><time>2026-08-14T07:57:23Z</time></trkpt><trkpt lat="59.3252555653" lon="34.6484635770"><ele>105.04</ele><time>2026-08-14T07:57:34Z</time></trkpt><trkpt lat="59.3253091257" lon="34.6483603958"><ele>105.14</ele><time>2026-08-14T07:57:36Z</time></trkpt><trkpt lat="59.3255292345" lon="34.6478458308"><ele>102.16</ele><time>2026-08-14T07:57:47Z</time></trkpt><trkpt lat="59.3255449925" lon="34.6477270592"><ele>100.91</ele><time>2026-08-14T07:57:49Z</time></trkpt><trkpt lat="59.3256083596" lon="34.6475840639"><ele>97.40</ele><time>2026-08-14T07:57:54Z</time></trkpt><trkpt lat="59.3256528676" lon="34.6474965569"><ele>97.27</ele><time>2026-08-14T07:57:56Z</time></trkpt><trkpt lat="59.3257045839" lon="34.6472144220"><ele>94.46</ele><time>2026-08-14T07:58:01Z</time></trkpt><trkpt lat="59.3259101920" lon="34.6463713702"><ele>86.73</ele><time>2026-08-14T07:58:15Z</time></trkpt><trkpt lat="59.3260609824" lon="34.6458874829"><ele>82.99</ele><time>2026-08-14T07:58:23Z</time></trkpt><trkpt lat="59.3263141997" lon="34.6452898532"><ele>79.85</ele><time>2026-08-14T07:58:34Z</time></trkpt><trkpt lat="59.3263349868" lon="34.6451461036"><ele>80.21</ele><time>2026-08-14T07:58:36Z</time></trkpt><trkpt lat="59.3265232444" lon="34.6444774792"><ele>82.29</ele><time>2026-08-14T07:58:47Z</time></trkpt><trkpt lat="59.3265320454" lon="34.6443981025"><ele>82.65</ele><time>2026-08-14T07:58:48Z</time></trkpt><trkpt lat="59.3265567720" lon="34.6441644151"><ele>82.50</ele><time>2026-08-14T07:58:51Z</time></trkpt><trkpt lat="59.3265725300" lon="34.6440919116"><ele>82.43</ele><time>2026-08-14T07:58:52Z</time></trkpt><trkpt lat="59.3265837617" lon="34.6440256108"><ele>82.66</ele><time>2026-08-14T07:58:53Z</time></trkpt><trkpt lat="59.3265918922" lon="34.6439587232"><ele>82.20</ele><time>2026-08-14T07:58:54Z</time></trkpt><trkpt lat="59.3265995197" lon="34.6439069230"><ele>81.19</ele><time>2026-08-14T07:58:55Z</time></trkpt><trkpt lat="59.3266524933" lon="34.6432322636"><ele>78.84</ele><time>2026-08-14T07:59:07Z</time></trkpt><trkpt lat="59.3267692532" lon="34.6426439378"><ele>75.82</ele><time>2026-08-14T07:59:18Z</time></trkpt><trkpt lat="59.3267878611" lon="34.6425399184"><ele>75.28</ele><time>2026-08-14T07:59:20Z</time></trkpt><trkpt lat="59.3268101569" lon="34.6425021999"><ele>74.58</ele><time>2026-08-14T07:59:21Z</time></trkpt><trkpt lat="59.3268341292" lon="34.6424716897"><ele>74.44</ele><time>2026-08-14T07:59:22Z</time></trkpt><trkpt lat="59.3268552516" lon="34.6424306184"><ele>74.01</ele><time>2026-08-14T07:59:23Z</time></trkpt><trkpt lat="59.3268704228" lon="34.6423739567"><ele>73.53</ele><time>2026-08-14T07:59:24Z</time></trkpt><trkpt lat="59.3268942274" lon="34.6423240006"><ele>73.65</ele><time>2026-08-14T07:59:25Z</time></trkpt><trkpt lat="59.3269327842" lon="34.6422600467"><ele>73.64</ele><time>2026-08-14T07:59:26Z</time></trkpt><trkpt lat="59.3271160964" lon="34.6416792646"><ele>71.04</ele><time>2026-08-14T07:59:36Z</time></trkpt><trkpt lat="59.3273838982" lon="34.6412952058"><ele>74.18</ele><time>2026-08-14T07:59:47Z</time></trkpt><trkpt lat="59.3274579942" lon="34.6411496121"><ele>88.19</ele><time>2026-08-14T08:00:00Z</time></trkpt><trkpt lat="59.3274613470" lon="34.6410805453"><ele>91.01</ele><time>2026-08-14T08:00:04Z</time></trkpt><trkpt lat="59.3276533764" lon="34.6406928822"><ele>96.94</ele><time>2026-08-14T08:00:13Z</time></trkpt><trkpt lat="59.3278819509" lon="34.6402215678"><ele>101.69</ele><time>2026-08-14T08:00:22Z</time></trkpt><trkpt lat="59.3279583938" lon="34.6398672648"><ele>104.70</ele><time>2026-08-14T08:00:28Z</time></trkpt><trkpt lat="59.3280885648" lon="34.6394303162"><ele>106.20</ele><time>2026-08-14T08:00:37Z</time></trkpt><trkpt lat="59.3281664327" lon="34.6391895879"><ele>106.84</ele><time>2026-08-14T08:00:43Z</time></trkpt><trkpt lat="59.3282216694" lon="34.6390058566"><ele>107.50</ele><time>2026-08-14T08:00:47Z</time></trkpt><trkpt lat="59.3282819353" lon="34.6382418461"><ele>108.64</ele><time>2026-08-14T08:00:59Z</time></trkpt><trkpt lat="59.3283213302" lon="34.6373968665"><ele>111.71</ele><time>2026-08-14T08:01:09Z</time></trkpt><trkpt lat="59.3284223322" lon="34.6369761787"><ele>115.83</ele><time>2026-08-14T08:01:16Z</time></trkpt><trkpt lat="59.3284859508" lon="34.6362271719"><ele>122.02</ele><time>2026-08-14T08:01:27Z</time></trkpt><trkpt lat="59.3285128567" lon="34.6355120279"><ele>120.85</ele><time>2026-08-14T08:01:38Z</time></trkpt><trkpt lat="59.3286239170" lon="34.6345645376"><ele>122.95</ele><time>2026-08-14T08:01:49Z</time></trkpt><trkpt lat="59.3286312092" lon="34.6344782040"><ele>123.46</ele><time>2026-08-14T08:01:50Z</time></trkpt><trkpt lat="59.3286602944" lon="34.6343325265"><ele>122.92</ele><time>2026-08-14T08:01:53Z</time></trkpt><trkpt lat="59.3287247512" lon="34.6336009540"><ele>122.35</ele><time>2026-08-14T08:02:06Z</time></trkpt><trkpt lat="59.3287410121" lon="34.6334075835"><ele>123.20</ele><time>2026-08-14T08:02:16Z</time></trkpt><trkpt lat="59.3287229072" lon="34.6332311444"><ele>131.31</ele><time>2026-08-14T08:02:38Z</time></trkpt><trkpt lat="59.3287711870" lon="34.6331494208"><ele>133.56</ele><time>2026-08-14T08:02:49Z</time></trkpt><trkpt lat="59.3287778925" lon="34.6331308968"><ele>134.14</ele><time>2026-08-14T08:02:50Z</time></trkpt><trkpt lat="59.3287922256" lon="34.6329070162"><ele>135.45</ele><time>2026-08-14T08:02:56Z</time></trkpt><trkpt lat="59.3287961651" lon="34.6328396257"><ele>135.30</ele><time>2026-08-14T08:02:58Z</time></trkpt><trkpt lat="59.3288262561" lon="34.6326098777"><ele>133.77</ele><time>2026-08-14T08:03:04Z</time></trkpt><trkpt lat="59.3288193829" lon="34.6323251445"><ele>130.75</ele><time>2026-08-14T08:03:11Z</time></trkpt><trkpt lat="59.3288451154" lon="34.6320880204"><ele>129.12</ele><time>2026-08-14T08:03:16Z</time></trkpt><trkpt lat="59.3289058004" lon="34.6317825001"><ele>126.14</ele><time>2026-08-14T08:03:22Z</time></trkpt><trkpt lat="59.3288873602" lon="34.6314181387"><ele>124.01</ele><time>2026-08-14T08:03:28Z</time></trkpt><trkpt lat="59.3289585225" lon="34.6309698746"><ele>122.81</ele><time>2026-08-14T08:03:37Z</time></trkpt><trkpt lat="59.3289503083" lon="34.6307248715"><ele>122.85</ele><time>2026-08-14T08:03:41Z</time></trkpt><trkpt lat="59.3288933951" lon="34.6304822993"><ele>125.09</ele><time>2026-08-14T08:03:45Z</time></trkpt><trkpt lat="59.3288776372" lon="34.6298363060"><ele>127.24</ele><time>2026-08-14T08:03:55Z</time></trkpt><trkpt lat="59.3288870249" lon="34.6295048855"><ele>125.65</ele><time>2026-08-14T08:04:01Z</time></trkpt><trkpt lat="59.3289107457" lon="34.6293431986"><ele>126.34</ele><time>2026-08-14T08:04:05Z</time></trkpt><trkpt lat="59.3289361428" lon="34.6287790965"><ele>124.44</ele><time>2026-08-14T08:04:15Z</time></trkpt><trkpt lat="59.3289612047" lon="34.6283877455"><ele>124.56</ele><time>2026-08-14T08:04:21Z</time></trkpt><trkpt lat="59.3290762044" lon="34.6276830789"><ele>118.82</ele><time>2026-08-14T08:04:32Z</time></trkpt><trkpt lat="59.3291313574" lon="34.6270860359"><ele>113.68</ele><time>2026-08-14T08:04:41Z</time></trkpt><trkpt lat="59.3291613646" lon="34.6268405300"><ele>112.13</ele><time>2026-08-14T08:04:45Z</time></trkpt><trkpt lat="59.3293045275" lon="34.6260428242"><ele>107.59</ele><time>2026-08-14T08:04:57Z</time></trkpt><trkpt lat="59.3293206207" lon="34.6258527227"><ele>105.11</ele><time>2026-08-14T08:04:59Z</time></trkpt><trkpt lat="59.3295400590" lon="34.6251311246"><ele>101.21</ele><time>2026-08-14T08:05:11Z</time></trkpt><trkpt lat="59.3296856526" lon="34.6242286451"><ele>110.31</ele><time>2026-08-14T08:05:23Z</time></trkpt><trkpt lat="59.3298695516" lon="34.6238705702"><ele>111.55</ele><time>2026-08-14T08:05:30Z</time></trkpt><trkpt lat="59.3300441466" lon="34.6234824043"><ele>107.21</ele><time>2026-08-14T08:05:39Z</time></trkpt><trkpt lat="59.3301290553" lon="34.6233068034"><ele>111.83</ele><time>2026-08-14T08:05:50Z</time></trkpt><trkpt lat="59.3302782532" lon="34.6231845953"><ele>132.07</ele><time>2026-08-14T08:06:17Z</time></trkpt><trkpt lat="59.3303281255" lon="34.6231198031"><ele>137.66</ele><time>2026-08-14T08:06:33Z</time></trkpt><trkpt lat="59.3303581327" lon="34.6230336372"><ele>137.35</ele><time>2026-08-14T08:06:36Z</time></trkpt><trkpt lat="59.3304465618" lon="34.6227805875"><ele>136.23</ele><time>2026-08-14T08:06:42Z</time></trkpt><trkpt lat="59.3305943348" lon="34.6222300641"><ele>134.64</ele><time>2026-08-14T08:06:53Z</time></trkpt><trkpt lat="59.3307756353" lon="34.6217735857"><ele>131.67</ele><time>2026-08-14T08:07:03Z</time></trkpt><trkpt lat="59.3310529087" lon="34.6213000920"><ele>128.44</ele><time>2026-08-14T08:07:13Z</time></trkpt><trkpt lat="59.3312386516" lon="34.6207303740"><ele>122.55</ele><time>2026-08-14T08:07:23Z</time></trkpt><trkpt lat="59.3313647155" lon="34.6200620849"><ele>115.74</ele><time>2026-08-14T08:07:33Z</time></trkpt><trkpt lat="59.3316294160" lon="34.6197484341"><ele>112.70</ele><time>2026-08-14T08:07:42Z</time></trkpt><trkpt lat="59.3316528015" lon="34.6196984779"><ele>113.34</ele><time>2026-08-14T08:07:43Z</time></trkpt><trkpt lat="59.3316788692" lon="34.6196291596"><ele>111.61</ele><time>2026-08-14T08:07:45Z</time></trkpt><trkpt lat="59.3317022547" lon="34.6196087077"><ele>111.22</ele><time>2026-08-14T08:07:46Z</time></trkpt><trkpt lat="59.3317248020" lon="34.6195798740"><ele>110.72</ele><time>2026-08-14T08:07:47Z</time></trkpt><trkpt lat="59.3317492772" lon="34.6195503697"><ele>110.18</ele><time>2026-08-14T08:07:48Z</time></trkpt><trkpt lat="59.3317769375" lon="34.6195209492"><ele>109.57</ele><time>2026-08-14T08:07:49Z</time></trkpt><trkpt lat="59.3317999877" lon="34.6194966417"><ele>108.78</ele><time>2026-08-14T08:07:50Z</time></trkpt><trkpt lat="59.3318196014" lon="34.6194717474"><ele>108.02</ele><time>2026-08-14T08:07:51Z</time></trkpt><trkpt lat="59.3321568053" lon="34.6189520694"><ele>98.74</ele><time>2026-08-14T08:08:04Z</time></trkpt><trkpt lat="59.3324427959" lon="34.6184602194"><ele>91.31</ele><time>2026-08-14T08:08:15Z</time></trkpt><trkpt lat="59.3326975219" lon="34.6179730631"><ele>87.25</ele><time>2026-08-14T08:08:25Z</time></trkpt><trkpt lat="59.3329553492" lon="34.6173846535"><ele>87.86</ele><time>2026-08-14T08:08:35Z</time></trkpt><trkpt lat="59.3332151882" lon="34.6167342179"><ele>92.68</ele><time>2026-08-14T08:08:46Z</time></trkpt><trkpt lat="59.3332664855" lon="34.6163375862"><ele>96.44</ele><time>2026-08-14T08:08:53Z</time></trkpt><trkpt lat="59.3332741968" lon="34.6162997000"><ele>96.27</ele><time>2026-08-14T08:08:54Z</time></trkpt><trkpt lat="59.3332864344" lon="34.6162531804"><ele>96.22</ele><time>2026-08-14T08:08:55Z</time></trkpt><trkpt lat="59.3333028629" lon="34.6159002185"><ele>98.85</ele><time>2026-08-14T08:08:59Z</time></trkpt><trkpt lat="59.3333001807" lon="34.6158285532"><ele>99.61</ele><time>2026-08-14T08:09:00Z</time></trkpt><trkpt lat="59.3333024438" lon="34.6157568041"><ele>100.31</ele><time>2026-08-14T08:09:01Z</time></trkpt><trkpt lat="59.3332995102" lon="34.6156925149"><ele>100.46</ele><time>2026-08-14T08:09:02Z</time></trkpt><trkpt lat="59.3332827464" lon="34.6155599970"><ele>100.65</ele><time>2026-08-14T08:09:03Z</time></trkpt><trkpt lat="59.3332639709" lon="34.6154682990"><ele>99.46</ele><time>2026-08-14T08:09:04Z</time></trkpt><trkpt lat="59.3332731072" lon="34.6154072788"><ele>100.13</ele><time>2026-08-14T08:09:05Z</time></trkpt><trkpt lat="59.3332761247" lon="34.6153288241"><ele>100.05</ele><time>2026-08-14T08:09:06Z</time></trkpt><trkpt lat="59.3332850095" lon="34.6152528841"><ele>100.61</ele><time>2026-08-14T08:09:07Z</time></trkpt><trkpt lat="59.3332944810" lon="34.6151861642"><ele>101.26</ele><time>2026-08-14T08:09:08Z</time></trkpt><trkpt lat="59.3333051261" lon="34.6151253115"><ele>102.05</ele><time>2026-08-14T08:09:09Z</time></trkpt><trkpt lat="59.3333336245" lon="34.6143809985"><ele>108.76</ele><time>2026-08-14T08:09:21Z</time></trkpt><trkpt lat="59.3333202135" lon="34.6136588138"><ele>117.23</ele><time>2026-08-14T08:09:32Z</time></trkpt><trkpt lat="59.3332957383" lon="34.6133976337"><ele>120.45</ele><time>2026-08-14T08:09:37Z</time></trkpt><trkpt lat="59.3332996778" lon="34.6133599989"><ele>120.87</ele><time>2026-08-14T08:09:38Z</time></trkpt><trkpt lat="59.3333114963" lon="34.6127272490"><ele>123.69</ele><time>2026-08-14T08:09:48Z</time></trkpt><trkpt lat="59.3334153481" lon="34.6121708583"><ele>121.07</ele><time>2026-08-14T08:09:59Z</time></trkpt><trkpt lat="59.3333943933" lon="34.6119435411"><ele>118.12</ele><time>2026-08-14T08:10:05Z</time></trkpt><trkpt lat="59.3334384821" lon="34.6118254401"><ele>118.11</ele><time>2026-08-14T08:10:09Z</time></trkpt><trkpt lat="59.3335648812" lon="34.6115661878"><ele>119.38</ele><time>2026-08-14T08:10:16Z</time></trkpt><trkpt lat="59.3335798010" lon="34.6115169022"><ele>119.95</ele><time>2026-08-14T08:10:17Z</time></trkpt><trkpt lat="59.3335869256" lon="34.6114653535"><ele>119.91</ele><time>2026-08-14T08:10:18Z</time></trkpt><trkpt lat="59.3336003367" lon="34.6114133019"><ele>120.14</ele><time>2026-08-14T08:10:19Z</time></trkpt><trkpt lat="59.3336100597" lon="34.6113667823"><ele>119.96</ele><time>2026-08-14T08:10:20Z</time></trkpt><trkpt lat="59.3336300086" lon="34.6113245375"><ele>119.96</ele><time>2026-08-14T08:10:21Z</time></trkpt><trkpt lat="59.3337317649" lon="34.6109206136"><ele>118.38</ele><time>2026-08-14T08:10:28Z</time></trkpt><trkpt lat="59.3338594213" lon="34.6106879320"><ele>116.06</ele><time>2026-08-14T08:10:34Z</time></trkpt><trkpt lat="59.3338645343" lon="34.6106350422"><ele>114.76</ele><time>2026-08-14T08:10:35Z</time></trkpt><trkpt lat="59.3341445737" lon="34.6103219781"><ele>112.28</ele><time>2026-08-14T08:10:45Z</time></trkpt><trkpt lat="59.3342423905" lon="34.6101339720"><ele>111.53</ele><time>2026-08-14T08:10:49Z</time></trkpt><trkpt lat="59.3342680391" lon="34.6100778133"><ele>112.60</ele><time>2026-08-14T08:10:50Z</time></trkpt><trkpt lat="59.3342999741" lon="34.6099986043"><ele>115.31</ele><time>2026-08-14T08:10:51Z</time></trkpt><trkpt lat="59.3343181629" lon="34.6099312976"><ele>116.79</ele><time>2026-08-14T08:10:52Z</time></trkpt><trkpt lat="59.3343240302" lon="34.6098815091"><ele>116.44</ele><time>2026-08-14T08:10:53Z</time></trkpt><trkpt lat="59.3343302328" lon="34.6098510828"><ele>116.28</ele><time>2026-08-14T08:10:54Z</time></trkpt><trkpt lat="59.3343392853" lon="34.6098171361"><ele>115.60</ele><time>2026-08-14T08:10:55Z</time></trkpt><trkpt lat="59.3343512714" lon="34.6097824350"><ele>115.02</ele><time>2026-08-14T08:10:56Z</time></trkpt><trkpt lat="59.3343528640" lon="34.6097172238"><ele>114.24</ele><time>2026-08-14T08:10:57Z</time></trkpt><trkpt lat="59.3343657721" lon="34.6096785832"><ele>113.77</ele><time>2026-08-14T08:10:58Z</time></trkpt><trkpt lat="59.3343738187" lon="34.6096288785"><ele>113.50</ele><time>2026-08-14T08:10:59Z</time></trkpt><trkpt lat="59.3343806919" lon="34.6095847897"><ele>112.95</ele><time>2026-08-14T08:11:00Z</time></trkpt><trkpt lat="59.3345151376" lon="34.6090294048"><ele>111.46</ele><time>2026-08-14T08:11:12Z</time></trkpt><trkpt lat="59.3345426302" lon="34.6086206194"><ele>112.58</ele><time>2026-08-14T08:11:19Z</time></trkpt><trkpt lat="59.3345439713" lon="34.6084233932"><ele>113.44</ele><time>2026-08-14T08:11:23Z</time></trkpt><trkpt lat="59.3345374335" lon="34.6083700005"><ele>112.61</ele><time>2026-08-14T08:11:24Z</time></trkpt><trkpt lat="59.3346009683" lon="34.6077152062"><ele>112.97</ele><time>2026-08-14T08:11:34Z</time></trkpt><trkpt lat="59.3349261861" lon="34.6071960311"><ele>117.52</ele><time>2026-08-14T08:11:44Z</time></trkpt><trkpt lat="59.3349852785" lon="34.6069653612"><ele>115.90</ele><time>2026-08-14T08:11:53Z</time></trkpt><trkpt lat="59.3350660801" lon="34.6069971286"><ele>124.46</ele><time>2026-08-14T08:12:10Z</time></trkpt><trkpt lat="59.3350458797" lon="34.6068565641"><ele>127.55</ele><time>2026-08-14T08:12:30Z</time></trkpt><trkpt lat="59.3350721151" lon="34.6067958791"><ele>139.33</ele><time>2026-08-14T08:12:47Z</time></trkpt><trkpt lat="59.3350405153" lon="34.6068230364"><ele>143.61</ele><time>2026-08-14T08:13:12Z</time></trkpt><trkpt lat="59.3350633979" lon="34.6068294067"><ele>149.34</ele><time>2026-08-14T08:13:33Z</time></trkpt><trkpt lat="59.3350659963" lon="34.6068102121"><ele>150.48</ele><time>2026-08-14T08:13:58Z</time></trkpt><trkpt lat="59.3350755516" lon="34.6068214439"><ele>153.09</ele><time>2026-08-14T08:14:30Z</time></trkpt><trkpt lat="59.3350519985" lon="34.6067927778"><ele>155.26</ele><time>2026-08-14T08:14:53Z</time></trkpt><trkpt lat="59.3350552674" lon="34.6067844797"><ele>156.94</ele><time>2026-08-14T08:15:21Z</time></trkpt><trkpt lat="59.3350638170" lon="34.6067947056"><ele>158.81</ele><time>2026-08-14T08:15:36Z</time></trkpt><trkpt lat="59.3350734562" lon="34.6068211924"><ele>161.09</ele><time>2026-08-14T08:16:01Z</time></trkpt><trkpt lat="59.3350788206" lon="34.6068220306"><ele>163.70</ele><time>2026-08-14T08:16:26Z</time></trkpt><trkpt lat="59.3350693490" lon="34.6068257187"><ele>164.85</ele><time>2026-08-14T08:16:56Z</time></trkpt><trkpt lat="59.3350628112" lon="34.6068451647"><ele>165.43</ele><time>2026-08-14T08:17:18Z</time></trkpt><trkpt lat="59.3350723665" lon="34.6068666223"><ele>165.66</ele><time>2026-08-14T08:17:46Z</time></trkpt><trkpt lat="59.3350843526" lon="34.6068566479"><ele>165.98</ele><time>2026-08-14T08:18:12Z</time></trkpt><trkpt lat="59.3351203948" lon="34.6068132296"><ele>166.34</ele><time>2026-08-14T08:18:37Z</time></trkpt><trkpt lat="59.3352792319" lon="34.6064217947"><ele>164.56</ele><time>2026-08-14T08:18:46Z</time></trkpt><trkpt lat="59.3353782222" lon="34.6061751153"><ele>162.99</ele><time>2026-08-14T08:18:54Z</time></trkpt><trkpt lat="59.3353639729" lon="34.6061974112"><ele>163.07</ele><time>2026-08-14T08:18:57Z</time></trkpt><trkpt lat="59.3353669904" lon="34.6062165219"><ele>163.06</ele><time>2026-08-14T08:19:03Z</time></trkpt><trkpt lat="59.3355321977" lon="34.6057603788"><ele>163.70</ele><time>2026-08-14T08:19:12Z</time></trkpt><trkpt lat="59.3356054556" lon="34.6055836044"><ele>164.14</ele><time>2026-08-14T08:19:16Z</time></trkpt><trkpt lat="59.3356484547" lon="34.6054962650"><ele>164.02</ele><time>2026-08-14T08:19:18Z</time></trkpt><trkpt lat="59.3356626201" lon="34.6054363344"><ele>163.86</ele><time>2026-08-14T08:19:19Z</time></trkpt><trkpt lat="59.3356758635" lon="34.6053796727"><ele>163.56</ele><time>2026-08-14T08:19:20Z</time></trkpt><trkpt lat="59.3357010931" lon="34.6053306386"><ele>163.58</ele><time>2026-08-14T08:19:21Z</time></trkpt><trkpt lat="59.3357233889" lon="34.6052775811"><ele>163.46</ele><time>2026-08-14T08:19:22Z</time></trkpt><trkpt lat="59.3357395660" lon="34.6052296367"><ele>163.31</ele><time>2026-08-14T08:19:23Z</time></trkpt><trkpt lat="59.3357562460" lon="34.6051762439"><ele>163.37</ele><time>2026-08-14T08:19:24Z</time></trkpt><trkpt lat="59.3357794639" lon="34.6051259525"><ele>163.29</ele><time>2026-08-14T08:19:25Z</time></trkpt><trkpt lat="59.3359317631" lon="34.6048081946"><ele>161.06</ele><time>2026-08-14T08:19:33Z</time></trkpt><trkpt lat="59.3359383009" lon="34.6047600824"><ele>160.64</ele><time>2026-08-14T08:19:34Z</time></trkpt><trkpt lat="59.3359579146" lon="34.6047146525"><ele>159.41</ele><time>2026-08-14T08:19:35Z</time></trkpt><trkpt lat="59.3361258041" lon="34.6041642129"><ele>153.19</ele><time>2026-08-14T08:19:45Z</time></trkpt><trkpt lat="59.3362145685" lon="34.6038174536"><ele>148.24</ele><time>2026-08-14T08:19:52Z</time></trkpt><trkpt lat="59.3363089487" lon="34.6035290323"><ele>141.89</ele><time>2026-08-14T08:20:01Z</time></trkpt><trkpt lat="59.3365232740" lon="34.6032173093"><ele>135.49</ele><time>2026-08-14T08:20:13Z</time></trkpt><trkpt lat="59.3366859667" lon="34.6028313227"><ele>131.42</ele><time>2026-08-14T08:20:23Z</time></trkpt><trkpt lat="59.3369036447" lon="34.6027682908"><ele>123.95</ele><time>2026-08-14T08:20:34Z</time></trkpt><trkpt lat="59.3370385095" lon="34.6026516147"><ele>123.65</ele><time>2026-08-14T08:20:39Z</time></trkpt><trkpt lat="59.3373498134" lon="34.6026354376"><ele>125.10</ele><time>2026-08-14T08:20:51Z</time></trkpt><trkpt lat="59.3375925533" lon="34.6025657840"><ele>126.90</ele><time>2026-08-14T08:21:00Z</time></trkpt><trkpt lat="59.3378823157" lon="34.6022437513"><ele>123.28</ele><time>2026-08-14T08:21:09Z</time></trkpt><trkpt lat="59.3381906860" lon="34.6019492950"><ele>120.80</ele><time>2026-08-14T08:21:18Z</time></trkpt><trkpt lat="59.3385471683" lon="34.6015136037"><ele>116.48</ele><time>2026-08-14T08:21:29Z</time></trkpt><trkpt lat="59.3389825244" lon="34.6009557880"><ele>116.53</ele><time>2026-08-14T08:21:41Z</time></trkpt><trkpt lat="59.3391332310" lon="34.6007594839"><ele>115.95</ele><time>2026-08-14T08:21:45Z</time></trkpt><trkpt lat="59.3391660042" lon="34.6006951947"><ele>115.82</ele><time>2026-08-14T08:21:46Z</time></trkpt><trkpt lat="59.3392063212" lon="34.6006328333"><ele>116.38</ele><time>2026-08-14T08:21:47Z</time></trkpt><trkpt lat="59.3392465543" lon="34.6005685441"><ele>116.41</ele><time>2026-08-14T08:21:48Z</time></trkpt><trkpt lat="59.3392845243" lon="34.6005109604"><ele>116.57</ele><time>2026-08-14T08:21:49Z</time></trkpt><trkpt lat="59.3393146154" lon="34.6004641894"><ele>116.07</ele><time>2026-08-14T08:21:50Z</time></trkpt><trkpt lat="59.3397033680" lon="34.6000318509"><ele>117.55</ele><time>2026-08-14T08:22:01Z</time></trkpt><trkpt lat="59.3400440924" lon="34.5997159369"><ele>116.52</ele><time>2026-08-14T08:22:14Z</time></trkpt><trkpt lat="59.3403431587" lon="34.5994541701"><ele>121.16</ele><time>2026-08-14T08:22:26Z</time></trkpt><trkpt lat="59.3404230382" lon="34.5993959997"><ele>129.34</ele><time>2026-08-14T08:22:35Z</time></trkpt><trkpt lat="59.3404424842" lon="34.5993778948"><ele>129.63</ele><time>2026-08-14T08:22:36Z</time></trkpt><trkpt lat="59.3404641096" lon="34.5993627235"><ele>130.16</ele><time>2026-08-14T08:22:37Z</time></trkpt><trkpt lat="59.3404827174" lon="34.5993505698"><ele>130.64</ele><time>2026-08-14T08:22:38Z</time></trkpt><trkpt lat="59.3405118026" lon="34.5993369911"><ele>131.34</ele><time>2026-08-14T08:22:39Z</time></trkpt><trkpt lat="59.3408412952" lon="34.5990639925"><ele>134.50</ele><time>2026-08-14T08:22:51Z</time></trkpt><trkpt lat="59.3408686202" lon="34.5990205742"><ele>134.48</ele><time>2026-08-14T08:22:53Z</time></trkpt><trkpt lat="59.3408921733" lon="34.5990178920"><ele>134.81</ele><time>2026-08-14T08:22:54Z</time></trkpt><trkpt lat="59.3409261201" lon="34.5990158804"><ele>135.28</ele><time>2026-08-14T08:22:55Z</time></trkpt><trkpt lat="59.3409562949" lon="34.5990095939"><ele>135.43</ele><time>2026-08-14T08:22:56Z</time></trkpt><trkpt lat="59.3409886491" lon="34.5989982784"><ele>135.50</ele><time>2026-08-14T08:22:57Z</time></trkpt><trkpt lat="59.3413319718" lon="34.5989095140"><ele>136.16</ele><time>2026-08-14T08:23:07Z</time></trkpt><trkpt lat="59.3414463010" lon="34.5988471527"><ele>133.41</ele><time>2026-08-14T08:23:12Z</time></trkpt><trkpt lat="59.3415632285" lon="34.5986632537"><ele>129.22</ele><time>2026-08-14T08:23:20Z</time></trkpt><trkpt lat="59.3415806629" lon="34.5986407064"><ele>128.81</ele><time>2026-08-14T08:23:21Z</time></trkpt><trkpt lat="59.3417519890" lon="34.5985263772"><ele>133.36</ele><time>2026-08-14T08:23:38Z</time></trkpt><trkpt lat="59.3418280967" lon="34.5984255429"><ele>133.19</ele><time>2026-08-14T08:23:42Z</time></trkpt><trkpt lat="59.3419756182" lon="34.5982222818"><ele>134.77</ele><time>2026-08-14T08:23:49Z</time></trkpt><trkpt lat="59.3420065474" lon="34.5981818810"><ele>135.91</ele><time>2026-08-14T08:23:50Z</time></trkpt><trkpt lat="59.3420318607" lon="34.5981545560"><ele>136.27</ele><time>2026-08-14T08:23:51Z</time></trkpt><trkpt lat="59.3420544080" lon="34.5981295779"><ele>136.49</ele><time>2026-08-14T08:23:52Z</time></trkpt><trkpt lat="59.3420746084" lon="34.5980934519"><ele>136.01</ele><time>2026-08-14T08:23:53Z</time></trkpt><trkpt lat="59.3421034422" lon="34.5980445854"><ele>136.76</ele><time>2026-08-14T08:23:54Z</time></trkpt><trkpt lat="59.3421315216" lon="34.5980007481"><ele>137.42</ele><time>2026-08-14T08:23:55Z</time></trkpt><trkpt lat="59.3421575893" lon="34.5979611017"><ele>137.26</ele><time>2026-08-14T08:23:56Z</time></trkpt><trkpt lat="59.3421770353" lon="34.5979192760"><ele>137.40</ele><time>2026-08-14T08:23:57Z</time></trkpt><trkpt lat="59.3421927933" lon="34.5978835691"><ele>137.35</ele><time>2026-08-14T08:23:58Z</time></trkpt><trkpt lat="59.3424414005" lon="34.5974757057"><ele>132.66</ele><time>2026-08-14T08:24:08Z</time></trkpt><trkpt lat="59.3427200150" lon="34.5969420299"><ele>127.47</ele><time>2026-08-14T08:24:19Z</time></trkpt><trkpt lat="59.3427440710" lon="34.5968812611"><ele>126.88</ele><time>2026-08-14T08:24:20Z</time></trkpt><trkpt lat="59.3427689653" lon="34.5968140382"><ele>126.75</ele><time>2026-08-14T08:24:21Z</time></trkpt><trkpt lat="59.3429682031" lon="34.5960558951"><ele>131.82</ele><time>2026-08-14T08:24:31Z</time></trkpt><trkpt lat="59.3431494199" lon="34.5953031164"><ele>130.62</ele><time>2026-08-14T08:24:41Z</time></trkpt><trkpt lat="59.3432018068" lon="34.5948245097"><ele>131.23</ele><time>2026-08-14T08:24:47Z</time></trkpt><trkpt lat="59.3433580454" lon="34.5942234434"><ele>133.04</ele><time>2026-08-14T08:24:57Z</time></trkpt><trkpt lat="59.3434622325" lon="34.5935252309"><ele>137.07</ele><time>2026-08-14T08:25:07Z</time></trkpt><trkpt lat="59.3434188142" lon="34.5931294374"><ele>144.40</ele><time>2026-08-14T08:25:16Z</time></trkpt><trkpt lat="59.3434231728" lon="34.5930089056"><ele>146.25</ele><time>2026-08-14T08:25:21Z</time></trkpt><trkpt lat="59.3434308004" lon="34.5929148607"><ele>147.77</ele><time>2026-08-14T08:25:23Z</time></trkpt><trkpt lat="59.3434271123" lon="34.5928617194"><ele>148.47</ele><time>2026-08-14T08:25:24Z</time></trkpt><trkpt lat="59.3434176408" lon="34.5928017050"><ele>148.91</ele><time>2026-08-14T08:25:25Z</time></trkpt><trkpt lat="59.3434075825" lon="34.5927324705"><ele>149.72</ele><time>2026-08-14T08:25:26Z</time></trkpt><trkpt lat="59.3434020504" lon="34.5926696062"><ele>150.17</ele><time>2026-08-14T08:25:27Z</time></trkpt><trkpt lat="59.3433021381" lon="34.5918211062"><ele>157.53</ele><time>2026-08-14T08:25:39Z</time></trkpt><trkpt lat="59.3431600649" lon="34.5913977362"><ele>157.42</ele><time>2026-08-14T08:25:49Z</time></trkpt><trkpt lat="59.3430003058" lon="34.5909275953"><ele>155.27</ele><time>2026-08-14T08:25:59Z</time></trkpt><trkpt lat="59.3429516070" lon="34.5907738712"><ele>154.42</ele><time>2026-08-14T08:26:09Z</time></trkpt><trkpt lat="59.3429392017" lon="34.5906859450"><ele>153.09</ele><time>2026-08-14T08:26:24Z</time></trkpt><trkpt lat="59.3429310713" lon="34.5906883758"><ele>153.25</ele><time>2026-08-14T08:26:30Z</time></trkpt><trkpt lat="59.3430759106" lon="34.5910198800"><ele>153.68</ele><time>2026-08-14T08:26:38Z</time></trkpt><trkpt lat="59.3432732206" lon="34.5915824734"><ele>153.15</ele><time>2026-08-14T08:26:48Z</time></trkpt><trkpt lat="59.3432979472" lon="34.5917382929"><ele>153.00</ele><time>2026-08-14T08:26:50Z</time></trkpt><trkpt lat="59.3434499949" lon="34.5924827736"><ele>152.98</ele><time>2026-08-14T08:27:02Z</time></trkpt><trkpt lat="59.3434589636" lon="34.5925162174"><ele>153.11</ele><time>2026-08-14T08:27:03Z</time></trkpt><trkpt lat="59.3434627354" lon="34.5925519243"><ele>152.93</ele><time>2026-08-14T08:27:04Z</time></trkpt><trkpt lat="59.3434961792" lon="34.5927056484"><ele>154.20</ele><time>2026-08-14T08:27:10Z</time></trkpt><trkpt lat="59.3435057346" lon="34.5927108452"><ele>154.56</ele><time>2026-08-14T08:27:11Z</time></trkpt><trkpt lat="59.3435231689" lon="34.5927057322"><ele>154.46</ele><time>2026-08-14T08:27:12Z</time></trkpt><trkpt lat="59.3435405195" lon="34.5926959254"><ele>154.23</ele><time>2026-08-14T08:27:13Z</time></trkpt><trkpt lat="59.3435533438" lon="34.5926737972"><ele>153.93</ele><time>2026-08-14T08:27:14Z</time></trkpt><trkpt lat="59.3436572794" lon="34.5925084222"><ele>153.31</ele><time>2026-08-14T08:27:21Z</time></trkpt><trkpt lat="59.3438414298" lon="34.5923788380"><ele>150.64</ele><time>2026-08-14T08:27:33Z</time></trkpt><trkpt lat="59.3439320382" lon="34.5924174786"><ele>155.77</ele><time>2026-08-14T08:27:47Z</time></trkpt><trkpt lat="59.3441406637" lon="34.5926453825"><ele>156.20</ele><time>2026-08-14T08:28:00Z</time></trkpt><trkpt lat="59.3443648797" lon="34.5928550139"><ele>156.14</ele><time>2026-08-14T08:28:12Z</time></trkpt><trkpt lat="59.3446194381" lon="34.5931327902"><ele>152.69</ele><time>2026-08-14T08:28:24Z</time></trkpt><trkpt lat="59.3448848929" lon="34.5933643822"><ele>148.29</ele><time>2026-08-14T08:28:37Z</time></trkpt><trkpt lat="59.3451573886" lon="34.5936548989"><ele>146.15</ele><time>2026-08-14T08:28:49Z</time></trkpt><trkpt lat="59.3454082590" lon="34.5939569827"><ele>149.61</ele><time>2026-08-14T08:29:00Z</time></trkpt><trkpt lat="59.3456766475" lon="34.5941227768"><ele>148.92</ele><time>2026-08-14T08:29:12Z</time></trkpt><trkpt lat="59.3459321279" lon="34.5944097731"><ele>146.71</ele><time>2026-08-14T08:29:23Z</time></trkpt><trkpt lat="59.3461079802" lon="34.5946391858"><ele>143.09</ele><time>2026-08-14T08:29:36Z</time></trkpt><trkpt lat="59.3462765403" lon="34.5948274434"><ele>141.98</ele><time>2026-08-14T08:29:50Z</time></trkpt><trkpt lat="59.3463142589" lon="34.5948779862"><ele>142.32</ele><time>2026-08-14T08:29:58Z</time></trkpt><trkpt lat="59.3463395722" lon="34.5948998630"><ele>142.61</ele><time>2026-08-14T08:29:59Z</time></trkpt><trkpt lat="59.3463560846" lon="34.5949276071"><ele>142.60</ele><time>2026-08-14T08:30:00Z</time></trkpt><trkpt lat="59.3463729322" lon="34.5949559379"><ele>142.65</ele><time>2026-08-14T08:30:01Z</time></trkpt><trkpt lat="59.3463879358" lon="34.5949923154"><ele>142.58</ele><time>2026-08-14T08:30:02Z</time></trkpt><trkpt lat="59.3464049511" lon="34.5950211491"><ele>142.62</ele><time>2026-08-14T08:30:03Z</time></trkpt><trkpt lat="59.3466208689" lon="34.5953516476"><ele>142.67</ele><time>2026-08-14T08:30:16Z</time></trkpt><trkpt lat="59.3467654567" lon="34.5957566611"><ele>139.62</ele><time>2026-08-14T08:30:29Z</time></trkpt><trkpt lat="59.3469102960" lon="34.5961977169"><ele>134.10</ele><time>2026-08-14T08:30:41Z</time></trkpt><trkpt lat="59.3469353579" lon="34.5963071845"><ele>133.58</ele><time>2026-08-14T08:30:45Z</time></trkpt><trkpt lat="59.3469486013" lon="34.5963304862"><ele>133.72</ele><time>2026-08-14T08:30:46Z</time></trkpt><trkpt lat="59.3469607551" lon="34.5963537041"><ele>133.64</ele><time>2026-08-14T08:30:47Z</time></trkpt><trkpt lat="59.3469629344" lon="34.5963990502"><ele>133.73</ele><time>2026-08-14T08:30:48Z</time></trkpt><trkpt lat="59.3469708972" lon="34.5964264590"><ele>133.73</ele><time>2026-08-14T08:30:49Z</time></trkpt><trkpt lat="59.3469895050" lon="34.5964561310"><ele>133.84</ele><time>2026-08-14T08:30:50Z</time></trkpt><trkpt lat="59.3469970487" lon="34.5964963641"><ele>133.69</ele><time>2026-08-14T08:30:51Z</time></trkpt><trkpt lat="59.3470123876" lon="34.5965313166"><ele>133.74</ele><time>2026-08-14T08:30:52Z</time></trkpt><trkpt lat="59.3470652774" lon="34.5966095198"><ele>134.00</ele><time>2026-08-14T08:30:55Z</time></trkpt><trkpt lat="59.3471837975" lon="34.5968851168"><ele>134.41</ele><time>2026-08-14T08:31:05Z</time></trkpt><trkpt lat="59.3472309038" lon="34.5970374998"><ele>141.82</ele><time>2026-08-14T08:31:31Z</time></trkpt><trkpt lat="59.3473058380" lon="34.5970590413"><ele>151.98</ele><time>2026-08-14T08:32:00Z</time></trkpt><trkpt lat="59.3473277148" lon="34.5970923174"><ele>159.68</ele><time>2026-08-14T08:32:24Z</time></trkpt><trkpt lat="59.3474652618" lon="34.5971796568"><ele>161.60</ele><time>2026-08-14T08:32:44Z</time></trkpt><trkpt lat="59.3475006334" lon="34.5973900426"><ele>163.17</ele><time>2026-08-14T08:32:58Z</time></trkpt><trkpt lat="59.3475262821" lon="34.5975269191"><ele>164.44</ele><time>2026-08-14T08:33:14Z</time></trkpt><trkpt lat="59.3475623243" lon="34.5975914598"><ele>165.10</ele><time>2026-08-14T08:33:25Z</time></trkpt><trkpt lat="59.3477162160" lon="34.5978159271"><ele>165.78</ele><time>2026-08-14T08:33:42Z</time></trkpt><trkpt lat="59.3478991929" lon="34.5979611017"><ele>164.41</ele><time>2026-08-14T08:33:55Z</time></trkpt><trkpt lat="59.3481375743" lon="34.5980160031"><ele>163.91</ele><time>2026-08-14T08:34:09Z</time></trkpt><trkpt lat="59.3483202159" lon="34.5980569907"><ele>164.01</ele><time>2026-08-14T08:34:20Z</time></trkpt><trkpt lat="59.3485489581" lon="34.5981420670"><ele>159.04</ele><time>2026-08-14T08:34:34Z</time></trkpt><trkpt lat="59.3487554882" lon="34.5982480980"><ele>155.11</ele><time>2026-08-14T08:34:45Z</time></trkpt><trkpt lat="59.3488045223" lon="34.5982897561"><ele>154.06</ele><time>2026-08-14T08:34:48Z</time></trkpt><trkpt lat="59.3489037640" lon="34.5983547159"><ele>150.40</ele><time>2026-08-14T08:34:55Z</time></trkpt><trkpt lat="59.3491105456" lon="34.5985581446"><ele>146.92</ele><time>2026-08-14T08:35:08Z</time></trkpt><trkpt lat="59.3491822109" lon="34.5986452326"><ele>145.97</ele><time>2026-08-14T08:35:13Z</time></trkpt><trkpt lat="59.3492265511" lon="34.5987009723"><ele>144.81</ele><time>2026-08-14T08:35:16Z</time></trkpt><trkpt lat="59.3492952827" lon="34.5987542812"><ele>143.63</ele><time>2026-08-14T08:35:20Z</time></trkpt><trkpt lat="59.3494741526" lon="34.5990585443"><ele>139.74</ele><time>2026-08-14T08:35:31Z</time></trkpt><trkpt lat="59.3495773338" lon="34.5992995240"><ele>137.60</ele><time>2026-08-14T08:35:42Z</time></trkpt><trkpt lat="59.3495867215" lon="34.5993705187"><ele>137.11</ele><time>2026-08-14T08:35:47Z</time></trkpt><trkpt lat="59.3496132083" lon="34.5994997676"><ele>136.49</ele><time>2026-08-14T08:35:51Z</time></trkpt><trkpt lat="59.3496545311" lon="34.5996654779"><ele>136.36</ele><time>2026-08-14T08:35:56Z</time></trkpt><trkpt lat="59.3496587221" lon="34.5997953974"><ele>135.66</ele><time>2026-08-14T08:36:00Z</time></trkpt><trkpt lat="59.3496778328" lon="34.6000492014"><ele>138.25</ele><time>2026-08-14T08:36:15Z</time></trkpt><trkpt lat="59.3496672716" lon="34.6001078747"><ele>149.87</ele><time>2026-08-14T08:36:38Z</time></trkpt><trkpt lat="59.3497354165" lon="34.6001641173"><ele>153.20</ele><time>2026-08-14T08:37:01Z</time></trkpt><trkpt lat="59.3497164734" lon="34.6002273168"><ele>154.51</ele><time>2026-08-14T08:37:31Z</time></trkpt><trkpt lat="59.3498086743" lon="34.6002247185"><ele>157.63</ele><time>2026-08-14T08:37:58Z</time></trkpt><trkpt lat="59.3497795891" lon="34.6001795400"><ele>159.24</ele><time>2026-08-14T08:38:18Z</time></trkpt><trkpt lat="59.3497732189" lon="34.6001067013"><ele>159.81</ele><time>2026-08-14T08:38:26Z</time></trkpt><trkpt lat="59.3497564550" lon="34.6000872552"><ele>159.47</ele><time>2026-08-14T08:38:35Z</time></trkpt><trkpt lat="59.3497802597" lon="34.6001765225"><ele>159.06</ele><time>2026-08-14T08:38:40Z</time></trkpt><trkpt lat="59.3499598000" lon="34.6004080307"><ele>153.53</ele><time>2026-08-14T08:38:59Z</time></trkpt><trkpt lat="59.3500398472" lon="34.6004153229"><ele>149.17</ele><time>2026-08-14T08:39:13Z</time></trkpt><trkpt lat="59.3502416834" lon="34.6005630121"><ele>147.15</ele><time>2026-08-14T08:39:30Z</time></trkpt><trkpt lat="59.3503144383" lon="34.6007546224"><ele>147.45</ele><time>2026-08-14T08:39:48Z</time></trkpt><trkpt lat="59.3503551744" lon="34.6008423809"><ele>149.77</ele><time>2026-08-14T08:40:10Z</time></trkpt><trkpt lat="59.3504274264" lon="34.6008490026"><ele>153.82</ele><time>2026-08-14T08:40:32Z</time></trkpt><trkpt lat="59.3504204694" lon="34.6008047462"><ele>157.86</ele><time>2026-08-14T08:40:56Z</time></trkpt><trkpt lat="59.3506053742" lon="34.6010784153"><ele>158.89</ele><time>2026-08-14T08:41:12Z</time></trkpt><trkpt lat="59.3507290911" lon="34.6012887172"><ele>155.83</ele><time>2026-08-14T08:41:29Z</time></trkpt><trkpt lat="59.3507643789" lon="34.6013527550"><ele>156.34</ele><time>2026-08-14T08:41:33Z</time></trkpt><trkpt lat="59.3508697394" lon="34.6015373245"><ele>155.23</ele><time>2026-08-14T08:41:50Z</time></trkpt><trkpt lat="59.3508770317" lon="34.6014935710"><ele>157.44</ele><time>2026-08-14T08:42:11Z</time></trkpt><trkpt lat="59.3508824799" lon="34.6014864463"><ele>159.91</ele><time>2026-08-14T08:42:33Z</time></trkpt><trkpt lat="59.3508742657" lon="34.6015365701"><ele>163.01</ele><time>2026-08-14T08:42:52Z</time></trkpt><trkpt lat="59.3508954719" lon="34.6015195549"><ele>164.36</ele><time>2026-08-14T08:43:08Z</time></trkpt><trkpt lat="59.3508892693" lon="34.6014985163"><ele>165.56</ele><time>2026-08-14T08:43:27Z</time></trkpt><trkpt lat="59.3509067874" lon="34.6015265957"><ele>165.70</ele><time>2026-08-14T08:43:29Z</time></trkpt><trkpt lat="59.3509857450" lon="34.6016895398"><ele>166.09</ele><time>2026-08-14T08:43:36Z</time></trkpt><trkpt lat="59.3511456717" lon="34.6019522287"><ele>160.55</ele><time>2026-08-14T08:43:50Z</time></trkpt><trkpt lat="59.3513051793" lon="34.6021517180"><ele>153.28</ele><time>2026-08-14T08:44:07Z</time></trkpt><trkpt lat="59.3513330910" lon="34.6022180188"><ele>152.73</ele><time>2026-08-14T08:44:12Z</time></trkpt><trkpt lat="59.3515169900" lon="34.6026228648"><ele>149.68</ele><time>2026-08-14T08:44:25Z</time></trkpt><trkpt lat="59.3516808562" lon="34.6028339211"><ele>146.95</ele><time>2026-08-14T08:44:37Z</time></trkpt><trkpt lat="59.3518138770" lon="34.6031051595"><ele>143.91</ele><time>2026-08-14T08:44:51Z</time></trkpt><trkpt lat="59.3518483266" lon="34.6032930817"><ele>144.67</ele><time>2026-08-14T08:45:09Z</time></trkpt><trkpt lat="59.3518615700" lon="34.6033185627"><ele>146.66</ele><time>2026-08-14T08:45:30Z</time></trkpt><trkpt lat="59.3518456444" lon="34.6034391783"><ele>150.59</ele><time>2026-08-14T08:45:53Z</time></trkpt><trkpt lat="59.3518750649" lon="34.6035001148"><ele>152.17</ele><time>2026-08-14T08:46:08Z</time></trkpt><trkpt lat="59.3518783338" lon="34.6035229135"><ele>155.50</ele><time>2026-08-14T08:46:30Z</time></trkpt><trkpt lat="59.3518559542" lon="34.6034666710"><ele>157.65</ele><time>2026-08-14T08:46:50Z</time></trkpt><trkpt lat="59.3518250249" lon="34.6034113504"><ele>159.62</ele><time>2026-08-14T08:47:07Z</time></trkpt><trkpt lat="59.3518599775" lon="34.6034416091"><ele>160.59</ele><time>2026-08-14T08:47:27Z</time></trkpt><trkpt lat="59.3519142922" lon="34.6035866998"><ele>160.37</ele><time>2026-08-14T08:47:33Z</time></trkpt><trkpt lat="59.3519978598" lon="34.6039430983"><ele>158.54</ele><time>2026-08-14T08:47:46Z</time></trkpt><trkpt lat="59.3520873785" lon="34.6041388996"><ele>156.17</ele><time>2026-08-14T08:47:54Z</time></trkpt><trkpt lat="59.3521938287" lon="34.6045061108"><ele>151.78</ele><time>2026-08-14T08:48:07Z</time></trkpt><trkpt lat="59.3523791526" lon="34.6049261279"><ele>146.99</ele><time>2026-08-14T08:48:22Z</time></trkpt><trkpt lat="59.3525187951" lon="34.6052977815"><ele>141.84</ele><time>2026-08-14T08:48:32Z</time></trkpt><trkpt lat="59.3526423443" lon="34.6056787390"><ele>141.99</ele><time>2026-08-14T08:48:47Z</time></trkpt><trkpt lat="59.3527060468" lon="34.6058708522"><ele>141.10</ele><time>2026-08-14T08:48:54Z</time></trkpt><trkpt lat="59.3527019396" lon="34.6059008595"><ele>141.02</ele><time>2026-08-14T08:48:55Z</time></trkpt><trkpt lat="59.3527069688" lon="34.6059425175"><ele>141.04</ele><time>2026-08-14T08:48:56Z</time></trkpt><trkpt lat="59.3526990060" lon="34.6061726008"><ele>141.75</ele><time>2026-08-14T08:49:09Z</time></trkpt><trkpt lat="59.3527451903" lon="34.6066341083"><ele>141.87</ele><time>2026-08-14T08:49:27Z</time></trkpt><trkpt lat="59.3527497165" lon="34.6066715755"><ele>141.84</ele><time>2026-08-14T08:49:28Z</time></trkpt><trkpt lat="59.3527389877" lon="34.6068374533"><ele>140.87</ele><time>2026-08-14T08:49:32Z</time></trkpt><trkpt lat="59.3527353834" lon="34.6068769321"><ele>140.88</ele><time>2026-08-14T08:49:33Z</time></trkpt><trkpt lat="59.3527457770" lon="34.6069149021"><ele>141.09</ele><time>2026-08-14T08:49:34Z</time></trkpt><trkpt lat="59.3527540751" lon="34.6069485135"><ele>141.09</ele><time>2026-08-14T08:49:35Z</time></trkpt><trkpt lat="59.3527560867" lon="34.6069775149"><ele>141.09</ele><time>2026-08-14T08:49:36Z</time></trkpt><trkpt lat="59.3528014328" lon="34.6072534472"><ele>138.96</ele><time>2026-08-14T08:49:45Z</time></trkpt><trkpt lat="59.3528083060" lon="34.6072817780"><ele>138.83</ele><time>2026-08-14T08:49:46Z</time></trkpt><trkpt lat="59.3528163526" lon="34.6073185746"><ele>138.67</ele><time>2026-08-14T08:49:47Z</time></trkpt><trkpt lat="59.3528586812" lon="34.6077100933"><ele>132.24</ele><time>2026-08-14T08:50:01Z</time></trkpt><trkpt lat="59.3528621178" lon="34.6079167910"><ele>130.02</ele><time>2026-08-14T08:50:08Z</time></trkpt><trkpt lat="59.3528606091" lon="34.6080045495"><ele>129.28</ele><time>2026-08-14T08:50:11Z</time></trkpt><trkpt lat="59.3528603576" lon="34.6083087288"><ele>126.67</ele><time>2026-08-14T08:50:18Z</time></trkpt><trkpt lat="59.3528670631" lon="34.6083415020"><ele>126.51</ele><time>2026-08-14T08:50:19Z</time></trkpt><trkpt lat="59.3530086335" lon="34.6087625250"><ele>127.89</ele><time>2026-08-14T08:50:36Z</time></trkpt><trkpt lat="59.3530137464" lon="34.6088033449"><ele>128.37</ele><time>2026-08-14T08:50:37Z</time></trkpt><trkpt lat="59.3531895149" lon="34.6090571489"><ele>126.25</ele><time>2026-08-14T08:50:51Z</time></trkpt><trkpt lat="59.3532020878" lon="34.6091140620"><ele>125.87</ele><time>2026-08-14T08:50:53Z</time></trkpt><trkpt lat="59.3532180134" lon="34.6091454942"><ele>125.91</ele><time>2026-08-14T08:50:54Z</time></trkpt><trkpt lat="59.3532256410" lon="34.6091740765"><ele>125.68</ele><time>2026-08-14T08:50:55Z</time></trkpt><trkpt lat="59.3532293290" lon="34.6092055086"><ele>125.37</ele><time>2026-08-14T08:50:56Z</time></trkpt><trkpt lat="59.3532340229" lon="34.6092511900"><ele>125.12</ele><time>2026-08-14T08:50:57Z</time></trkpt><trkpt lat="59.3532661255" lon="34.6094827820"><ele>123.27</ele><time>2026-08-14T08:51:04Z</time></trkpt><trkpt lat="59.3532719929" lon="34.6095179021"><ele>123.04</ele><time>2026-08-14T08:51:05Z</time></trkpt><trkpt lat="59.3532600906" lon="34.6096013859"><ele>124.18</ele><time>2026-08-14T08:51:06Z</time></trkpt><trkpt lat="59.3532419857" lon="34.6098778211"><ele>124.65</ele><time>2026-08-14T08:51:14Z</time></trkpt><trkpt lat="59.3532370403" lon="34.6099247597"><ele>124.79</ele><time>2026-08-14T08:51:15Z</time></trkpt><trkpt lat="59.3532271497" lon="34.6099720336"><ele>124.89</ele><time>2026-08-14T08:51:16Z</time></trkpt><trkpt lat="59.3531754334" lon="34.6103756223"><ele>125.42</ele><time>2026-08-14T08:51:28Z</time></trkpt><trkpt lat="59.3532129843" lon="34.6105637122"><ele>143.89</ele><time>2026-08-14T08:51:54Z</time></trkpt><trkpt lat="59.3531864136" lon="34.6106393170"><ele>156.66</ele><time>2026-08-14T08:52:23Z</time></trkpt><trkpt lat="59.3532040995" lon="34.6106796339"><ele>162.15</ele><time>2026-08-14T08:52:56Z</time></trkpt><trkpt lat="59.3532023393" lon="34.6106939670"><ele>166.24</ele><time>2026-08-14T08:53:25Z</time></trkpt><trkpt lat="59.3531871680" lon="34.6106793825"><ele>170.94</ele><time>2026-08-14T08:53:54Z</time></trkpt><trkpt lat="59.3531613518" lon="34.6107360441"><ele>175.99</ele><time>2026-08-14T08:54:25Z</time></trkpt><trkpt lat="59.3531667162" lon="34.6108353697"><ele>177.80</ele><time>2026-08-14T08:54:54Z</time></trkpt><trkpt lat="59.3531386368" lon="34.6109996550"><ele>181.00</ele><time>2026-08-14T08:55:21Z</time></trkpt><trkpt lat="59.3531239685" lon="34.6112939436"><ele>178.59</ele><time>2026-08-14T08:55:42Z</time></trkpt><trkpt lat="59.3531217054" lon="34.6117366757"><ele>174.65</ele><time>2026-08-14T08:56:00Z</time></trkpt><trkpt lat="59.3531277403" lon="34.6117653418"><ele>174.40</ele><time>2026-08-14T08:56:01Z</time></trkpt><trkpt lat="59.3531337753" lon="34.6119188983"><ele>172.84</ele><time>2026-08-14T08:56:06Z</time></trkpt><trkpt lat="59.3531326856" lon="34.6119574551"><ele>172.27</ele><time>2026-08-14T08:56:07Z</time></trkpt><trkpt lat="59.3531346135" lon="34.6120574512"><ele>170.71</ele><time>2026-08-14T08:56:10Z</time></trkpt><trkpt lat="59.3531403132" lon="34.6122090798"><ele>168.81</ele><time>2026-08-14T08:56:14Z</time></trkpt><trkpt lat="59.3531456776" lon="34.6122422721"><ele>168.09</ele><time>2026-08-14T08:56:15Z</time></trkpt><trkpt lat="59.3531526346" lon="34.6122711897"><ele>167.35</ele><time>2026-08-14T08:56:16Z</time></trkpt><trkpt lat="59.3531613518" lon="34.6122907195"><ele>166.75</ele><time>2026-08-14T08:56:17Z</time></trkpt><trkpt lat="59.3531778641" lon="34.6124628000"><ele>161.83</ele><time>2026-08-14T08:56:31Z</time></trkpt><trkpt lat="59.3531882577" lon="34.6127554122"><ele>157.50</ele><time>2026-08-14T08:56:51Z</time></trkpt><trkpt lat="59.3531967234" lon="34.6128000040"><ele>156.97</ele><time>2026-08-14T08:56:53Z</time></trkpt><trkpt lat="59.3532251380" lon="34.6131214499"><ele>153.45</ele><time>2026-08-14T08:57:05Z</time></trkpt><trkpt lat="59.3532232102" lon="34.6134365257"><ele>150.68</ele><time>2026-08-14T08:57:22Z</time></trkpt><trkpt lat="59.3532320950" lon="34.6135563031"><ele>154.91</ele><time>2026-08-14T08:57:41Z</time></trkpt><trkpt lat="59.3532429915" lon="34.6136184130"><ele>160.20</ele><time>2026-08-14T08:58:03Z</time></trkpt><trkpt lat="59.3532382138" lon="34.6136591490"><ele>163.13</ele><time>2026-08-14T08:58:25Z</time></trkpt><trkpt lat="59.3532343581" lon="34.6137049980"><ele>165.90</ele><time>2026-08-14T08:58:46Z</time></trkpt><trkpt lat="59.3532333523" lon="34.6136507671"><ele>169.07</ele><time>2026-08-14T08:59:10Z</time></trkpt><trkpt lat="59.3532554805" lon="34.6135832928"><ele>170.35</ele><time>2026-08-14T08:59:34Z</time></trkpt><trkpt lat="59.3532530498" lon="34.6136418823"><ele>171.59</ele><time>2026-08-14T08:59:53Z</time></trkpt><trkpt lat="59.3532428239" lon="34.6135988832"><ele>172.82</ele><time>2026-08-14T09:00:14Z</time></trkpt><trkpt lat="59.3532867450" lon="34.6137723047"><ele>173.30</ele><time>2026-08-14T09:00:25Z</time></trkpt><trkpt lat="59.3533345219" lon="34.6140026394"><ele>173.07</ele><time>2026-08-14T09:00:35Z</time></trkpt><trkpt lat="59.3533374555" lon="34.6142424457"><ele>171.83</ele><time>2026-08-14T09:00:42Z</time></trkpt><trkpt lat="59.3533955421" lon="34.6145952400"><ele>166.83</ele><time>2026-08-14T09:00:58Z</time></trkpt><trkpt lat="59.3535263836" lon="34.6149901114"><ele>162.28</ele><time>2026-08-14T09:01:14Z</time></trkpt><trkpt lat="59.3535401300" lon="34.6151452605"><ele>164.79</ele><time>2026-08-14T09:01:39Z</time></trkpt><trkpt lat="59.3535382859" lon="34.6152760182"><ele>167.98</ele><time>2026-08-14T09:02:06Z</time></trkpt><trkpt lat="59.3535395432" lon="34.6152746771"><ele>168.34</ele><time>2026-08-14T09:02:34Z</time></trkpt><trkpt lat="59.3535434827" lon="34.6152817179"><ele>169.01</ele><time>2026-08-14T09:02:58Z</time></trkpt><trkpt lat="59.3535393756" lon="34.6152934525"><ele>169.62</ele><time>2026-08-14T09:03:16Z</time></trkpt><trkpt lat="59.3535665330" lon="34.6153588314"><ele>170.53</ele><time>2026-08-14T09:03:36Z</time></trkpt><trkpt lat="59.3535669520" lon="34.6153962146"><ele>171.00</ele><time>2026-08-14T09:03:55Z</time></trkpt><trkpt lat="59.3535825424" lon="34.6154093742"><ele>171.36</ele><time>2026-08-14T09:04:09Z</time></trkpt><trkpt lat="59.3535806984" lon="34.6154366992"><ele>173.17</ele><time>2026-08-14T09:04:32Z</time></trkpt><trkpt lat="59.3535560556" lon="34.6152962185"><ele>173.65</ele><time>2026-08-14T09:04:54Z</time></trkpt><trkpt lat="59.3535428960" lon="34.6153378766"><ele>174.01</ele><time>2026-08-14T09:05:11Z</time></trkpt><trkpt lat="59.3536296487" lon="34.6156562213"><ele>172.13</ele><time>2026-08-14T09:05:27Z</time></trkpt><trkpt lat="59.3536736537" lon="34.6157739870"><ele>170.46</ele><time>2026-08-14T09:05:31Z</time></trkpt><trkpt lat="59.3536806107" lon="34.6158232726"><ele>169.69</ele><time>2026-08-14T09:05:32Z</time></trkpt><trkpt lat="59.3536878191" lon="34.6158615779"><ele>169.08</ele><time>2026-08-14T09:05:33Z</time></trkpt><trkpt lat="59.3536958657" lon="34.6158961952"><ele>168.95</ele><time>2026-08-14T09:05:34Z</time></trkpt><trkpt lat="59.3537024874" lon="34.6159339976"><ele>168.66</ele><time>2026-08-14T09:05:35Z</time></trkpt><trkpt lat="59.3537090253" lon="34.6159671061"><ele>168.48</ele><time>2026-08-14T09:05:36Z</time></trkpt><trkpt lat="59.3537510186" lon="34.6161283739"><ele>165.78</ele><time>2026-08-14T09:05:41Z</time></trkpt><trkpt lat="59.3537647650" lon="34.6161749773"><ele>164.37</ele><time>2026-08-14T09:05:43Z</time></trkpt><trkpt lat="59.3537724763" lon="34.6162083372"><ele>163.58</ele><time>2026-08-14T09:05:44Z</time></trkpt><trkpt lat="59.3537816964" lon="34.6162622329"><ele>162.98</ele><time>2026-08-14T09:05:45Z</time></trkpt><trkpt lat="59.3537842948" lon="34.6163029689"><ele>162.07</ele><time>2026-08-14T09:05:46Z</time></trkpt><trkpt lat="59.3537857197" lon="34.6163332276"><ele>161.16</ele><time>2026-08-14T09:05:47Z</time></trkpt><trkpt lat="59.3537925929" lon="34.6166571882"><ele>155.47</ele><time>2026-08-14T09:05:59Z</time></trkpt><trkpt lat="59.3537524436" lon="34.6170602739"><ele>153.41</ele><time>2026-08-14T09:06:11Z</time></trkpt><trkpt lat="59.3537507672" lon="34.6170941368"><ele>153.31</ele><time>2026-08-14T09:06:12Z</time></trkpt><trkpt lat="59.3537456542" lon="34.6171319392"><ele>153.11</ele><time>2026-08-14T09:06:13Z</time></trkpt><trkpt lat="59.3537427206" lon="34.6171663050"><ele>152.93</ele><time>2026-08-14T09:06:14Z</time></trkpt><trkpt lat="59.3537443131" lon="34.6172111481"><ele>152.89</ele><time>2026-08-14T09:06:15Z</time></trkpt><trkpt lat="59.3537511863" lon="34.6172504593"><ele>152.45</ele><time>2026-08-14T09:06:16Z</time></trkpt><trkpt lat="59.3537526950" lon="34.6172859985"><ele>151.95</ele><time>2026-08-14T09:06:17Z</time></trkpt><trkpt lat="59.3537558801" lon="34.6173275728"><ele>151.43</ele><time>2026-08-14T09:06:18Z</time></trkpt><trkpt lat="59.3537598196" lon="34.6173583344"><ele>150.93</ele><time>2026-08-14T09:06:19Z</time></trkpt><trkpt lat="59.3537513539" lon="34.6178174112"><ele>144.57</ele><time>2026-08-14T09:06:34Z</time></trkpt><trkpt lat="59.3538664375" lon="34.6182881389"><ele>140.60</ele><time>2026-08-14T09:06:52Z</time></trkpt><trkpt lat="59.3539553694" lon="34.6184955072"><ele>139.31</ele><time>2026-08-14T09:07:04Z</time></trkpt><trkpt lat="59.3540153839" lon="34.6186095849"><ele>148.62</ele><time>2026-08-14T09:07:27Z</time></trkpt><trkpt lat="59.3540468160" lon="34.6186806634"><ele>154.51</ele><time>2026-08-14T09:07:52Z</time></trkpt><trkpt lat="59.3540503364" lon="34.6187004447"><ele>157.61</ele><time>2026-08-14T09:08:15Z</time></trkpt><trkpt lat="59.3540081754" lon="34.6187505685"><ele>161.20</ele><time>2026-08-14T09:08:39Z</time></trkpt><trkpt lat="59.3540396076" lon="34.6187363192"><ele>161.82</ele><time>2026-08-14T09:09:01Z</time></trkpt><trkpt lat="59.3540568743" lon="34.6186944935"><ele>161.64</ele><time>2026-08-14T09:09:25Z</time></trkpt><trkpt lat="59.3540972751" lon="34.6188580245"><ele>161.75</ele><time>2026-08-14T09:09:45Z</time></trkpt><trkpt lat="59.3541183975" lon="34.6189337969"><ele>162.22</ele><time>2026-08-14T09:10:09Z</time></trkpt><trkpt lat="59.3541521765" lon="34.6188966651"><ele>163.39</ele><time>2026-08-14T09:10:33Z</time></trkpt><trkpt lat="59.3541376758" lon="34.6187634766"><ele>163.27</ele><time>2026-08-14T09:10:54Z</time></trkpt><trkpt lat="59.3540904857" lon="34.6186742932"><ele>164.78</ele><time>2026-08-14T09:11:22Z</time></trkpt><trkpt lat="59.3541241810" lon="34.6187141910"><ele>166.14</ele><time>2026-08-14T09:11:49Z</time></trkpt><trkpt lat="59.3542339001" lon="34.6189998463"><ele>165.74</ele><time>2026-08-14T09:12:05Z</time></trkpt><trkpt lat="59.3543388415" lon="34.6190797258"><ele>164.69</ele><time>2026-08-14T09:12:22Z</time></trkpt><trkpt lat="59.3544284441" lon="34.6191124991"><ele>163.54</ele><time>2026-08-14T09:12:38Z</time></trkpt><trkpt lat="59.3545402586" lon="34.6191368066"><ele>161.03</ele><time>2026-08-14T09:12:59Z</time></trkpt><trkpt lat="59.3546119239" lon="34.6191725135"><ele>159.78</ele><time>2026-08-14T09:13:15Z</time></trkpt><trkpt lat="59.3547050469" lon="34.6192167699"><ele>158.95</ele><time>2026-08-14T09:13:45Z</time></trkpt><trkpt lat="59.3547814898" lon="34.6192401554"><ele>162.18</ele><time>2026-08-14T09:14:10Z</time></trkpt><trkpt lat="59.3548220582" lon="34.6192315221"><ele>162.77</ele><time>2026-08-14T09:14:34Z</time></trkpt><trkpt lat="59.3548579328" lon="34.6193165984"><ele>162.50</ele><time>2026-08-14T09:14:55Z</time></trkpt><trkpt lat="59.3549751118" lon="34.6194814704"><ele>158.51</ele><time>2026-08-14T09:15:17Z</time></trkpt><trkpt lat="59.3550827354" lon="34.6198299062"><ele>155.61</ele><time>2026-08-14T09:15:36Z</time></trkpt><trkpt lat="59.3551678117" lon="34.6201342531"><ele>156.26</ele><time>2026-08-14T09:15:54Z</time></trkpt><trkpt lat="59.3552952167" lon="34.6204303857"><ele>155.06</ele><time>2026-08-14T09:16:14Z</time></trkpt><trkpt lat="59.3553704862" lon="34.6205903962"><ele>153.33</ele><time>2026-08-14T09:16:32Z</time></trkpt><trkpt lat="59.3554683030" lon="34.6208938211"><ele>149.91</ele><time>2026-08-14T09:16:53Z</time></trkpt><trkpt lat="59.3554789480" lon="34.6210729424"><ele>147.13</ele><time>2026-08-14T09:17:12Z</time></trkpt><trkpt lat="59.3555110507" lon="34.6211294364"><ele>148.20</ele><time>2026-08-14T09:17:40Z</time></trkpt><trkpt lat="59.3555290718" lon="34.6211229824"><ele>148.73</ele><time>2026-08-14T09:18:04Z</time></trkpt><trkpt lat="59.3555643596" lon="34.6212777961"><ele>149.62</ele><time>2026-08-14T09:18:30Z</time></trkpt><trkpt lat="59.3555951212" lon="34.6214008424"><ele>149.03</ele><time>2026-08-14T09:18:48Z</time></trkpt><trkpt lat="59.3557105400" lon="34.6215663012"><ele>148.95</ele><time>2026-08-14T09:19:18Z</time></trkpt><trkpt lat="59.3558441475" lon="34.6216712426"><ele>147.79</ele><time>2026-08-14T09:19:40Z</time></trkpt><trkpt lat="59.3558688741" lon="34.6217136551"><ele>147.37</ele><time>2026-08-14T09:19:51Z</time></trkpt><trkpt lat="59.3558834586" lon="34.6217680536"><ele>146.78</ele><time>2026-08-14T09:19:59Z</time></trkpt><trkpt lat="59.3559388630" lon="34.6218646970"><ele>147.74</ele><time>2026-08-14T09:20:15Z</time></trkpt><trkpt lat="59.3560196646" lon="34.6219023317"><ele>145.84</ele><time>2026-08-14T09:20:31Z</time></trkpt><trkpt lat="59.3561256118" lon="34.6219389606"><ele>143.12</ele><time>2026-08-14T09:20:48Z</time></trkpt><trkpt lat="59.3562507536" lon="34.6220128052"><ele>141.13</ele><time>2026-08-14T09:21:14Z</time></trkpt><trkpt lat="59.3563401047" lon="34.6221952792"><ele>142.42</ele><time>2026-08-14T09:21:37Z</time></trkpt><trkpt lat="59.3565599620" lon="34.6223289706"><ele>146.20</ele><time>2026-08-14T09:21:54Z</time></trkpt><trkpt lat="59.3568858504" lon="34.6226589661"><ele>146.03</ele><time>2026-08-14T09:22:32Z</time></trkpt><trkpt lat="59.3570381496" lon="34.6226828545"><ele>145.58</ele><time>2026-08-14T09:22:40Z</time></trkpt><trkpt lat="59.3575314246" lon="34.6230301168"><ele>145.50</ele><time>2026-08-14T09:23:38Z</time></trkpt><trkpt lat="59.3577137310" lon="34.6232182905"><ele>146.72</ele><time>2026-08-14T09:24:07Z</time></trkpt><trkpt lat="59.3577236217" lon="34.6232827473"><ele>146.84</ele><time>2026-08-14T09:24:10Z</time></trkpt><trkpt lat="59.3577686325" lon="34.6234738547"><ele>147.56</ele><time>2026-08-14T09:24:27Z</time></trkpt><trkpt lat="59.3578138947" lon="34.6237224620"><ele>145.16</ele><time>2026-08-14T09:24:46Z</time></trkpt><trkpt lat="59.3579078559" lon="34.6241459157"><ele>148.01</ele><time>2026-08-14T09:25:07Z</time></trkpt><trkpt lat="59.3580271304" lon="34.6245078463"><ele>149.63</ele><time>2026-08-14T09:25:21Z</time></trkpt><trkpt lat="59.3580549583" lon="34.6245924197"><ele>149.26</ele><time>2026-08-14T09:25:31Z</time></trkpt><trkpt lat="59.3580849655" lon="34.6246957686"><ele>148.42</ele><time>2026-08-14T09:25:36Z</time></trkpt><trkpt lat="59.3581363466" lon="34.6248230897"><ele>149.23</ele><time>2026-08-14T09:25:46Z</time></trkpt><trkpt lat="59.3581687845" lon="34.6249845251"><ele>149.32</ele><time>2026-08-14T09:26:04Z</time></trkpt><trkpt lat="59.3582274579" lon="34.6251463797"><ele>152.39</ele><time>2026-08-14T09:26:16Z</time></trkpt><trkpt lat="59.3583289627" lon="34.6252081543"><ele>155.26</ele><time>2026-08-14T09:26:40Z</time></trkpt><trkpt lat="59.3584282044" lon="34.6252955776"><ele>155.81</ele><time>2026-08-14T09:26:58Z</time></trkpt><trkpt lat="59.3585794140" lon="34.6252250019"><ele>159.15</ele><time>2026-08-14T09:27:19Z</time></trkpt><trkpt lat="59.3586642388" lon="34.6251177974"><ele>159.12</ele><time>2026-08-14T09:27:31Z</time></trkpt><trkpt lat="59.3587548472" lon="34.6249711141"><ele>158.12</ele><time>2026-08-14T09:27:47Z</time></trkpt><trkpt lat="59.3587557692" lon="34.6249349881"><ele>157.69</ele><time>2026-08-14T09:27:51Z</time></trkpt><trkpt lat="59.3588529155" lon="34.6248541027"><ele>156.54</ele><time>2026-08-14T09:28:13Z</time></trkpt><trkpt lat="59.3589773029" lon="34.6247437969"><ele>155.70</ele><time>2026-08-14T09:28:34Z</time></trkpt><trkpt lat="59.3590285163" lon="34.6246251930"><ele>155.89</ele><time>2026-08-14T09:28:47Z</time></trkpt><trkpt lat="59.3591534067" lon="34.6244042460"><ele>156.10</ele><time>2026-08-14T09:29:05Z</time></trkpt><trkpt lat="59.3592289276" lon="34.6242607478"><ele>158.24</ele><time>2026-08-14T09:29:26Z</time></trkpt><trkpt lat="59.3592461944" lon="34.6242311597"><ele>161.18</ele><time>2026-08-14T09:29:58Z</time></trkpt><trkpt lat="59.3593225535" lon="34.6240750886"><ele>162.65</ele><time>2026-08-14T09:30:23Z</time></trkpt><trkpt lat="59.3594032712" lon="34.6237616055"><ele>160.30</ele><time>2026-08-14T09:30:44Z</time></trkpt><trkpt lat="59.3594864197" lon="34.6234835777"><ele>158.40</ele><time>2026-08-14T09:31:03Z</time></trkpt><trkpt lat="59.3595723342" lon="34.6232612897"><ele>155.91</ele><time>2026-08-14T09:31:17Z</time></trkpt><trkpt lat="59.3597128987" lon="34.6229753830"><ele>154.27</ele><time>2026-08-14T09:31:40Z</time></trkpt><trkpt lat="59.3597376253" lon="34.6229134407"><ele>153.54</ele><time>2026-08-14T09:31:45Z</time></trkpt><trkpt lat="59.3598298263" lon="34.6226853691"><ele>149.67</ele><time>2026-08-14T09:32:01Z</time></trkpt><trkpt lat="59.3599236198" lon="34.6224362589"><ele>148.35</ele><time>2026-08-14T09:32:19Z</time></trkpt><trkpt lat="59.3599952012" lon="34.6222366858"><ele>148.15</ele><time>2026-08-14T09:32:39Z</time></trkpt><trkpt lat="59.3600273039" lon="34.6221651882"><ele>155.79</ele><time>2026-08-14T09:33:05Z</time></trkpt><trkpt lat="59.3600439001" lon="34.6221349295"><ele>161.32</ele><time>2026-08-14T09:33:27Z</time></trkpt><trkpt lat="59.3600343447" lon="34.6220735740"><ele>164.42</ele><time>2026-08-14T09:33:54Z</time></trkpt><trkpt lat="59.3600526173" lon="34.6220810339"><ele>165.59</ele><time>2026-08-14T09:34:26Z</time></trkpt><trkpt lat="59.3600397930" lon="34.6221279725"><ele>168.82</ele><time>2026-08-14T09:34:55Z</time></trkpt><trkpt lat="59.3600495998" lon="34.6221333370"><ele>169.63</ele><time>2026-08-14T09:35:24Z</time></trkpt><trkpt lat="59.3600624241" lon="34.6221110411"><ele>170.07</ele><time>2026-08-14T09:35:49Z</time></trkpt><trkpt lat="59.3600724824" lon="34.6220866498"><ele>170.39</ele><time>2026-08-14T09:36:13Z</time></trkpt><trkpt lat="59.3600573111" lon="34.6220990550"><ele>170.90</ele><time>2026-08-14T09:36:53Z</time></trkpt><trkpt lat="59.3600375298" lon="34.6221809462"><ele>171.72</ele><time>2026-08-14T09:37:20Z</time></trkpt><trkpt lat="59.3599970452" lon="34.6222954430"><ele>170.88</ele><time>2026-08-14T09:37:43Z</time></trkpt><trkpt lat="59.3599144835" lon="34.6224531066"><ele>168.25</ele><time>2026-08-14T09:38:07Z</time></trkpt><trkpt lat="59.3598605040" lon="34.6226517577"><ele>165.97</ele><time>2026-08-14T09:38:30Z</time></trkpt><trkpt lat="59.3597924430" lon="34.6228171326"><ele>166.36</ele><time>2026-08-14T09:38:53Z</time></trkpt><trkpt lat="59.3597517069" lon="34.6228918154"><ele>168.30</ele><time>2026-08-14T09:39:19Z</time></trkpt><trkpt lat="59.3597459234" lon="34.6228685975"><ele>169.02</ele><time>2026-08-14T09:39:44Z</time></trkpt><trkpt lat="59.3597578257" lon="34.6228389256"><ele>170.20</ele><time>2026-08-14T09:40:05Z</time></trkpt><trkpt lat="59.3597642798" lon="34.6227960940"><ele>170.90</ele><time>2026-08-14T09:40:26Z</time></trkpt><trkpt lat="59.3597505335" lon="34.6228025481"><ele>171.71</ele><time>2026-08-14T09:40:54Z</time></trkpt><trkpt lat="59.3597196881" lon="34.6227795817"><ele>172.07</ele><time>2026-08-14T09:41:24Z</time></trkpt><trkpt lat="59.3597316742" lon="34.6228185575"><ele>171.89</ele><time>2026-08-14T09:41:56Z</time></trkpt><trkpt lat="59.3597596698" lon="34.6228146181"><ele>171.56</ele><time>2026-08-14T09:42:25Z</time></trkpt><trkpt lat="59.3596993200" lon="34.6227996144"><ele>171.68</ele><time>2026-08-14T09:42:55Z</time></trkpt><trkpt lat="59.3597670458" lon="34.6228212398"><ele>171.74</ele><time>2026-08-14T09:44:09Z</time></trkpt><trkpt lat="59.3597465940" lon="34.6228448767"><ele>171.78</ele><time>2026-08-14T09:44:41Z</time></trkpt><trkpt lat="59.3597667105" lon="34.6227859519"><ele>172.13</ele><time>2026-08-14T09:45:10Z</time></trkpt><trkpt lat="59.3597703986" lon="34.6228064876"><ele>171.64</ele><time>2026-08-14T09:45:42Z</time></trkpt><trkpt lat="59.3597823009" lon="34.6228190605"><ele>171.62</ele><time>2026-08-14T09:46:12Z</time></trkpt><trkpt lat="59.3597684707" lon="34.6227801684"><ele>172.43</ele><time>2026-08-14T09:46:40Z</time></trkpt><trkpt lat="59.3597724941" lon="34.6227614768"><ele>171.64</ele><time>2026-08-14T09:47:10Z</time></trkpt><trkpt lat="59.3597701471" lon="34.6227752231"><ele>170.90</ele><time>2026-08-14T09:47:40Z</time></trkpt><trkpt lat="59.3597549759" lon="34.6228021290"><ele>170.81</ele><time>2026-08-14T09:48:09Z</time></trkpt><trkpt lat="59.3597414810" lon="34.6228572819"><ele>170.79</ele><time>2026-08-14T09:49:09Z</time></trkpt><trkpt lat="59.3597460072" lon="34.6229172964"><ele>171.55</ele><time>2026-08-14T09:49:35Z</time></trkpt><trkpt lat="59.3597504497" lon="34.6228743810"><ele>170.10</ele><time>2026-08-14T09:50:02Z</time></trkpt><trkpt lat="59.3597868271" lon="34.6229042206"><ele>170.79</ele><time>2026-08-14T09:50:32Z</time></trkpt><trkpt lat="59.3597866595" lon="34.6228709444"><ele>172.10</ele><time>2026-08-14T09:51:02Z</time></trkpt><trkpt lat="59.3597502820" lon="34.6229339764"><ele>171.14</ele><time>2026-08-14T09:51:31Z</time></trkpt><trkpt lat="59.3597289920" lon="34.6229195595"><ele>172.05</ele><time>2026-08-14T09:51:58Z</time></trkpt><trkpt lat="59.3597684707" lon="34.6228529233"><ele>173.17</ele><time>2026-08-14T09:52:23Z</time></trkpt><trkpt lat="59.3597746734" lon="34.6228561923"><ele>172.05</ele><time>2026-08-14T09:52:46Z</time></trkpt><trkpt lat="59.3598325923" lon="34.6230421029"><ele>173.50</ele><time>2026-08-14T09:53:10Z</time></trkpt><trkpt lat="59.3599076103" lon="34.6233881917"><ele>172.04</ele><time>2026-08-14T09:53:33Z</time></trkpt><trkpt lat="59.3599237874" lon="34.6235101484"><ele>171.31</ele><time>2026-08-14T09:53:40Z</time></trkpt><trkpt lat="59.3599484302" lon="34.6237182710"><ele>170.67</ele><time>2026-08-14T09:54:04Z</time></trkpt><trkpt lat="59.3599729054" lon="34.6239201911"><ele>169.93</ele><time>2026-08-14T09:54:17Z</time></trkpt><trkpt lat="59.3599718157" lon="34.6240284014"><ele>170.56</ele><time>2026-08-14T09:54:24Z</time></trkpt><trkpt lat="59.3599974643" lon="34.6244106162"><ele>169.36</ele><time>2026-08-14T09:54:45Z</time></trkpt><trkpt lat="59.3600245379" lon="34.6247903164"><ele>168.58</ele><time>2026-08-14T09:55:06Z</time></trkpt><trkpt lat="59.3599836342" lon="34.6252939012"><ele>162.47</ele><time>2026-08-14T09:55:27Z</time></trkpt><trkpt lat="59.3599817064" lon="34.6253126767"><ele>162.18</ele><time>2026-08-14T09:55:28Z</time></trkpt><trkpt lat="59.3599812035" lon="34.6254387405"><ele>162.89</ele><time>2026-08-14T09:55:51Z</time></trkpt><trkpt lat="59.3599104602" lon="34.6254968271"><ele>160.95</ele><time>2026-08-14T09:56:15Z</time></trkpt><trkpt lat="59.3598976359" lon="34.6255244035"><ele>162.23</ele><time>2026-08-14T09:56:40Z</time></trkpt><trkpt lat="59.3599046767" lon="34.6256629564"><ele>162.63</ele><time>2026-08-14T09:57:08Z</time></trkpt><trkpt lat="59.3599445745" lon="34.6257254854"><ele>161.75</ele><time>2026-08-14T09:57:19Z</time></trkpt><trkpt lat="59.3601270486" lon="34.6258113999"><ele>163.13</ele><time>2026-08-14T09:57:41Z</time></trkpt><trkpt lat="59.3602231052" lon="34.6258808859"><ele>161.25</ele><time>2026-08-14T09:58:04Z</time></trkpt><trkpt lat="59.3602710497" lon="34.6259289142"><ele>158.92</ele><time>2026-08-14T09:58:21Z</time></trkpt><trkpt lat="59.3602998834" lon="34.6261187643"><ele>156.82</ele><time>2026-08-14T09:58:36Z</time></trkpt><trkpt lat="59.3604050763" lon="34.6264154837"><ele>151.92</ele><time>2026-08-14T09:59:01Z</time></trkpt><trkpt lat="59.3604539428" lon="34.6267402824"><ele>149.68</ele><time>2026-08-14T09:59:25Z</time></trkpt><trkpt lat="59.3605143763" lon="34.6268657595"><ele>157.66</ele><time>2026-08-14T09:59:50Z</time></trkpt><trkpt lat="59.3605002947" lon="34.6270320565"><ele>159.79</ele><time>2026-08-14T10:00:11Z</time></trkpt><trkpt lat="59.3605369236" lon="34.6272209007"><ele>160.88</ele><time>2026-08-14T10:00:28Z</time></trkpt><trkpt lat="59.3605378456" lon="34.6272292826"><ele>160.96</ele><time>2026-08-14T10:00:29Z</time></trkpt><trkpt lat="59.3605431262" lon="34.6274746209"><ele>162.01</ele><time>2026-08-14T10:00:45Z</time></trkpt><trkpt lat="59.3605650030" lon="34.6275051311"><ele>162.67</ele><time>2026-08-14T10:00:52Z</time></trkpt><trkpt lat="59.3605008814" lon="34.6278927941"><ele>163.61</ele><time>2026-08-14T10:01:15Z</time></trkpt><trkpt lat="59.3604774121" lon="34.6279248968"><ele>163.04</ele><time>2026-08-14T10:01:37Z</time></trkpt><trkpt lat="59.3603144679" lon="34.6284211054"><ele>164.41</ele><time>2026-08-14T10:01:59Z</time></trkpt><trkpt lat="59.3602977041" lon="34.6285490971"><ele>166.58</ele><time>2026-08-14T10:02:18Z</time></trkpt><trkpt lat="59.3601976242" lon="34.6287552081"><ele>166.51</ele><time>2026-08-14T10:02:36Z</time></trkpt><trkpt lat="59.3601159006" lon="34.6290504187"><ele>168.75</ele><time>2026-08-14T10:02:59Z</time></trkpt><trkpt lat="59.3601243664" lon="34.6292452980"><ele>169.24</ele><time>2026-08-14T10:03:19Z</time></trkpt><trkpt lat="59.3601411302" lon="34.6293587051"><ele>169.02</ele><time>2026-08-14T10:03:31Z</time></trkpt><trkpt lat="59.3601557985" lon="34.6296284348"><ele>166.83</ele><time>2026-08-14T10:03:48Z</time></trkpt><trkpt lat="59.3600716442" lon="34.6298363060"><ele>165.57</ele><time>2026-08-14T10:04:03Z</time></trkpt><trkpt lat="59.3598053511" lon="34.6303146612"><ele>163.89</ele><time>2026-08-14T10:04:29Z</time></trkpt><trkpt lat="59.3597812951" lon="34.6303533018"><ele>163.96</ele><time>2026-08-14T10:04:32Z</time></trkpt><trkpt lat="59.3595814705" lon="34.6306936909"><ele>163.29</ele><time>2026-08-14T10:05:03Z</time></trkpt><trkpt lat="59.3594909459" lon="34.6307858080"><ele>163.49</ele><time>2026-08-14T10:05:19Z</time></trkpt><trkpt lat="59.3593804725" lon="34.6308893245"><ele>163.43</ele><time>2026-08-14T10:05:42Z</time></trkpt><trkpt lat="59.3592070509" lon="34.6310394444"><ele>164.72</ele><time>2026-08-14T10:06:02Z</time></trkpt><trkpt lat="59.3591697514" lon="34.6310897358"><ele>164.93</ele><time>2026-08-14T10:06:05Z</time></trkpt><trkpt lat="59.3589676637" lon="34.6311968565"><ele>164.54</ele><time>2026-08-14T10:06:24Z</time></trkpt><trkpt lat="59.3587833457" lon="34.6312204096"><ele>160.24</ele><time>2026-08-14T10:06:44Z</time></trkpt><trkpt lat="59.3585990276" lon="34.6313857008"><ele>158.57</ele><time>2026-08-14T10:07:08Z</time></trkpt><trkpt lat="59.3584625702" lon="34.6316852700"><ele>157.89</ele><time>2026-08-14T10:07:27Z</time></trkpt><trkpt lat="59.3584234267" lon="34.6317874454"><ele>159.34</ele><time>2026-08-14T10:07:42Z</time></trkpt><trkpt lat="59.3583961017" lon="34.6318976674"><ele>163.26</ele><time>2026-08-14T10:08:06Z</time></trkpt><trkpt lat="59.3583903182" lon="34.6318772156"><ele>165.69</ele><time>2026-08-14T10:08:32Z</time></trkpt><trkpt lat="59.3583840318" lon="34.6319494676"><ele>166.56</ele><time>2026-08-14T10:08:59Z</time></trkpt><trkpt lat="59.3584150448" lon="34.6319188736"><ele>169.56</ele><time>2026-08-14T10:09:29Z</time></trkpt><trkpt lat="59.3584256060" lon="34.6319799777"><ele>169.63</ele><time>2026-08-14T10:10:00Z</time></trkpt><trkpt lat="59.3584418669" lon="34.6319553349"><ele>173.11</ele><time>2026-08-14T10:10:27Z</time></trkpt><trkpt lat="59.3584251031" lon="34.6319843363"><ele>173.54</ele><time>2026-08-14T10:10:56Z</time></trkpt><trkpt lat="59.3584313057" lon="34.6319500543"><ele>173.78</ele><time>2026-08-14T10:11:25Z</time></trkpt><trkpt lat="59.3584661745" lon="34.6317522414"><ele>173.36</ele><time>2026-08-14T10:11:47Z</time></trkpt><trkpt lat="59.3585714512" lon="34.6315467171"><ele>171.55</ele><time>2026-08-14T10:12:09Z</time></trkpt><trkpt lat="59.3585789111" lon="34.6315208171"><ele>171.39</ele><time>2026-08-14T10:12:11Z</time></trkpt><trkpt lat="59.3587220740" lon="34.6314583719"><ele>170.64</ele><time>2026-08-14T10:12:33Z</time></trkpt><trkpt lat="59.3588130176" lon="34.6315830946"><ele>170.36</ele><time>2026-08-14T10:12:59Z</time></trkpt><trkpt lat="59.3588875327" lon="34.6315540932"><ele>169.17</ele><time>2026-08-14T10:13:15Z</time></trkpt><trkpt lat="59.3590747006" lon="34.6316257585"><ele>168.34</ele><time>2026-08-14T10:13:35Z</time></trkpt><trkpt lat="59.3590685818" lon="34.6317446139"><ele>167.97</ele><time>2026-08-14T10:13:42Z</time></trkpt><trkpt lat="59.3590838369" lon="34.6317896247"><ele>167.78</ele><time>2026-08-14T10:13:47Z</time></trkpt><trkpt lat="59.3591249920" lon="34.6320676524"><ele>166.04</ele><time>2026-08-14T10:14:14Z</time></trkpt><trkpt lat="59.3591311108" lon="34.6320793033"><ele>166.02</ele><time>2026-08-14T10:14:16Z</time></trkpt><trkpt lat="59.3591237348" lon="34.6323833149"><ele>165.33</ele><time>2026-08-14T10:14:42Z</time></trkpt><trkpt lat="59.3592073023" lon="34.6325258072"><ele>164.71</ele><time>2026-08-14T10:15:04Z</time></trkpt><trkpt lat="59.3593260739" lon="34.6327308286"><ele>166.66</ele><time>2026-08-14T10:15:24Z</time></trkpt><trkpt lat="59.3593995832" lon="34.6328872349"><ele>166.87</ele><time>2026-08-14T10:15:43Z</time></trkpt><trkpt lat="59.3594974838" lon="34.6330474969"><ele>168.20</ele><time>2026-08-14T10:16:05Z</time></trkpt><trkpt lat="59.3596208654" lon="34.6331228502"><ele>168.17</ele><time>2026-08-14T10:16:25Z</time></trkpt><trkpt lat="59.3597893417" lon="34.6331477445"><ele>169.81</ele><time>2026-08-14T10:16:48Z</time></trkpt><trkpt lat="59.3598444108" lon="34.6331418771"><ele>168.96</ele><time>2026-08-14T10:16:59Z</time></trkpt><trkpt lat="59.3599693850" lon="34.6331157256"><ele>167.52</ele><time>2026-08-14T10:17:26Z</time></trkpt><trkpt lat="59.3600877374" lon="34.6329797711"><ele>169.06</ele><time>2026-08-14T10:17:49Z</time></trkpt><trkpt lat="59.3601714727" lon="34.6329127159"><ele>170.72</ele><time>2026-08-14T10:18:08Z</time></trkpt><trkpt lat="59.3602360971" lon="34.6329990495"><ele>171.54</ele><time>2026-08-14T10:18:30Z</time></trkpt><trkpt lat="59.3602505978" lon="34.6330074314"><ele>171.61</ele><time>2026-08-14T10:18:32Z</time></trkpt><trkpt lat="59.3602992967" lon="34.6330800187"><ele>171.94</ele><time>2026-08-14T10:18:48Z</time></trkpt><trkpt lat="59.3603920005" lon="34.6332223434"><ele>173.05</ele><time>2026-08-14T10:19:08Z</time></trkpt><trkpt lat="59.3604489975" lon="34.6332149673"><ele>173.28</ele><time>2026-08-14T10:19:20Z</time></trkpt><trkpt lat="59.3605688587" lon="34.6332790889"><ele>173.41</ele><time>2026-08-14T10:19:38Z</time></trkpt><trkpt lat="59.3606399372" lon="34.6333634946"><ele>173.16</ele><time>2026-08-14T10:19:58Z</time></trkpt><trkpt lat="59.3606105167" lon="34.6334706154"><ele>172.16</ele><time>2026-08-14T10:20:08Z</time></trkpt><trkpt lat="59.3606684357" lon="34.6336460486"><ele>171.25</ele><time>2026-08-14T10:20:29Z</time></trkpt><trkpt lat="59.3606716208" lon="34.6336890478"><ele>171.44</ele><time>2026-08-14T10:20:32Z</time></trkpt><trkpt lat="59.3607391790" lon="34.6339217294"><ele>171.91</ele><time>2026-08-14T10:20:56Z</time></trkpt><trkpt lat="59.3608095869" lon="34.6340183727"><ele>172.09</ele><time>2026-08-14T10:21:10Z</time></trkpt><trkpt lat="59.3609394226" lon="34.6341384016"><ele>171.21</ele><time>2026-08-14T10:21:30Z</time></trkpt><trkpt lat="59.3610059749" lon="34.6341557521"><ele>171.24</ele><time>2026-08-14T10:21:42Z</time></trkpt><trkpt lat="59.3611729424" lon="34.6341808140"><ele>172.32</ele><time>2026-08-14T10:22:07Z</time></trkpt><trkpt lat="59.3612971622" lon="34.6341935545"><ele>172.51</ele><time>2026-08-14T10:22:27Z</time></trkpt><trkpt lat="59.3614215497" lon="34.6343018487"><ele>172.54</ele><time>2026-08-14T10:22:54Z</time></trkpt><trkpt lat="59.3614580110" lon="34.6344716661"><ele>172.58</ele><time>2026-08-14T10:23:11Z</time></trkpt><trkpt lat="59.3614976574" lon="34.6346131526"><ele>171.20</ele><time>2026-08-14T10:23:24Z</time></trkpt><trkpt lat="59.3615280837" lon="34.6348835528"><ele>171.32</ele><time>2026-08-14T10:23:42Z</time></trkpt><trkpt lat="59.3616048619" lon="34.6350418031"><ele>169.15</ele><time>2026-08-14T10:23:58Z</time></trkpt><trkpt lat="59.3617066182" lon="34.6351563837"><ele>167.44</ele><time>2026-08-14T10:24:16Z</time></trkpt><trkpt lat="59.3618135713" lon="34.6352200024"><ele>167.04</ele><time>2026-08-14T10:24:36Z</time></trkpt><trkpt lat="59.3619799521" lon="34.6351822000"><ele>167.40</ele><time>2026-08-14T10:24:55Z</time></trkpt><trkpt lat="59.3620641902" lon="34.6352056693"><ele>168.89</ele><time>2026-08-14T10:25:09Z</time></trkpt><trkpt lat="59.3621220253" lon="34.6352085192"><ele>168.06</ele><time>2026-08-14T10:25:25Z</time></trkpt><trkpt lat="59.3622034974" lon="34.6350367740"><ele>167.44</ele><time>2026-08-14T10:25:48Z</time></trkpt><trkpt lat="59.3623701297" lon="34.6349957027"><ele>168.54</ele><time>2026-08-14T10:26:08Z</time></trkpt><trkpt lat="59.3625090178" lon="34.6349976305"><ele>169.50</ele><time>2026-08-14T10:26:33Z</time></trkpt><trkpt lat="59.3625032343" lon="34.6349383704"><ele>170.07</ele><time>2026-08-14T10:26:55Z</time></trkpt><trkpt lat="59.3625908252" lon="34.6348834690"><ele>171.53</ele><time>2026-08-14T10:27:18Z</time></trkpt><trkpt lat="59.3626534380" lon="34.6348320879"><ele>171.40</ele><time>2026-08-14T10:27:36Z</time></trkpt><trkpt lat="59.3627590500" lon="34.6347299963"><ele>171.81</ele><time>2026-08-14T10:27:52Z</time></trkpt><trkpt lat="59.3628504127" lon="34.6346789505"><ele>172.15</ele><time>2026-08-14T10:28:11Z</time></trkpt><trkpt lat="59.3629656639" lon="34.6345949639"><ele>172.70</ele><time>2026-08-14T10:28:34Z</time></trkpt><trkpt lat="59.3630063999" lon="34.6345891804"><ele>173.51</ele><time>2026-08-14T10:28:44Z</time></trkpt><trkpt lat="59.3631011155" lon="34.6345823910"><ele>173.77</ele><time>2026-08-14T10:29:02Z</time></trkpt><trkpt lat="59.3631908856" lon="34.6345395595"><ele>173.77</ele><time>2026-08-14T10:29:19Z</time></trkpt><trkpt lat="59.3633351382" lon="34.6345028467"><ele>174.16</ele><time>2026-08-14T10:29:37Z</time></trkpt><trkpt lat="59.3633982539" lon="34.6345455106"><ele>175.60</ele><time>2026-08-14T10:29:47Z</time></trkpt><trkpt lat="59.3634877726" lon="34.6346444171"><ele>177.23</ele><time>2026-08-14T10:30:07Z</time></trkpt><trkpt lat="59.3636076339" lon="34.6346490271"><ele>177.04</ele><time>2026-08-14T10:30:26Z</time></trkpt><trkpt lat="59.3637241423" lon="34.6346252225"><ele>176.48</ele><time>2026-08-14T10:30:45Z</time></trkpt><trkpt lat="59.3638343643" lon="34.6347383782"><ele>177.05</ele><time>2026-08-14T10:31:09Z</time></trkpt><trkpt lat="59.3638871703" lon="34.6348176710"><ele>178.04</ele><time>2026-08-14T10:31:25Z</time></trkpt><trkpt lat="59.3639953807" lon="34.6349165775"><ele>178.09</ele><time>2026-08-14T10:31:39Z</time></trkpt><trkpt lat="59.3639952969" lon="34.6349364426"><ele>178.14</ele><time>2026-08-14T10:31:41Z</time></trkpt><trkpt lat="59.3640100490" lon="34.6351179108"><ele>179.59</ele><time>2026-08-14T10:32:06Z</time></trkpt><trkpt lat="59.3640742544" lon="34.6353503410"><ele>180.44</ele><time>2026-08-14T10:32:39Z</time></trkpt><trkpt lat="59.3641724065" lon="34.6354992874"><ele>180.11</ele><time>2026-08-14T10:32:58Z</time></trkpt><trkpt lat="59.3642452452" lon="34.6356033906"><ele>180.26</ele><time>2026-08-14T10:33:13Z</time></trkpt><trkpt lat="59.3642862327" lon="34.6356676798"><ele>180.49</ele><time>2026-08-14T10:33:25Z</time></trkpt><trkpt lat="59.3643975444" lon="34.6356623992"><ele>180.00</ele><time>2026-08-14T10:33:42Z</time></trkpt><trkpt lat="59.3644883204" lon="34.6356771514"><ele>179.98</ele><time>2026-08-14T10:33:59Z</time></trkpt><trkpt lat="59.3646200001" lon="34.6356800012"><ele>179.07</ele><time>2026-08-14T10:34:14Z</time></trkpt><trkpt lat="59.3647131231" lon="34.6357377525"><ele>178.08</ele><time>2026-08-14T10:34:29Z</time></trkpt><trkpt lat="59.3648014683" lon="34.6358853579"><ele>178.12</ele><time>2026-08-14T10:34:47Z</time></trkpt><trkpt lat="59.3648136221" lon="34.6358929854"><ele>178.34</ele><time>2026-08-14T10:34:49Z</time></trkpt><trkpt lat="59.3648784980" lon="34.6360776387"><ele>179.33</ele><time>2026-08-14T10:35:05Z</time></trkpt><trkpt lat="59.3649604730" lon="34.6362254117"><ele>180.34</ele><time>2026-08-14T10:35:24Z</time></trkpt><trkpt lat="59.3650641572" lon="34.6363156848"><ele>181.24</ele><time>2026-08-14T10:35:44Z</time></trkpt><trkpt lat="59.3651564419" lon="34.6363048721"><ele>180.90</ele><time>2026-08-14T10:36:00Z</time></trkpt><trkpt lat="59.3652377464" lon="34.6361956559"><ele>179.64</ele><time>2026-08-14T10:36:18Z</time></trkpt><trkpt lat="59.3653807417" lon="34.6361411735"><ele>180.31</ele><time>2026-08-14T10:36:40Z</time></trkpt><trkpt lat="59.3654093239" lon="34.6361565962"><ele>180.78</ele><time>2026-08-14T10:37:10Z</time></trkpt><trkpt lat="59.3654701766" lon="34.6360773873"><ele>180.52</ele><time>2026-08-14T10:37:34Z</time></trkpt><trkpt lat="59.3654865213" lon="34.6359016187"><ele>179.72</ele><time>2026-08-14T10:37:52Z</time></trkpt><trkpt lat="59.3654905446" lon="34.6358883753"><ele>179.67</ele><time>2026-08-14T10:37:53Z</time></trkpt><trkpt lat="59.3654807378" lon="34.6356690209"><ele>178.68</ele><time>2026-08-14T10:38:13Z</time></trkpt><trkpt lat="59.3655041233" lon="34.6355827712"><ele>178.30</ele><time>2026-08-14T10:38:20Z</time></trkpt><trkpt lat="59.3654948194" lon="34.6353282966"><ele>176.36</ele><time>2026-08-14T10:38:41Z</time></trkpt><trkpt lat="59.3653963320" lon="34.6352419630"><ele>175.25</ele><time>2026-08-14T10:38:57Z</time></trkpt><trkpt lat="59.3653987627" lon="34.6351740696"><ele>174.91</ele><time>2026-08-14T10:39:03Z</time></trkpt><trkpt lat="59.3653236609" lon="34.6348459180"><ele>174.31</ele><time>2026-08-14T10:39:26Z</time></trkpt><trkpt lat="59.3652991857" lon="34.6346605942"><ele>173.96</ele><time>2026-08-14T10:39:43Z</time></trkpt><trkpt lat="59.3652081583" lon="34.6344478615"><ele>173.72</ele><time>2026-08-14T10:39:57Z</time></trkpt><trkpt lat="59.3651293684" lon="34.6342408285"><ele>174.43</ele><time>2026-08-14T10:40:18Z</time></trkpt><trkpt lat="59.3650072441" lon="34.6340196300"><ele>175.05</ele><time>2026-08-14T10:40:41Z</time></trkpt><trkpt lat="59.3650073279" lon="34.6338100825"><ele>176.07</ele><time>2026-08-14T10:41:11Z</time></trkpt><trkpt lat="59.3650633190" lon="34.6337583661"><ele>175.86</ele><time>2026-08-14T10:41:29Z</time></trkpt><trkpt lat="59.3650992773" lon="34.6336459648"><ele>175.55</ele><time>2026-08-14T10:41:52Z</time></trkpt><trkpt lat="59.3650938291" lon="34.6334674302"><ele>174.65</ele><time>2026-08-14T10:42:07Z</time></trkpt><trkpt lat="59.3650622293" lon="34.6334648319"><ele>174.24</ele><time>2026-08-14T10:42:16Z</time></trkpt><trkpt lat="59.3651027977" lon="34.6334489062"><ele>173.43</ele><time>2026-08-14T10:42:31Z</time></trkpt><trkpt lat="59.3651718646" lon="34.6333016362"><ele>171.87</ele><time>2026-08-14T10:42:47Z</time></trkpt><trkpt lat="59.3652292807" lon="34.6332268696"><ele>171.56</ele><time>2026-08-14T10:42:58Z</time></trkpt><trkpt lat="59.3653155304" lon="34.6331462357"><ele>171.49</ele><time>2026-08-14T10:43:18Z</time></trkpt><trkpt lat="59.3652808294" lon="34.6331321541"><ele>171.72</ele><time>2026-08-14T10:43:49Z</time></trkpt><trkpt lat="59.3652957492" lon="34.6331005543"><ele>171.05</ele><time>2026-08-14T10:44:18Z</time></trkpt><trkpt lat="59.3653410953" lon="34.6331012249"><ele>171.84</ele><time>2026-08-14T10:44:44Z</time></trkpt><trkpt lat="59.3653054722" lon="34.6330925915"><ele>172.95</ele><time>2026-08-14T10:45:15Z</time></trkpt><trkpt lat="59.3652614672" lon="34.6331236046"><ele>172.97</ele><time>2026-08-14T10:45:48Z</time></trkpt><trkpt lat="59.3653115071" lon="34.6331149712"><ele>173.37</ele><time>2026-08-14T10:46:21Z</time></trkpt><trkpt lat="59.3652879540" lon="34.6331285499"><ele>173.61</ele><time>2026-08-14T10:46:53Z</time></trkpt><trkpt lat="59.3652753811" lon="34.6331334114"><ele>173.55</ele><time>2026-08-14T10:47:24Z</time></trkpt><trkpt lat="59.3652693462" lon="34.6331053320"><ele>173.50</ele><time>2026-08-14T10:47:54Z</time></trkpt><trkpt lat="59.3652783148" lon="34.6331550367"><ele>171.80</ele><time>2026-08-14T10:48:25Z</time></trkpt><trkpt lat="59.3652544264" lon="34.6331064217"><ele>172.24</ele><time>2026-08-14T10:48:57Z</time></trkpt><trkpt lat="59.3652706873" lon="34.6331086010"><ele>172.05</ele><time>2026-08-14T10:49:31Z</time></trkpt><trkpt lat="59.3652568571" lon="34.6331338305"><ele>169.94</ele><time>2026-08-14T10:50:12Z</time></trkpt><trkpt lat="59.3652563542" lon="34.6331111155"><ele>168.58</ele><time>2026-08-14T10:50:43Z</time></trkpt><trkpt lat="59.3651742954" lon="34.6331142168"><ele>168.52</ele><time>2026-08-14T10:51:13Z</time></trkpt><trkpt lat="59.3652129360" lon="34.6331117023"><ele>167.36</ele><time>2026-08-14T10:51:43Z</time></trkpt><trkpt lat="59.3651839346" lon="34.6331324056"><ele>166.55</ele><time>2026-08-14T10:52:12Z</time></trkpt><trkpt lat="59.3652301189" lon="34.6331068408"><ele>165.51</ele><time>2026-08-14T10:52:41Z</time></trkpt><trkpt lat="59.3652264308" lon="34.6331264544"><ele>162.43</ele><time>2026-08-14T10:53:15Z</time></trkpt><trkpt lat="59.3652421888" lon="34.6331166476"><ele>162.51</ele><time>2026-08-14T10:53:41Z</time></trkpt><trkpt lat="59.3652393389" lon="34.6331179049"><ele>161.87</ele><time>2026-08-14T10:54:09Z</time></trkpt><trkpt lat="59.3652699329" lon="34.6330987941"><ele>162.55</ele><time>2026-08-14T10:54:45Z</time></trkpt><trkpt lat="59.3652976770" lon="34.6331139654"><ele>163.82</ele><time>2026-08-14T10:55:12Z</time></trkpt><trkpt lat="59.3653074838" lon="34.6331140492"><ele>163.93</ele><time>2026-08-14T10:55:40Z</time></trkpt><trkpt lat="59.3653457053" lon="34.6331170667"><ele>165.51</ele><time>2026-08-14T10:56:02Z</time></trkpt><trkpt lat="59.3653669115" lon="34.6330734808"><ele>165.68</ele><time>2026-08-14T10:56:09Z</time></trkpt><trkpt lat="59.3654342182" lon="34.6329778433"><ele>166.09</ele><time>2026-08-14T10:56:25Z</time></trkpt><trkpt lat="59.3655196298" lon="34.6328529529"><ele>166.18</ele><time>2026-08-14T10:56:42Z</time></trkpt><trkpt lat="59.3656284269" lon="34.6327334270"><ele>165.54</ele><time>2026-08-14T10:57:03Z</time></trkpt><trkpt lat="59.3656575959" lon="34.6327003185"><ele>165.35</ele><time>2026-08-14T10:57:07Z</time></trkpt><trkpt lat="59.3657281715" lon="34.6325258072"><ele>165.61</ele><time>2026-08-14T10:57:25Z</time></trkpt><trkpt lat="59.3657433428" lon="34.6324040182"><ele>164.84</ele><time>2026-08-14T10:57:39Z</time></trkpt><trkpt lat="59.3657795526" lon="34.6321724262"><ele>161.93</ele><time>2026-08-14T10:57:54Z</time></trkpt><trkpt lat="59.3657731824" lon="34.6318654809"><ele>160.39</ele><time>2026-08-14T10:58:11Z</time></trkpt><trkpt lat="59.3657671474" lon="34.6317540016"><ele>159.56</ele><time>2026-08-14T10:58:24Z</time></trkpt><trkpt lat="59.3657872640" lon="34.6313623991"><ele>160.39</ele><time>2026-08-14T10:58:47Z</time></trkpt><trkpt lat="59.3657773733" lon="34.6311764885"><ele>160.03</ele><time>2026-08-14T10:59:12Z</time></trkpt><trkpt lat="59.3658156786" lon="34.6309870575"><ele>159.97</ele><time>2026-08-14T10:59:32Z</time></trkpt><trkpt lat="59.3657907844" lon="34.6306887455"><ele>160.24</ele><time>2026-08-14T10:59:55Z</time></trkpt><trkpt lat="59.3658003397" lon="34.6306195110"><ele>159.93</ele><time>2026-08-14T11:00:01Z</time></trkpt><trkpt lat="59.3657316919" lon="34.6305448283"><ele>159.79</ele><time>2026-08-14T11:00:20Z</time></trkpt><trkpt lat="59.3656229787" lon="34.6304437425"><ele>159.28</ele><time>2026-08-14T11:00:38Z</time></trkpt><trkpt lat="59.3655032851" lon="34.6302956343"><ele>159.27</ele><time>2026-08-14T11:01:01Z</time></trkpt><trkpt lat="59.3655047100" lon="34.6301474422"><ele>160.27</ele><time>2026-08-14T11:01:20Z</time></trkpt><trkpt lat="59.3654666562" lon="34.6300827339"><ele>161.76</ele><time>2026-08-14T11:01:40Z</time></trkpt><trkpt lat="59.3653409276" lon="34.6298802271"><ele>162.38</ele><time>2026-08-14T11:02:07Z</time></trkpt><trkpt lat="59.3651930708" lon="34.6296636388"><ele>162.91</ele><time>2026-08-14T11:02:26Z</time></trkpt><trkpt lat="59.3650868721" lon="34.6295374073"><ele>163.27</ele><time>2026-08-14T11:02:44Z</time></trkpt><trkpt lat="59.3650143687" lon="34.6292908955"><ele>163.68</ele><time>2026-08-14T11:03:06Z</time></trkpt><trkpt lat="59.3649223354" lon="34.6291555278"><ele>164.43</ele><time>2026-08-14T11:03:22Z</time></trkpt><trkpt lat="59.3648563698" lon="34.6290152986"><ele>164.91</ele><time>2026-08-14T11:03:33Z</time></trkpt><trkpt lat="59.3648867961" lon="34.6288155578"><ele>164.82</ele><time>2026-08-14T11:03:51Z</time></trkpt><trkpt lat="59.3648860417" lon="34.6286998875"><ele>165.29</ele><time>2026-08-14T11:03:59Z</time></trkpt><trkpt lat="59.3648194894" lon="34.6284460835"><ele>166.21</ele><time>2026-08-14T11:04:21Z</time></trkpt><trkpt lat="59.3645893224" lon="34.6281558182"><ele>167.09</ele><time>2026-08-14T11:04:59Z</time></trkpt><trkpt lat="59.3643606640" lon="34.6280297544"><ele>166.88</ele><time>2026-08-14T11:05:21Z</time></trkpt><trkpt lat="59.3642443232" lon="34.6280676406"><ele>166.65</ele><time>2026-08-14T11:05:38Z</time></trkpt><trkpt lat="59.3641428184" lon="34.6281312592"><ele>166.80</ele><time>2026-08-14T11:06:00Z</time></trkpt><trkpt lat="59.3640330993" lon="34.6281565726"><ele>166.41</ele><time>2026-08-14T11:06:22Z</time></trkpt><trkpt lat="59.3640281539" lon="34.6281581651"><ele>166.32</ele><time>2026-08-14T11:06:23Z</time></trkpt><trkpt lat="59.3637864199" lon="34.6279896051"><ele>170.82</ele><time>2026-08-14T11:06:42Z</time></trkpt><trkpt lat="59.3636127468" lon="34.6278649662"><ele>171.56</ele><time>2026-08-14T11:07:02Z</time></trkpt><trkpt lat="59.3635156844" lon="34.6278606914"><ele>170.73</ele><time>2026-08-14T11:07:26Z</time></trkpt><trkpt lat="59.3634230644" lon="34.6277968213"><ele>170.13</ele><time>2026-08-14T11:07:46Z</time></trkpt><trkpt lat="59.3632847629" lon="34.6277487930"><ele>168.83</ele><time>2026-08-14T11:08:02Z</time></trkpt><trkpt lat="59.3630605470" lon="34.6277674846"><ele>169.18</ele><time>2026-08-14T11:08:23Z</time></trkpt><trkpt lat="59.3629527558" lon="34.6278246492"><ele>167.29</ele><time>2026-08-14T11:08:39Z</time></trkpt><trkpt lat="59.3628349062" lon="34.6279198676"><ele>167.86</ele><time>2026-08-14T11:09:01Z</time></trkpt><trkpt lat="59.3626968563" lon="34.6279315185"><ele>167.41</ele><time>2026-08-14T11:09:15Z</time></trkpt><trkpt lat="59.3626298010" lon="34.6280032676"><ele>167.20</ele><time>2026-08-14T11:09:39Z</time></trkpt><trkpt lat="59.3622739892" lon="34.6283372026"><ele>167.33</ele><time>2026-08-14T11:10:03Z</time></trkpt><trkpt lat="59.3620831333" lon="34.6284156572"><ele>167.98</ele><time>2026-08-14T11:10:22Z</time></trkpt><trkpt lat="59.3620060198" lon="34.6284237038"><ele>169.38</ele><time>2026-08-14T11:10:37Z</time></trkpt><trkpt lat="59.3618835602" lon="34.6284842212"><ele>169.51</ele><time>2026-08-14T11:10:51Z</time></trkpt><trkpt lat="59.3618340231" lon="34.6285575628"><ele>169.07</ele><time>2026-08-14T11:11:09Z</time></trkpt><trkpt lat="59.3618352804" lon="34.6286273841"><ele>168.70</ele><time>2026-08-14T11:11:28Z</time></trkpt><trkpt lat="59.3617383018" lon="34.6287331637"><ele>170.57</ele><time>2026-08-14T11:11:50Z</time></trkpt><trkpt lat="59.3617227115" lon="34.6288743149"><ele>171.39</ele><time>2026-08-14T11:12:15Z</time></trkpt><trkpt lat="59.3616167642" lon="34.6290660929"><ele>173.14</ele><time>2026-08-14T11:12:36Z</time></trkpt><trkpt lat="59.3615955580" lon="34.6290970221"><ele>172.56</ele><time>2026-08-14T11:12:42Z</time></trkpt><trkpt lat="59.3614980765" lon="34.6292459685"><ele>172.17</ele><time>2026-08-14T11:13:08Z</time></trkpt><trkpt lat="59.3613359705" lon="34.6293214057"><ele>172.28</ele><time>2026-08-14T11:13:29Z</time></trkpt><trkpt lat="59.3612130079" lon="34.6293441206"><ele>174.64</ele><time>2026-08-14T11:13:46Z</time></trkpt><trkpt lat="59.3611870240" lon="34.6293344814"><ele>175.08</ele><time>2026-08-14T11:14:01Z</time></trkpt><trkpt lat="59.3610980082" lon="34.6293934900"><ele>176.09</ele><time>2026-08-14T11:14:28Z</time></trkpt><trkpt lat="59.3610811606" lon="34.6295055561"><ele>176.28</ele><time>2026-08-14T11:14:51Z</time></trkpt><trkpt lat="59.3609813321" lon="34.6296263393"><ele>176.66</ele><time>2026-08-14T11:15:10Z</time></trkpt><trkpt lat="59.3609920610" lon="34.6297727711"><ele>176.22</ele><time>2026-08-14T11:15:28Z</time></trkpt><trkpt lat="59.3609183840" lon="34.6299352124"><ele>176.03</ele><time>2026-08-14T11:15:47Z</time></trkpt><trkpt lat="59.3608447909" lon="34.6300940495"><ele>176.51</ele><time>2026-08-14T11:16:10Z</time></trkpt><trkpt lat="59.3607963435" lon="34.6301903576"><ele>176.37</ele><time>2026-08-14T11:16:28Z</time></trkpt><trkpt lat="59.3607028853" lon="34.6302641183"><ele>176.82</ele><time>2026-08-14T11:16:51Z</time></trkpt><trkpt lat="59.3606639933" lon="34.6300602704"><ele>175.44</ele><time>2026-08-14T11:17:13Z</time></trkpt><trkpt lat="59.3606029730" lon="34.6298423409"><ele>171.77</ele><time>2026-08-14T11:17:35Z</time></trkpt><trkpt lat="59.3605193216" lon="34.6296698414"><ele>170.73</ele><time>2026-08-14T11:17:53Z</time></trkpt><trkpt lat="59.3603771646" lon="34.6295696776"><ele>170.45</ele><time>2026-08-14T11:18:08Z</time></trkpt><trkpt lat="59.3602077663" lon="34.6296422649"><ele>170.80</ele><time>2026-08-14T11:18:28Z</time></trkpt><trkpt lat="59.3601493444" lon="34.6298420895"><ele>168.50</ele><time>2026-08-14T11:18:47Z</time></trkpt><trkpt lat="59.3599984702" lon="34.6299799718"><ele>166.75</ele><time>2026-08-14T11:19:08Z</time></trkpt><trkpt lat="59.3599278107" lon="34.6301451791"><ele>164.21</ele><time>2026-08-14T11:19:22Z</time></trkpt><trkpt lat="59.3598142359" lon="34.6303281561"><ele>161.29</ele><time>2026-08-14T11:19:38Z</time></trkpt><trkpt lat="59.3597502820" lon="34.6303193551"><ele>159.56</ele><time>2026-08-14T11:20:02Z</time></trkpt><trkpt lat="59.3597526290" lon="34.6303496137"><ele>159.66</ele><time>2026-08-14T11:20:10Z</time></trkpt><trkpt lat="59.3597212806" lon="34.6305895876"><ele>161.51</ele><time>2026-08-14T11:20:40Z</time></trkpt><trkpt lat="59.3597864080" lon="34.6306692157"><ele>166.68</ele><time>2026-08-14T11:21:49Z</time></trkpt><trkpt lat="59.3597449176" lon="34.6305921860"><ele>170.75</ele><time>2026-08-14T11:22:57Z</time></trkpt><trkpt lat="59.3597344402" lon="34.6305064391"><ele>173.77</ele><time>2026-08-14T11:23:51Z</time></trkpt><trkpt lat="59.3597733323" lon="34.6306466684"><ele>175.58</ele><time>2026-08-14T11:24:24Z</time></trkpt><trkpt lat="59.3596827239" lon="34.6306662820"><ele>176.70</ele><time>2026-08-14T11:25:20Z</time></trkpt><trkpt lat="59.3595609348" lon="34.6307574771"><ele>175.63</ele><time>2026-08-14T11:25:38Z</time></trkpt><trkpt lat="59.3594117370" lon="34.6309007239"><ele>175.34</ele><time>2026-08-14T11:25:55Z</time></trkpt><trkpt lat="59.3592156004" lon="34.6309508476"><ele>172.73</ele><time>2026-08-14T11:26:21Z</time></trkpt><trkpt lat="59.3591011036" lon="34.6307552978"><ele>172.61</ele><time>2026-08-14T11:26:41Z</time></trkpt><trkpt lat="59.3590331264" lon="34.6305201016"><ele>172.23</ele><time>2026-08-14T11:27:01Z</time></trkpt><trkpt lat="59.3588291947" lon="34.6304425690"><ele>170.86</ele><time>2026-08-14T11:27:37Z</time></trkpt><trkpt lat="59.3586746324" lon="34.6302971430"><ele>171.39</ele><time>2026-08-14T11:27:45Z</time></trkpt><trkpt lat="59.3585699424" lon="34.6304306667"><ele>171.00</ele><time>2026-08-14T11:28:05Z</time></trkpt><trkpt lat="59.3585262727" lon="34.6304699779"><ele>170.58</ele><time>2026-08-14T11:28:14Z</time></trkpt><trkpt lat="59.3584885541" lon="34.6305602510"><ele>169.87</ele><time>2026-08-14T11:28:24Z</time></trkpt><trkpt lat="59.3582787551" lon="34.6306160744"><ele>169.87</ele><time>2026-08-14T11:28:55Z</time></trkpt><trkpt lat="59.3580086902" lon="34.6304071974"><ele>169.79</ele><time>2026-08-14T11:29:28Z</time></trkpt><trkpt lat="59.3580141384" lon="34.6302263159"><ele>170.07</ele><time>2026-08-14T11:29:49Z</time></trkpt><trkpt lat="59.3579640985" lon="34.6300539002"><ele>169.45</ele><time>2026-08-14T11:30:07Z</time></trkpt><trkpt lat="59.3578932714" lon="34.6298748627"><ele>169.22</ele><time>2026-08-14T11:30:29Z</time></trkpt><trkpt lat="59.3578190915" lon="34.6296988428"><ele>169.34</ele><time>2026-08-14T11:30:49Z</time></trkpt><trkpt lat="59.3577211909" lon="34.6294675022"><ele>168.44</ele><time>2026-08-14T11:31:11Z</time></trkpt><trkpt lat="59.3575640302" lon="34.6292546019"><ele>168.85</ele><time>2026-08-14T11:31:43Z</time></trkpt><trkpt lat="59.3574682251" lon="34.6291287057"><ele>167.75</ele><time>2026-08-14T11:32:07Z</time></trkpt><trkpt lat="59.3574315123" lon="34.6290861256"><ele>167.29</ele><time>2026-08-14T11:32:14Z</time></trkpt><trkpt lat="59.3573081307" lon="34.6290023066"><ele>166.60</ele><time>2026-08-14T11:32:39Z</time></trkpt><trkpt lat="59.3572150078" lon="34.6289824415"><ele>166.11</ele><time>2026-08-14T11:32:53Z</time></trkpt><trkpt lat="59.3571150955" lon="34.6289028972"><ele>165.81</ele><time>2026-08-14T11:33:13Z</time></trkpt><trkpt lat="59.3570091482" lon="34.6287833713"><ele>165.36</ele><time>2026-08-14T11:33:28Z</time></trkpt><trkpt lat="59.3569211382" lon="34.6286640130"><ele>167.09</ele><time>2026-08-14T11:33:42Z</time></trkpt><trkpt lat="59.3568748701" lon="34.6285464149"><ele>167.08</ele><time>2026-08-14T11:34:09Z</time></trkpt><trkpt lat="59.3568776362" lon="34.6283838060"><ele>167.01</ele><time>2026-08-14T11:34:28Z</time></trkpt><trkpt lat="59.3568808213" lon="34.6283713169"><ele>167.04</ele><time>2026-08-14T11:34:29Z</time></trkpt><trkpt lat="59.3567690067" lon="34.6280746814"><ele>167.11</ele><time>2026-08-14T11:34:53Z</time></trkpt><trkpt lat="59.3567868602" lon="34.6277117450"><ele>166.72</ele><time>2026-08-14T11:35:27Z</time></trkpt><trkpt lat="59.3565788213" lon="34.6273448691"><ele>166.96</ele><time>2026-08-14T11:35:51Z</time></trkpt><trkpt lat="59.3565633148" lon="34.6272725333"><ele>167.43</ele><time>2026-08-14T11:36:07Z</time></trkpt><trkpt lat="59.3564901408" lon="34.6269792505"><ele>167.53</ele><time>2026-08-14T11:36:35Z</time></trkpt><trkpt lat="59.3563566171" lon="34.6268904023"><ele>170.44</ele><time>2026-08-14T11:37:04Z</time></trkpt><trkpt lat="59.3563779909" lon="34.6266937628"><ele>171.13</ele><time>2026-08-14T11:37:37Z</time></trkpt><trkpt lat="59.3564318027" lon="34.6264842991"><ele>171.60</ele><time>2026-08-14T11:37:58Z</time></trkpt><trkpt lat="59.3565101735" lon="34.6263790224"><ele>171.46</ele><time>2026-08-14T11:38:08Z</time></trkpt><trkpt lat="59.3566256762" lon="34.6262548864"><ele>171.47</ele><time>2026-08-14T11:38:25Z</time></trkpt><trkpt lat="59.3566814996" lon="34.6260513738"><ele>170.71</ele><time>2026-08-14T11:38:37Z</time></trkpt><trkpt lat="59.3566851038" lon="34.6260350291"><ele>170.58</ele><time>2026-08-14T11:38:39Z</time></trkpt><trkpt lat="59.3566877861" lon="34.6258103941"><ele>170.43</ele><time>2026-08-14T11:39:09Z</time></trkpt><trkpt lat="59.3566534203" lon="34.6256568376"><ele>170.38</ele><time>2026-08-14T11:39:21Z</time></trkpt><trkpt lat="59.3565840181" lon="34.6251487266"><ele>170.68</ele><time>2026-08-14T11:40:12Z</time></trkpt><trkpt lat="59.3566405959" lon="34.6249462198"><ele>171.44</ele><time>2026-08-14T11:40:31Z</time></trkpt><trkpt lat="59.3566923961" lon="34.6247830242"><ele>170.65</ele><time>2026-08-14T11:40:51Z</time></trkpt><trkpt lat="59.3567384128" lon="34.6245945152"><ele>170.58</ele><time>2026-08-14T11:41:00Z</time></trkpt><trkpt lat="59.3567348924" lon="34.6245137136"><ele>171.13</ele><time>2026-08-14T11:41:03Z</time></trkpt><trkpt lat="59.3567420170" lon="34.6242495999"><ele>171.44</ele><time>2026-08-14T11:41:27Z</time></trkpt><trkpt lat="59.3567622174" lon="34.6241143998"><ele>170.42</ele><time>2026-08-14T11:41:44Z</time></trkpt><trkpt lat="59.3567561824" lon="34.6238279063"><ele>170.16</ele><time>2026-08-14T11:42:07Z</time></trkpt><trkpt lat="59.3567011133" lon="34.6236627828"><ele>171.21</ele><time>2026-08-14T11:42:16Z</time></trkpt><trkpt lat="59.3564891350" lon="34.6236143354"><ele>173.01</ele><time>2026-08-14T11:42:40Z</time></trkpt><trkpt lat="59.3564326409" lon="34.6234479547"><ele>171.89</ele><time>2026-08-14T11:42:58Z</time></trkpt><trkpt lat="59.3564078305" lon="34.6231355611"><ele>170.16</ele><time>2026-08-14T11:43:19Z</time></trkpt><trkpt lat="59.3564927392" lon="34.6229903027"><ele>167.55</ele><time>2026-08-14T11:43:38Z</time></trkpt><trkpt lat="59.3565767258" lon="34.6227904782"><ele>163.70</ele><time>2026-08-14T11:43:57Z</time></trkpt><trkpt lat="59.3565716129" lon="34.6225062478"><ele>160.80</ele><time>2026-08-14T11:44:17Z</time></trkpt><trkpt lat="59.3565519154" lon="34.6221872326"><ele>159.78</ele><time>2026-08-14T11:44:37Z</time></trkpt><trkpt lat="59.3564968463" lon="34.6219570655"><ele>161.86</ele><time>2026-08-14T11:44:57Z</time></trkpt><trkpt lat="59.3562973570" lon="34.6220120508"><ele>165.07</ele><time>2026-08-14T11:45:22Z</time></trkpt><trkpt lat="59.3561845366" lon="34.6220134757"><ele>164.19</ele><time>2026-08-14T11:45:39Z</time></trkpt><trkpt lat="59.3560126238" lon="34.6218245476"><ele>164.25</ele><time>2026-08-14T11:46:02Z</time></trkpt><trkpt lat="59.3560023978" lon="34.6217778604"><ele>163.33</ele><time>2026-08-14T11:46:14Z</time></trkpt><trkpt lat="59.3557446543" lon="34.6215367969"><ele>166.31</ele><time>2026-08-14T11:46:37Z</time></trkpt><trkpt lat="59.3556345999" lon="34.6214466076"><ele>167.82</ele><time>2026-08-14T11:46:59Z</time></trkpt><trkpt lat="59.3555554748" lon="34.6212122496"><ele>167.61</ele><time>2026-08-14T11:47:22Z</time></trkpt><trkpt lat="59.3554722425" lon="34.6211233176"><ele>167.32</ele><time>2026-08-14T11:47:33Z</time></trkpt><trkpt lat="59.3553801253" lon="34.6210651472"><ele>168.98</ele><time>2026-08-14T11:47:58Z</time></trkpt><trkpt lat="59.3553464301" lon="34.6210806537"><ele>172.79</ele><time>2026-08-14T11:48:21Z</time></trkpt><trkpt lat="59.3553631101" lon="34.6208040509"><ele>174.68</ele><time>2026-08-14T11:48:48Z</time></trkpt><trkpt lat="59.3552677240" lon="34.6204645839"><ele>173.22</ele><time>2026-08-14T11:49:10Z</time></trkpt><trkpt lat="59.3552139122" lon="34.6201641764"><ele>171.03</ele><time>2026-08-14T11:49:31Z</time></trkpt><trkpt lat="59.3551575858" lon="34.6199952811"><ele>168.64</ele><time>2026-08-14T11:49:48Z</time></trkpt><trkpt lat="59.3551331945" lon="34.6198480949"><ele>166.53</ele><time>2026-08-14T11:50:03Z</time></trkpt><trkpt lat="59.3550951406" lon="34.6197572351"><ele>165.47</ele><time>2026-08-14T11:50:08Z</time></trkpt><trkpt lat="59.3549803924" lon="34.6195015032"><ele>162.44</ele><time>2026-08-14T11:50:23Z</time></trkpt><trkpt lat="59.3548540771" lon="34.6193123236"><ele>160.23</ele><time>2026-08-14T11:50:38Z</time></trkpt><trkpt lat="59.3547695875" lon="34.6192084718"><ele>159.63</ele><time>2026-08-14T11:50:51Z</time></trkpt><trkpt lat="59.3547497224" lon="34.6191911213"><ele>160.50</ele><time>2026-08-14T11:50:57Z</time></trkpt><trkpt lat="59.3547282647" lon="34.6192396525"><ele>161.37</ele><time>2026-08-14T11:51:27Z</time></trkpt><trkpt lat="59.3547353055" lon="34.6191819012"><ele>163.08</ele><time>2026-08-14T11:51:56Z</time></trkpt><trkpt lat="59.3547351379" lon="34.6192039456"><ele>166.25</ele><time>2026-08-14T11:52:27Z</time></trkpt><trkpt lat="59.3547351379" lon="34.6192093100"><ele>167.90</ele><time>2026-08-14T11:52:55Z</time></trkpt><trkpt lat="59.3547179550" lon="34.6192110702"><ele>170.06</ele><time>2026-08-14T11:53:26Z</time></trkpt><trkpt lat="59.3547234870" lon="34.6191819012"><ele>172.01</ele><time>2026-08-14T11:53:57Z</time></trkpt><trkpt lat="59.3547489680" lon="34.6191898640"><ele>172.04</ele><time>2026-08-14T11:54:21Z</time></trkpt><trkpt lat="59.3547342997" lon="34.6192165185"><ele>172.50</ele><time>2026-08-14T11:54:44Z</time></trkpt><trkpt lat="59.3547064718" lon="34.6191405784"><ele>172.02</ele><time>2026-08-14T11:55:22Z</time></trkpt><trkpt lat="59.3547022808" lon="34.6191817336"><ele>172.19</ele><time>2026-08-14T11:56:16Z</time></trkpt><trkpt lat="59.3547420111" lon="34.6191820689"><ele>172.74</ele><time>2026-08-14T11:56:49Z</time></trkpt><trkpt lat="59.3547500577" lon="34.6191482898"><ele>173.00</ele><time>2026-08-14T11:57:21Z</time></trkpt><trkpt lat="59.3547229003" lon="34.6191568393"><ele>173.48</ele><time>2026-08-14T11:57:50Z</time></trkpt><trkpt lat="59.3547349703" lon="34.6191557497"><ele>174.24</ele><time>2026-08-14T11:58:19Z</time></trkpt><trkpt lat="59.3547498900" lon="34.6191205457"><ele>174.09</ele><time>2026-08-14T11:58:51Z</time></trkpt><trkpt lat="59.3547004368" lon="34.6191742737"><ele>172.40</ele><time>2026-08-14T11:59:48Z</time></trkpt><trkpt lat="59.3547461182" lon="34.6191425063"><ele>172.47</ele><time>2026-08-14T12:00:24Z</time></trkpt><trkpt lat="59.3547606189" lon="34.6191570070"><ele>172.51</ele><time>2026-08-14T12:00:52Z</time></trkpt><trkpt lat="59.3547697552" lon="34.6191358846"><ele>171.90</ele><time>2026-08-14T12:01:31Z</time></trkpt><trkpt lat="59.3547373172" lon="34.6191684902"><ele>172.08</ele><time>2026-08-14T12:02:11Z</time></trkpt><trkpt lat="59.3546989281" lon="34.6191746928"><ele>172.53</ele><time>2026-08-14T12:02:47Z</time></trkpt><trkpt lat="59.3547349703" lon="34.6191849187"><ele>172.44</ele><time>2026-08-14T12:03:17Z</time></trkpt><trkpt lat="59.3547465373" lon="34.6191629581"><ele>172.79</ele><time>2026-08-14T12:04:00Z</time></trkpt><trkpt lat="59.3547329586" lon="34.6191596892"><ele>173.11</ele><time>2026-08-14T12:04:28Z</time></trkpt><trkpt lat="59.3547153566" lon="34.6191883553"><ele>172.84</ele><time>2026-08-14T12:05:07Z</time></trkpt><trkpt lat="59.3547213078" lon="34.6191786323"><ele>173.38</ele><time>2026-08-14T12:05:49Z</time></trkpt><trkpt lat="59.3546928931" lon="34.6191543248"><ele>173.07</ele><time>2026-08-14T12:06:16Z</time></trkpt><trkpt lat="59.3547478784" lon="34.6191353817"><ele>172.69</ele><time>2026-08-14T12:06:49Z</time></trkpt><trkpt lat="59.3547567632" lon="34.6191105712"><ele>172.14</ele><time>2026-08-14T12:07:18Z</time></trkpt><trkpt lat="59.3547461182" lon="34.6191345435"><ele>173.22</ele><time>2026-08-14T12:07:48Z</time></trkpt><trkpt lat="59.3547739461" lon="34.6190986689"><ele>173.13</ele><time>2026-08-14T12:08:15Z</time></trkpt><trkpt lat="59.3547362275" lon="34.6191778779"><ele>173.36</ele><time>2026-08-14T12:08:44Z</time></trkpt><trkpt lat="59.3547467049" lon="34.6191096492"><ele>173.60</ele><time>2026-08-14T12:09:19Z</time></trkpt><trkpt lat="59.3547873572" lon="34.6191435959"><ele>174.20</ele><time>2026-08-14T12:09:43Z</time></trkpt><trkpt lat="59.3547516502" lon="34.6190384030"><ele>173.94</ele><time>2026-08-14T12:10:23Z</time></trkpt><trkpt lat="59.3547678273" lon="34.6191057097"><ele>173.01</ele><time>2026-08-14T12:11:03Z</time></trkpt><trkpt lat="59.3547394965" lon="34.6191842481"><ele>172.55</ele><time>2026-08-14T12:11:49Z</time></trkpt><trkpt lat="59.3547240738" lon="34.6191883553"><ele>173.27</ele><time>2026-08-14T12:12:23Z</time></trkpt><trkpt lat="59.3546925578" lon="34.6192328632"><ele>172.29</ele><time>2026-08-14T12:12:56Z</time></trkpt><trkpt lat="59.3547596131" lon="34.6191150136"><ele>172.79</ele><time>2026-08-14T12:13:51Z</time></trkpt><trkpt lat="59.3547460344" lon="34.6191783808"><ele>171.85</ele><time>2026-08-14T12:14:23Z</time></trkpt><trkpt lat="59.3547334615" lon="34.6191744413"><ele>172.18</ele><time>2026-08-14T12:14:54Z</time></trkpt><trkpt lat="59.3547242414" lon="34.6191681549"><ele>172.60</ele><time>2026-08-14T12:15:27Z</time></trkpt><trkpt lat="59.3547193799" lon="34.6191972401"><ele>172.74</ele><time>2026-08-14T12:16:12Z</time></trkpt><trkpt lat="59.3547249120" lon="34.6191750281"><ele>173.31</ele><time>2026-08-14T12:16:49Z</time></trkpt><trkpt lat="59.3547168653" lon="34.6191788837"><ele>172.84</ele><time>2026-08-14T12:17:19Z</time></trkpt><trkpt lat="59.3547108304" lon="34.6191762853"><ele>172.32</ele><time>2026-08-14T12:17:47Z</time></trkpt><trkpt lat="59.3547640555" lon="34.6191100683"><ele>172.38</ele><time>2026-08-14T12:18:10Z</time></trkpt><trkpt lat="59.3547405861" lon="34.6191114094"><ele>172.14</ele><time>2026-08-14T12:18:38Z</time></trkpt><trkpt lat="59.3547487166" lon="34.6191587672"><ele>172.71</ele><time>2026-08-14T12:19:09Z</time></trkpt><trkpt lat="59.3547582719" lon="34.6191679873"><ele>172.11</ele><time>2026-08-14T12:19:27Z</time></trkpt><trkpt lat="59.3547612894" lon="34.6191523969"><ele>172.09</ele><time>2026-08-14T12:19:58Z</time></trkpt><trkpt lat="59.3548372295" lon="34.6190949809"><ele>172.18</ele><time>2026-08-14T12:20:29Z</time></trkpt><trkpt lat="59.3547966611" lon="34.6191472840"><ele>171.31</ele><time>2026-08-14T12:20:59Z</time></trkpt><trkpt lat="59.3547926378" lon="34.6191721782"><ele>172.77</ele><time>2026-08-14T12:21:56Z</time></trkpt><trkpt lat="59.3547780532" lon="34.6191636287"><ele>174.37</ele><time>2026-08-14T12:22:24Z</time></trkpt><trkpt lat="59.3547866028" lon="34.6191843320"><ele>176.41</ele><time>2026-08-14T12:22:50Z</time></trkpt><trkpt lat="59.3547439389" lon="34.6192277502"><ele>176.88</ele><time>2026-08-14T12:23:15Z</time></trkpt><trkpt lat="59.3547565956" lon="34.6192232240"><ele>175.70</ele><time>2026-08-14T12:23:55Z</time></trkpt><trkpt lat="59.3547793943" lon="34.6191478707"><ele>174.77</ele><time>2026-08-14T12:24:25Z</time></trkpt><trkpt lat="59.3547832500" lon="34.6191864274"><ele>173.48</ele><time>2026-08-14T12:24:51Z</time></trkpt><trkpt lat="59.3547791429" lon="34.6191586833"><ele>172.59</ele><time>2026-08-14T12:25:16Z</time></trkpt><trkpt lat="59.3547599483" lon="34.6191599406"><ele>172.15</ele><time>2026-08-14T12:25:40Z</time></trkpt><trkpt lat="59.3547355570" lon="34.6192067955"><ele>172.58</ele><time>2026-08-14T12:26:13Z</time></trkpt><trkpt lat="59.3547083158" lon="34.6192357130"><ele>173.26</ele><time>2026-08-14T12:26:37Z</time></trkpt><trkpt lat="59.3547223136" lon="34.6191860083"><ele>172.55</ele><time>2026-08-14T12:27:00Z</time></trkpt><trkpt lat="59.3548182864" lon="34.6192457713"><ele>170.85</ele><time>2026-08-14T12:27:23Z</time></trkpt><trkpt lat="59.3549341243" lon="34.6193774510"><ele>168.98</ele><time>2026-08-14T12:27:40Z</time></trkpt><trkpt lat="59.3549582642" lon="34.6194028482"><ele>168.51</ele><time>2026-08-14T12:27:42Z</time></trkpt><trkpt lat="59.3550214637" lon="34.6194771957"><ele>167.73</ele><time>2026-08-14T12:27:46Z</time></trkpt><trkpt lat="59.3551114853" lon="34.6197654493"><ele>165.37</ele><time>2026-08-14T12:27:56Z</time></trkpt><trkpt lat="59.3551222142" lon="34.6199472528"><ele>160.75</ele><time>2026-08-14T12:28:09Z</time></trkpt><trkpt lat="59.3551239744" lon="34.6201569680"><ele>160.71</ele><time>2026-08-14T12:28:24Z</time></trkpt><trkpt lat="59.3551359605" lon="34.6201678645"><ele>160.71</ele><time>2026-08-14T12:28:27Z</time></trkpt><trkpt lat="59.3551954720" lon="34.6201803535"><ele>164.29</ele><time>2026-08-14T12:28:57Z</time></trkpt><trkpt lat="59.3552222941" lon="34.6202575509"><ele>166.27</ele><time>2026-08-14T12:29:23Z</time></trkpt><trkpt lat="59.3552436680" lon="34.6202277951"><ele>168.53</ele><time>2026-08-14T12:29:48Z</time></trkpt><trkpt lat="59.3552145828" lon="34.6202553716"><ele>169.14</ele><time>2026-08-14T12:30:22Z</time></trkpt><trkpt lat="59.3552841526" lon="34.6203201637"><ele>169.64</ele><time>2026-08-14T12:30:39Z</time></trkpt><trkpt lat="59.3553423230" lon="34.6207804140"><ele>168.54</ele><time>2026-08-14T12:30:56Z</time></trkpt><trkpt lat="59.3553394731" lon="34.6208135225"><ele>168.42</ele><time>2026-08-14T12:30:57Z</time></trkpt><trkpt lat="59.3552880082" lon="34.6211306099"><ele>167.01</ele><time>2026-08-14T12:31:06Z</time></trkpt><trkpt lat="59.3552806322" lon="34.6211705077"><ele>166.89</ele><time>2026-08-14T12:31:08Z</time></trkpt><trkpt lat="59.3552605994" lon="34.6212021075"><ele>166.58</ele><time>2026-08-14T12:31:10Z</time></trkpt><trkpt lat="59.3552108109" lon="34.6213055402"><ele>165.53</ele><time>2026-08-14T12:31:14Z</time></trkpt><trkpt lat="59.3551886827" lon="34.6213804744"><ele>165.05</ele><time>2026-08-14T12:31:17Z</time></trkpt><trkpt lat="59.3550539017" lon="34.6215302590"><ele>160.17</ele><time>2026-08-14T12:31:32Z</time></trkpt><trkpt lat="59.3550114892" lon="34.6216139942"><ele>158.91</ele><time>2026-08-14T12:31:50Z</time></trkpt><trkpt lat="59.3549498823" lon="34.6216616035"><ele>160.55</ele><time>2026-08-14T12:32:11Z</time></trkpt><trkpt lat="59.3549055420" lon="34.6217372082"><ele>162.21</ele><time>2026-08-14T12:32:34Z</time></trkpt><trkpt lat="59.3548912089" lon="34.6216735896"><ele>162.65</ele><time>2026-08-14T12:32:59Z</time></trkpt><trkpt lat="59.3549305201" lon="34.6217148285"><ele>162.95</ele><time>2026-08-14T12:33:20Z</time></trkpt><trkpt lat="59.3549897801" lon="34.6217207797"><ele>163.55</ele><time>2026-08-14T12:33:41Z</time></trkpt><trkpt lat="59.3549756147" lon="34.6217046864"><ele>163.78</ele><time>2026-08-14T12:34:08Z</time></trkpt><trkpt lat="59.3548430968" lon="34.6217342746"><ele>163.53</ele><time>2026-08-14T12:34:20Z</time></trkpt><trkpt lat="59.3546168692" lon="34.6217859071"><ele>162.67</ele><time>2026-08-14T12:34:38Z</time></trkpt><trkpt lat="59.3545009475" lon="34.6218221169"><ele>163.49</ele><time>2026-08-14T12:34:56Z</time></trkpt><trkpt lat="59.3544377480" lon="34.6219255496"><ele>163.95</ele><time>2026-08-14T12:35:15Z</time></trkpt><trkpt lat="59.3544234149" lon="34.6218621824"><ele>164.78</ele><time>2026-08-14T12:35:40Z</time></trkpt><trkpt lat="59.3543834332" lon="34.6218845621"><ele>165.95</ele><time>2026-08-14T12:36:04Z</time></trkpt><trkpt lat="59.3543547671" lon="34.6218999848"><ele>166.02</ele><time>2026-08-14T12:36:18Z</time></trkpt><trkpt lat="59.3544104230" lon="34.6218776889"><ele>165.26</ele><time>2026-08-14T12:36:32Z</time></trkpt><trkpt lat="59.3543551862" lon="34.6218976378"><ele>163.96</ele><time>2026-08-14T12:36:50Z</time></trkpt><trkpt lat="59.3542415276" lon="34.6221175790"><ele>163.46</ele><time>2026-08-14T12:37:07Z</time></trkpt><trkpt lat="59.3541788310" lon="34.6222566348"><ele>162.10</ele><time>2026-08-14T12:37:16Z</time></trkpt><trkpt lat="59.3540805951" lon="34.6224489156"><ele>161.86</ele><time>2026-08-14T12:37:39Z</time></trkpt><trkpt lat="59.3541008793" lon="34.6223592293"><ele>164.72</ele><time>2026-08-14T12:38:06Z</time></trkpt><trkpt lat="59.3540886417" lon="34.6223422140"><ele>166.44</ele><time>2026-08-14T12:38:32Z</time></trkpt><trkpt lat="59.3540918268" lon="34.6223954391"><ele>166.65</ele><time>2026-08-14T12:38:55Z</time></trkpt><trkpt lat="59.3540235981" lon="34.6225806791"><ele>166.36</ele><time>2026-08-14T12:39:17Z</time></trkpt><trkpt lat="59.3539505918" lon="34.6228478104"><ele>165.44</ele><time>2026-08-14T12:39:34Z</time></trkpt><trkpt lat="59.3538416270" lon="34.6230910532"><ele>165.25</ele><time>2026-08-14T12:39:52Z</time></trkpt><trkpt lat="59.3537576403" lon="34.6235080529"><ele>163.60</ele><time>2026-08-14T12:40:15Z</time></trkpt><trkpt lat="59.3536581472" lon="34.6236940473"><ele>162.14</ele><time>2026-08-14T12:40:35Z</time></trkpt><trkpt lat="59.3536340073" lon="34.6236943826"><ele>161.54</ele><time>2026-08-14T12:41:00Z</time></trkpt><trkpt lat="59.3536236137" lon="34.6237398963"><ele>163.12</ele><time>2026-08-14T12:41:29Z</time></trkpt><trkpt lat="59.3536113761" lon="34.6238173451"><ele>163.88</ele><time>2026-08-14T12:41:52Z</time></trkpt><trkpt lat="59.3535684608" lon="34.6239460912"><ele>164.93</ele><time>2026-08-14T12:42:11Z</time></trkpt><trkpt lat="59.3535648566" lon="34.6239920240"><ele>166.62</ele><time>2026-08-14T12:42:34Z</time></trkpt><trkpt lat="59.3535384536" lon="34.6239637770"><ele>166.49</ele><time>2026-08-14T12:42:56Z</time></trkpt><trkpt lat="59.3535425607" lon="34.6239864919"><ele>166.68</ele><time>2026-08-14T12:43:13Z</time></trkpt><trkpt lat="59.3535818718" lon="34.6238642000"><ele>167.77</ele><time>2026-08-14T12:43:37Z</time></trkpt><trkpt lat="59.3536400422" lon="34.6237814706"><ele>168.44</ele><time>2026-08-14T12:44:01Z</time></trkpt><trkpt lat="59.3536588177" lon="34.6237455122"><ele>168.01</ele><time>2026-08-14T12:44:31Z</time></trkpt><trkpt lat="59.3536869809" lon="34.6238240507"><ele>168.23</ele><time>2026-08-14T12:45:03Z</time></trkpt><trkpt lat="59.3537241966" lon="34.6237797104"><ele>168.98</ele><time>2026-08-14T12:45:15Z</time></trkpt><trkpt lat="59.3536888249" lon="34.6237498708"><ele>169.90</ele><time>2026-08-14T12:45:42Z</time></trkpt><trkpt lat="59.3536571413" lon="34.6237984858"><ele>169.39</ele><time>2026-08-14T12:46:08Z</time></trkpt><trkpt lat="59.3535454944" lon="34.6240546368"><ele>168.50</ele><time>2026-08-14T12:46:33Z</time></trkpt><trkpt lat="59.3534627650" lon="34.6242738236"><ele>168.29</ele><time>2026-08-14T12:46:41Z</time></trkpt><trkpt lat="59.3534438219" lon="34.6243608277"><ele>167.93</ele><time>2026-08-14T12:46:45Z</time></trkpt><trkpt lat="59.3533920217" lon="34.6245127916"><ele>166.41</ele><time>2026-08-14T12:46:53Z</time></trkpt><trkpt lat="59.3533672951" lon="34.6246606484"><ele>165.36</ele><time>2026-08-14T12:47:11Z</time></trkpt><trkpt lat="59.3533542193" lon="34.6246930026"><ele>165.34</ele><time>2026-08-14T12:47:29Z</time></trkpt><trkpt lat="59.3532933667" lon="34.6248102654"><ele>166.04</ele><time>2026-08-14T12:47:50Z</time></trkpt><trkpt lat="59.3533215299" lon="34.6247447189"><ele>166.05</ele><time>2026-08-14T12:48:11Z</time></trkpt><trkpt lat="59.3533718213" lon="34.6246593911"><ele>166.51</ele><time>2026-08-14T12:48:40Z</time></trkpt><trkpt lat="59.3533652835" lon="34.6247625723"><ele>166.58</ele><time>2026-08-14T12:48:53Z</time></trkpt><trkpt lat="59.3533330970" lon="34.6250386722"><ele>166.15</ele><time>2026-08-14T12:49:07Z</time></trkpt><trkpt lat="59.3533051014" lon="34.6252259240"><ele>165.89</ele><time>2026-08-14T12:49:24Z</time></trkpt><trkpt lat="59.3533355277" lon="34.6253959928"><ele>165.35</ele><time>2026-08-14T12:49:45Z</time></trkpt><trkpt lat="59.3533535488" lon="34.6255444363"><ele>164.76</ele><time>2026-08-14T12:50:09Z</time></trkpt><trkpt lat="59.3533619307" lon="34.6253753733"><ele>165.25</ele><time>2026-08-14T12:50:28Z</time></trkpt><trkpt lat="59.3533046823" lon="34.6252802387"><ele>164.40</ele><time>2026-08-14T12:50:45Z</time></trkpt><trkpt lat="59.3532533012" lon="34.6253129281"><ele>164.67</ele><time>2026-08-14T12:51:04Z</time></trkpt><trkpt lat="59.3532406446" lon="34.6254633833"><ele>165.45</ele><time>2026-08-14T12:51:28Z</time></trkpt><trkpt lat="59.3531959690" lon="34.6256896947"><ele>165.93</ele><time>2026-08-14T12:51:43Z</time></trkpt><trkpt lat="59.3531450070" lon="34.6258879267"><ele>166.48</ele><time>2026-08-14T12:52:01Z</time></trkpt><trkpt lat="59.3531781994" lon="34.6259956341"><ele>166.00</ele><time>2026-08-14T12:52:17Z</time></trkpt><trkpt lat="59.3531719968" lon="34.6261568181"><ele>166.47</ele><time>2026-08-14T12:52:33Z</time></trkpt><trkpt lat="59.3531603459" lon="34.6262973826"><ele>166.64</ele><time>2026-08-14T12:52:54Z</time></trkpt><trkpt lat="59.3532011658" lon="34.6263891645"><ele>166.55</ele><time>2026-08-14T12:53:09Z</time></trkpt><trkpt lat="59.3532179296" lon="34.6262631007"><ele>167.40</ele><time>2026-08-14T12:53:29Z</time></trkpt><trkpt lat="59.3532644492" lon="34.6260483563"><ele>167.84</ele><time>2026-08-14T12:53:45Z</time></trkpt><trkpt lat="59.3532684725" lon="34.6258754376"><ele>168.24</ele><time>2026-08-14T12:54:00Z</time></trkpt><trkpt lat="59.3532658741" lon="34.6257101465"><ele>168.10</ele><time>2026-08-14T12:54:16Z</time></trkpt><trkpt lat="59.3533039279" lon="34.6256134193"><ele>167.83</ele><time>2026-08-14T12:54:39Z</time></trkpt><trkpt lat="59.3533126451" lon="34.6255864296"><ele>167.81</ele><time>2026-08-14T12:54:41Z</time></trkpt><trkpt lat="59.3533093762" lon="34.6254689153"><ele>167.95</ele><time>2026-08-14T12:54:49Z</time></trkpt><trkpt lat="59.3533663731" lon="34.6253102459"><ele>167.67</ele><time>2026-08-14T12:55:02Z</time></trkpt><trkpt lat="59.3533917703" lon="34.6252416819"><ele>167.26</ele><time>2026-08-14T12:55:08Z</time></trkpt><trkpt lat="59.3534792773" lon="34.6251396742"><ele>165.99</ele><time>2026-08-14T12:55:22Z</time></trkpt><trkpt lat="59.3535761721" lon="34.6251103375"><ele>165.52</ele><time>2026-08-14T12:55:35Z</time></trkpt><trkpt lat="59.3536011502" lon="34.6251284424"><ele>165.64</ele><time>2026-08-14T12:55:44Z</time></trkpt><trkpt lat="59.3535492662" lon="34.6251176298"><ele>165.01</ele><time>2026-08-14T12:56:08Z</time></trkpt><trkpt lat="59.3535151519" lon="34.6251274366"><ele>165.38</ele><time>2026-08-14T12:56:13Z</time></trkpt><trkpt lat="59.3533946201" lon="34.6251490619"><ele>165.21</ele><time>2026-08-14T12:56:28Z</time></trkpt><trkpt lat="59.3533037603" lon="34.6252364852"><ele>163.04</ele><time>2026-08-14T12:57:01Z</time></trkpt><trkpt lat="59.3532766029" lon="34.6252568532"><ele>161.82</ele><time>2026-08-14T12:57:25Z</time></trkpt><trkpt lat="59.3532555643" lon="34.6253221482"><ele>162.39</ele><time>2026-08-14T12:57:57Z</time></trkpt><trkpt lat="59.3533013295" lon="34.6252703480"><ele>164.04</ele><time>2026-08-14T12:58:33Z</time></trkpt><trkpt lat="59.3533128966" lon="34.6252161171"><ele>166.99</ele><time>2026-08-14T12:59:02Z</time></trkpt><trkpt lat="59.3532953784" lon="34.6252223197"><ele>167.61</ele><time>2026-08-14T12:59:31Z</time></trkpt><trkpt lat="59.3533158302" lon="34.6252026223"><ele>169.55</ele><time>2026-08-14T13:00:01Z</time></trkpt><trkpt lat="59.3532924447" lon="34.6252291091"><ele>169.20</ele><time>2026-08-14T13:00:32Z</time></trkpt><trkpt lat="59.3532957137" lon="34.6251922287"><ele>167.82</ele><time>2026-08-14T13:01:03Z</time></trkpt><trkpt lat="59.3533460889" lon="34.6252272651"><ele>170.17</ele><time>2026-08-14T13:01:32Z</time></trkpt><trkpt lat="59.3533491064" lon="34.6252299473"><ele>171.47</ele><time>2026-08-14T13:02:01Z</time></trkpt><trkpt lat="59.3533537164" lon="34.6252442803"><ele>170.90</ele><time>2026-08-14T13:02:29Z</time></trkpt><trkpt lat="59.3533679657" lon="34.6252249181"><ele>171.55</ele><time>2026-08-14T13:02:57Z</time></trkpt><trkpt lat="59.3533716537" lon="34.6252029575"><ele>171.75</ele><time>2026-08-14T13:03:14Z</time></trkpt><trkpt lat="59.3533657864" lon="34.6250079945"><ele>171.84</ele><time>2026-08-14T13:03:37Z</time></trkpt><trkpt lat="59.3533835560" lon="34.6249087527"><ele>172.37</ele><time>2026-08-14T13:03:51Z</time></trkpt><trkpt lat="59.3534505274" lon="34.6246626601"><ele>172.43</ele><time>2026-08-14T13:04:01Z</time></trkpt><trkpt lat="59.3535540439" lon="34.6242177486"><ele>170.58</ele><time>2026-08-14T13:04:14Z</time></trkpt><trkpt lat="59.3535636831" lon="34.6241760906"><ele>170.31</ele><time>2026-08-14T13:04:19Z</time></trkpt><trkpt lat="59.3535673711" lon="34.6241242066"><ele>172.59</ele><time>2026-08-14T13:04:38Z</time></trkpt><trkpt lat="59.3535734061" lon="34.6241001505"><ele>173.24</ele><time>2026-08-14T13:05:06Z</time></trkpt><trkpt lat="59.3535796925" lon="34.6240665391"><ele>174.20</ele><time>2026-08-14T13:05:34Z</time></trkpt><trkpt lat="59.3536331691" lon="34.6238402277"><ele>173.75</ele><time>2026-08-14T13:05:54Z</time></trkpt><trkpt lat="59.3537362665" lon="34.6236344520"><ele>172.73</ele><time>2026-08-14T13:06:14Z</time></trkpt><trkpt lat="59.3537493423" lon="34.6236012597"><ele>172.43</ele><time>2026-08-14T13:06:36Z</time></trkpt><trkpt lat="59.3537840433" lon="34.6235192847"><ele>172.60</ele><time>2026-08-14T13:06:57Z</time></trkpt><trkpt lat="59.3538670242" lon="34.6233225614"><ele>172.54</ele><time>2026-08-14T13:07:18Z</time></trkpt><trkpt lat="59.3539375160" lon="34.6230420191"><ele>171.91</ele><time>2026-08-14T13:07:30Z</time></trkpt><trkpt lat="59.3539923336" lon="34.6227993630"><ele>170.33</ele><time>2026-08-14T13:07:43Z</time></trkpt><trkpt lat="59.3541101832" lon="34.6225194912"><ele>168.18</ele><time>2026-08-14T13:07:55Z</time></trkpt><trkpt lat="59.3542256020" lon="34.6223147213"><ele>165.73</ele><time>2026-08-14T13:08:05Z</time></trkpt><trkpt lat="59.3543123547" lon="34.6221510228"><ele>164.02</ele><time>2026-08-14T13:08:13Z</time></trkpt><trkpt lat="59.3543206528" lon="34.6221294813"><ele>163.85</ele><time>2026-08-14T13:08:14Z</time></trkpt><trkpt lat="59.3543636519" lon="34.6219705604"><ele>161.62</ele><time>2026-08-14T13:08:22Z</time></trkpt><trkpt lat="59.3544263486" lon="34.6219163295"><ele>159.83</ele><time>2026-08-14T13:08:27Z</time></trkpt><trkpt lat="59.3546551745" lon="34.6217098832"><ele>151.69</ele><time>2026-08-14T13:08:40Z</time></trkpt><trkpt lat="59.3546905462" lon="34.6217035130"><ele>150.42</ele><time>2026-08-14T13:08:42Z</time></trkpt><trkpt lat="59.3548826594" lon="34.6216538083"><ele>143.69</ele><time>2026-08-14T13:08:53Z</time></trkpt><trkpt lat="59.3550902791" lon="34.6214995813"><ele>135.74</ele><time>2026-08-14T13:09:06Z</time></trkpt><trkpt lat="59.3551940471" lon="34.6214765310"><ele>144.99</ele><time>2026-08-14T13:09:25Z</time></trkpt><trkpt lat="59.3552496191" lon="34.6214461047"><ele>152.16</ele><time>2026-08-14T13:09:51Z</time></trkpt><trkpt lat="59.3552408181" lon="34.6214854158"><ele>157.15</ele><time>2026-08-14T13:10:18Z</time></trkpt><trkpt lat="59.3552651256" lon="34.6214897744"><ele>162.04</ele><time>2026-08-14T13:10:42Z</time></trkpt><trkpt lat="59.3552414048" lon="34.6214948036"><ele>161.61</ele><time>2026-08-14T13:11:07Z</time></trkpt><trkpt lat="59.3552710768" lon="34.6213946398"><ele>164.17</ele><time>2026-08-14T13:11:37Z</time></trkpt><trkpt lat="59.3552430812" lon="34.6215372160"><ele>164.92</ele><time>2026-08-14T13:12:16Z</time></trkpt><trkpt lat="59.3552946299" lon="34.6214735974"><ele>166.69</ele><time>2026-08-14T13:12:47Z</time></trkpt><trkpt lat="59.3552720826" lon="34.6215008385"><ele>168.47</ele><time>2026-08-14T13:13:15Z</time></trkpt><trkpt lat="59.3552639522" lon="34.6214721724"><ele>169.90</ele><time>2026-08-14T13:13:42Z</time></trkpt><trkpt lat="59.3552777823" lon="34.6215481963"><ele>170.84</ele><time>2026-08-14T13:14:17Z</time></trkpt><trkpt lat="59.3552972283" lon="34.6214815602"><ele>172.67</ele><time>2026-08-14T13:14:50Z</time></trkpt><trkpt lat="59.3553251401" lon="34.6214311011"><ele>174.49</ele><time>2026-08-14T13:15:18Z</time></trkpt><trkpt lat="59.3553064484" lon="34.6214409079"><ele>174.99</ele><time>2026-08-14T13:15:46Z</time></trkpt><trkpt lat="59.3553283252" lon="34.6214508824"><ele>175.99</ele><time>2026-08-14T13:16:11Z</time></trkpt><trkpt lat="59.3553236313" lon="34.6214679815"><ele>175.30</ele><time>2026-08-14T13:16:36Z</time></trkpt><trkpt lat="59.3554535508" lon="34.6212196257"><ele>174.98</ele><time>2026-08-14T13:16:49Z</time></trkpt><trkpt lat="59.3554620165" lon="34.6211504750"><ele>174.79</ele><time>2026-08-14T13:16:52Z</time></trkpt><trkpt lat="59.3554419838" lon="34.6207679249"><ele>172.93</ele><time>2026-08-14T13:17:04Z</time></trkpt><trkpt lat="59.3554217834" lon="34.6204169746"><ele>169.74</ele><time>2026-08-14T13:17:14Z</time></trkpt><trkpt lat="59.3552619405" lon="34.6199946105"><ele>165.87</ele><time>2026-08-14T13:17:25Z</time></trkpt><trkpt lat="59.3552577496" lon="34.6199594066"><ele>165.06</ele><time>2026-08-14T13:17:26Z</time></trkpt><trkpt lat="59.3551492039" lon="34.6196735837"><ele>161.79</ele><time>2026-08-14T13:17:34Z</time></trkpt><trkpt lat="59.3550169375" lon="34.6194670536"><ele>162.08</ele><time>2026-08-14T13:17:54Z</time></trkpt><trkpt lat="59.3549219705" lon="34.6192519739"><ele>165.08</ele><time>2026-08-14T13:18:11Z</time></trkpt><trkpt lat="59.3548016064" lon="34.6191663947"><ele>166.14</ele><time>2026-08-14T13:18:24Z</time></trkpt><trkpt lat="59.3546747882" lon="34.6191602759"><ele>167.51</ele><time>2026-08-14T13:18:38Z</time></trkpt><trkpt lat="59.3545457907" lon="34.6191570070"><ele>167.86</ele><time>2026-08-14T13:18:54Z</time></trkpt><trkpt lat="59.3543804158" lon="34.6190556698"><ele>167.35</ele><time>2026-08-14T13:19:08Z</time></trkpt><trkpt lat="59.3541847821" lon="34.6187835932"><ele>165.90</ele><time>2026-08-14T13:19:21Z</time></trkpt><trkpt lat="59.3541624025" lon="34.6187402587"><ele>165.56</ele><time>2026-08-14T13:19:24Z</time></trkpt><trkpt lat="59.3541377597" lon="34.6186964214"><ele>165.48</ele><time>2026-08-14T13:19:26Z</time></trkpt><trkpt lat="59.3541256059" lon="34.6186654083"><ele>165.44</ele><time>2026-08-14T13:19:27Z</time></trkpt><trkpt lat="59.3541165534" lon="34.6186472196"><ele>165.34</ele><time>2026-08-14T13:19:28Z</time></trkpt><trkpt lat="59.3541082554" lon="34.6186291985"><ele>165.23</ele><time>2026-08-14T13:19:29Z</time></trkpt><trkpt lat="59.3540939223" lon="34.6186138596"><ele>165.13</ele><time>2026-08-14T13:19:30Z</time></trkpt><trkpt lat="59.3540790863" lon="34.6185979340"><ele>165.02</ele><time>2026-08-14T13:19:31Z</time></trkpt><trkpt lat="59.3540654238" lon="34.6185825951"><ele>164.94</ele><time>2026-08-14T13:19:32Z</time></trkpt><trkpt lat="59.3540532701" lon="34.6185643226"><ele>164.87</ele><time>2026-08-14T13:19:33Z</time></trkpt><trkpt lat="59.3540436309" lon="34.6185476426"><ele>164.81</ele><time>2026-08-14T13:19:34Z</time></trkpt><trkpt lat="59.3540380988" lon="34.6185255144"><ele>164.83</ele><time>2026-08-14T13:19:35Z</time></trkpt><trkpt lat="59.3540325668" lon="34.6184937470"><ele>164.74</ele><time>2026-08-14T13:19:36Z</time></trkpt><trkpt lat="59.3539679423" lon="34.6183069143"><ele>164.01</ele><time>2026-08-14T13:19:43Z</time></trkpt><trkpt lat="59.3539513461" lon="34.6182956826"><ele>163.90</ele><time>2026-08-14T13:19:44Z</time></trkpt><trkpt lat="59.3539207522" lon="34.6182624064"><ele>163.61</ele><time>2026-08-14T13:19:46Z</time></trkpt><trkpt lat="59.3539072573" lon="34.6182375960"><ele>163.58</ele><time>2026-08-14T13:19:47Z</time></trkpt><trkpt lat="59.3538990431" lon="34.6182070021"><ele>163.45</ele><time>2026-08-14T13:19:48Z</time></trkpt><trkpt lat="59.3538950197" lon="34.6181671880"><ele>163.29</ele><time>2026-08-14T13:19:49Z</time></trkpt><trkpt lat="59.3538866378" lon="34.6181337442"><ele>163.14</ele><time>2026-08-14T13:19:50Z</time></trkpt><trkpt lat="59.3538571335" lon="34.6180741489"><ele>162.77</ele><time>2026-08-14T13:19:52Z</time></trkpt><trkpt lat="59.3538516015" lon="34.6180403698"><ele>162.51</ele><time>2026-08-14T13:19:53Z</time></trkpt><trkpt lat="59.3538499251" lon="34.6180146374"><ele>162.33</ele><time>2026-08-14T13:19:54Z</time></trkpt><trkpt lat="59.3538835365" lon="34.6178310737"><ele>160.97</ele><time>2026-08-14T13:20:02Z</time></trkpt><trkpt lat="59.3538977019" lon="34.6176151559"><ele>159.44</ele><time>2026-08-14T13:20:10Z</time></trkpt><trkpt lat="59.3539122865" lon="34.6175264753"><ele>158.56</ele><time>2026-08-14T13:20:13Z</time></trkpt><trkpt lat="59.3539144658" lon="34.6174896788"><ele>158.22</ele><time>2026-08-14T13:20:14Z</time></trkpt><trkpt lat="59.3539131247" lon="34.6171644609"><ele>155.78</ele><time>2026-08-14T13:20:21Z</time></trkpt><trkpt lat="59.3539131247" lon="34.6168057155"><ele>151.23</ele><time>2026-08-14T13:20:30Z</time></trkpt><trkpt lat="59.3538935110" lon="34.6164188068"><ele>145.62</ele><time>2026-08-14T13:20:39Z</time></trkpt><trkpt lat="59.3538847938" lon="34.6162840258"><ele>144.63</ele><time>2026-08-14T13:20:42Z</time></trkpt><trkpt lat="59.3538764957" lon="34.6162396017"><ele>143.86</ele><time>2026-08-14T13:20:43Z</time></trkpt><trkpt lat="59.3538674433" lon="34.6161999553"><ele>143.32</ele><time>2026-08-14T13:20:44Z</time></trkpt><trkpt lat="59.3538291380" lon="34.6161147952"><ele>142.54</ele><time>2026-08-14T13:20:47Z</time></trkpt><trkpt lat="59.3538130447" lon="34.6160730533"><ele>142.11</ele><time>2026-08-14T13:20:48Z</time></trkpt><trkpt lat="59.3538025673" lon="34.6160287131"><ele>141.77</ele><time>2026-08-14T13:20:49Z</time></trkpt><trkpt lat="59.3537469115" lon="34.6157620009"><ele>139.14</ele><time>2026-08-14T13:20:55Z</time></trkpt><trkpt lat="59.3536668643" lon="34.6154760104"><ele>135.78</ele><time>2026-08-14T13:21:02Z</time></trkpt><trkpt lat="59.3535769265" lon="34.6152363718"><ele>134.64</ele><time>2026-08-14T13:21:08Z</time></trkpt><trkpt lat="59.3535232823" lon="34.6149995830"><ele>142.49</ele><time>2026-08-14T13:21:19Z</time></trkpt><trkpt lat="59.3534858152" lon="34.6147706732"><ele>151.72</ele><time>2026-08-14T13:21:40Z</time></trkpt><trkpt lat="59.3534938619" lon="34.6147461142"><ele>151.69</ele><time>2026-08-14T13:21:41Z</time></trkpt><trkpt lat="59.3535202648" lon="34.6145249158"><ele>151.74</ele><time>2026-08-14T13:21:48Z</time></trkpt><trkpt lat="59.3534356914" lon="34.6140384302"><ele>150.74</ele><time>2026-08-14T13:22:00Z</time></trkpt><trkpt lat="59.3533867411" lon="34.6136340033"><ele>149.13</ele><time>2026-08-14T13:22:10Z</time></trkpt><trkpt lat="59.3533901777" lon="34.6134855598"><ele>146.47</ele><time>2026-08-14T13:22:15Z</time></trkpt><trkpt lat="59.3533460051" lon="34.6130652074"><ele>142.28</ele><time>2026-08-14T13:22:26Z</time></trkpt><trkpt lat="59.3533364497" lon="34.6130093001"><ele>142.05</ele><time>2026-08-14T13:22:29Z</time></trkpt><trkpt lat="59.3533049338" lon="34.6126486268"><ele>141.27</ele><time>2026-08-14T13:22:38Z</time></trkpt><trkpt lat="59.3532785308" lon="34.6122760512"><ele>141.51</ele><time>2026-08-14T13:22:47Z</time></trkpt><trkpt lat="59.3532930315" lon="34.6120538469"><ele>140.20</ele><time>2026-08-14T13:22:52Z</time></trkpt><trkpt lat="59.3532647006" lon="34.6119842771"><ele>140.92</ele><time>2026-08-14T13:22:53Z</time></trkpt><trkpt lat="59.3532709032" lon="34.6119022183"><ele>141.09</ele><time>2026-08-14T13:22:55Z</time></trkpt><trkpt lat="59.3532686401" lon="34.6117197443"><ele>140.79</ele><time>2026-08-14T13:23:00Z</time></trkpt><trkpt lat="59.3532797880" lon="34.6115898248"><ele>140.66</ele><time>2026-08-14T13:23:04Z</time></trkpt><trkpt lat="59.3532771897" lon="34.6114341728"><ele>140.03</ele><time>2026-08-14T13:23:08Z</time></trkpt><trkpt lat="59.3532874994" lon="34.6112850588"><ele>139.99</ele><time>2026-08-14T13:23:13Z</time></trkpt><trkpt lat="59.3533294089" lon="34.6109425742"><ele>138.83</ele><time>2026-08-14T13:23:21Z</time></trkpt><trkpt lat="59.3534036726" lon="34.6105690766"><ele>137.31</ele><time>2026-08-14T13:23:29Z</time></trkpt><trkpt lat="59.3534744158" lon="34.6103372332"><ele>137.57</ele><time>2026-08-14T13:23:35Z</time></trkpt><trkpt lat="59.3534698896" lon="34.6100613847"><ele>140.22</ele><time>2026-08-14T13:23:43Z</time></trkpt><trkpt lat="59.3534099590" lon="34.6097242646"><ele>141.43</ele><time>2026-08-14T13:23:53Z</time></trkpt><trkpt lat="59.3533539679" lon="34.6095961891"><ele>141.85</ele><time>2026-08-14T13:23:57Z</time></trkpt><trkpt lat="59.3531597592" lon="34.6092221048"><ele>141.11</ele><time>2026-08-14T13:24:09Z</time></trkpt><trkpt lat="59.3530894350" lon="34.6090822946"><ele>143.27</ele><time>2026-08-14T13:24:17Z</time></trkpt><trkpt lat="59.3530331925" lon="34.6089559793"><ele>152.79</ele><time>2026-08-14T13:24:36Z</time></trkpt><trkpt lat="59.3529984914" lon="34.6088456735"><ele>155.22</ele><time>2026-08-14T13:24:46Z</time></trkpt><trkpt lat="59.3529393990" lon="34.6084467787"><ele>156.58</ele><time>2026-08-14T13:24:56Z</time></trkpt><trkpt lat="59.3529507145" lon="34.6081667393"><ele>156.21</ele><time>2026-08-14T13:25:04Z</time></trkpt><trkpt lat="59.3529706635" lon="34.6079727821"><ele>156.01</ele><time>2026-08-14T13:25:09Z</time></trkpt><trkpt lat="59.3529629521" lon="34.6078475565"><ele>156.16</ele><time>2026-08-14T13:25:13Z</time></trkpt><trkpt lat="59.3529786263" lon="34.6075753123"><ele>156.49</ele><time>2026-08-14T13:25:20Z</time></trkpt><trkpt lat="59.3529386446" lon="34.6071205940"><ele>155.89</ele><time>2026-08-14T13:25:30Z</time></trkpt><trkpt lat="59.3529306818" lon="34.6069706418"><ele>154.65</ele><time>2026-08-14T13:25:35Z</time></trkpt><trkpt lat="59.3528970703" lon="34.6068033390"><ele>153.91</ele><time>2026-08-14T13:25:42Z</time></trkpt><trkpt lat="59.3528883532" lon="34.6067719068"><ele>153.68</ele><time>2026-08-14T13:25:43Z</time></trkpt><trkpt lat="59.3528832402" lon="34.6067424864"><ele>153.58</ele><time>2026-08-14T13:25:44Z</time></trkpt><trkpt lat="59.3528784625" lon="34.6067121439"><ele>153.52</ele><time>2026-08-14T13:25:45Z</time></trkpt><trkpt lat="59.3528726790" lon="34.6066782810"><ele>153.56</ele><time>2026-08-14T13:25:46Z</time></trkpt><trkpt lat="59.3528099824" lon="34.6064253151"><ele>153.53</ele><time>2026-08-14T13:25:53Z</time></trkpt><trkpt lat="59.3528003432" lon="34.6063150093"><ele>153.13</ele><time>2026-08-14T13:25:56Z</time></trkpt><trkpt lat="59.3528223876" lon="34.6061653085"><ele>152.52</ele><time>2026-08-14T13:26:02Z</time></trkpt><trkpt lat="59.3527011853" lon="34.6057950798"><ele>151.49</ele><time>2026-08-14T13:26:15Z</time></trkpt><trkpt lat="59.3525688350" lon="34.6054705326"><ele>149.91</ele><time>2026-08-14T13:26:26Z</time></trkpt><trkpt lat="59.3525065575" lon="34.6052230150"><ele>147.57</ele><time>2026-08-14T13:26:32Z</time></trkpt><trkpt lat="59.3524451181" lon="34.6049710549"><ele>145.13</ele><time>2026-08-14T13:26:40Z</time></trkpt><trkpt lat="59.3522777315" lon="34.6046011616"><ele>142.44</ele><time>2026-08-14T13:26:51Z</time></trkpt><trkpt lat="59.3522019591" lon="34.6044631116"><ele>145.58</ele><time>2026-08-14T13:27:01Z</time></trkpt><trkpt lat="59.3521305453" lon="34.6042524744"><ele>156.23</ele><time>2026-08-14T13:27:25Z</time></trkpt><trkpt lat="59.3520892225" lon="34.6040872671"><ele>160.36</ele><time>2026-08-14T13:27:42Z</time></trkpt><trkpt lat="59.3520712014" lon="34.6040282585"><ele>162.49</ele><time>2026-08-14T13:27:55Z</time></trkpt><trkpt lat="59.3520461395" lon="34.6039449424"><ele>162.76</ele><time>2026-08-14T13:28:00Z</time></trkpt><trkpt lat="59.3520179763" lon="34.6038791444"><ele>162.78</ele><time>2026-08-14T13:28:03Z</time></trkpt><trkpt lat="59.3519245181" lon="34.6035030484"><ele>161.78</ele><time>2026-08-14T13:28:15Z</time></trkpt><trkpt lat="59.3518836983" lon="34.6032140404"><ele>160.80</ele><time>2026-08-14T13:28:25Z</time></trkpt><trkpt lat="59.3517839536" lon="34.6029760782"><ele>159.95</ele><time>2026-08-14T13:28:33Z</time></trkpt><trkpt lat="59.3517105281" lon="34.6027570590"><ele>158.52</ele><time>2026-08-14T13:28:40Z</time></trkpt><trkpt lat="59.3515450694" lon="34.6024191007"><ele>153.47</ele><time>2026-08-14T13:28:51Z</time></trkpt><trkpt lat="59.3515210971" lon="34.6024003252"><ele>152.83</ele><time>2026-08-14T13:28:53Z</time></trkpt><trkpt lat="59.3513851427" lon="34.6021828149"><ele>155.20</ele><time>2026-08-14T13:29:06Z</time></trkpt><trkpt lat="59.3513019942" lon="34.6020671446"><ele>157.81</ele><time>2026-08-14T13:29:17Z</time></trkpt><trkpt lat="59.3511888385" lon="34.6019424219"><ele>158.00</ele><time>2026-08-14T13:29:23Z</time></trkpt><trkpt lat="59.3511564843" lon="34.6018150169"><ele>158.13</ele><time>2026-08-14T13:29:27Z</time></trkpt><trkpt lat="59.3510166742" lon="34.6016479656"><ele>160.70</ele><time>2026-08-14T13:29:39Z</time></trkpt><trkpt lat="59.3509673886" lon="34.6015358996"><ele>161.44</ele><time>2026-08-14T13:29:45Z</time></trkpt><trkpt lat="59.3509051111" lon="34.6013922337"><ele>162.49</ele><time>2026-08-14T13:29:50Z</time></trkpt><trkpt lat="59.3507814780" lon="34.6012415271"><ele>163.17</ele><time>2026-08-14T13:29:56Z</time></trkpt><trkpt lat="59.3505852576" lon="34.6009036526"><ele>161.72</ele><time>2026-08-14T13:30:09Z</time></trkpt><trkpt lat="59.3504882790" lon="34.6007579751"><ele>160.54</ele><time>2026-08-14T13:30:17Z</time></trkpt><trkpt lat="59.3502352294" lon="34.6005929355"><ele>159.79</ele><time>2026-08-14T13:30:29Z</time></trkpt><trkpt lat="59.3501388375" lon="34.6005359385"><ele>159.34</ele><time>2026-08-14T13:30:33Z</time></trkpt><trkpt lat="59.3499248475" lon="34.6003289893"><ele>157.90</ele><time>2026-08-14T13:30:44Z</time></trkpt><trkpt lat="59.3498889729" lon="34.6002563182"><ele>157.07</ele><time>2026-08-14T13:30:47Z</time></trkpt><trkpt lat="59.3498671800" lon="34.6000165120"><ele>156.32</ele><time>2026-08-14T13:30:55Z</time></trkpt><trkpt lat="59.3498385139" lon="34.5996624604"><ele>154.07</ele><time>2026-08-14T13:31:07Z</time></trkpt><trkpt lat="59.3497795053" lon="34.5993615501"><ele>151.50</ele><time>2026-08-14T13:31:17Z</time></trkpt><trkpt lat="59.3496940099" lon="34.5991969295"><ele>148.63</ele><time>2026-08-14T13:31:25Z</time></trkpt><trkpt lat="59.3496126216" lon="34.5990346558"><ele>147.78</ele><time>2026-08-14T13:31:29Z</time></trkpt><trkpt lat="59.3494234420" lon="34.5987889823"><ele>147.21</ele><time>2026-08-14T13:31:37Z</time></trkpt><trkpt lat="59.3493534531" lon="34.5987267885"><ele>146.81</ele><time>2026-08-14T13:31:40Z</time></trkpt><trkpt lat="59.3490532972" lon="34.5984488446"><ele>148.52</ele><time>2026-08-14T13:31:54Z</time></trkpt><trkpt lat="59.3487293366" lon="34.5981486049"><ele>157.96</ele><time>2026-08-14T13:32:06Z</time></trkpt><trkpt lat="59.3484509736" lon="34.5980501175"><ele>164.26</ele><time>2026-08-14T13:32:16Z</time></trkpt><trkpt lat="59.3482172862" lon="34.5979987364"><ele>167.92</ele><time>2026-08-14T13:32:29Z</time></trkpt><trkpt lat="59.3479160406" lon="34.5978937112"><ele>167.91</ele><time>2026-08-14T13:32:42Z</time></trkpt><trkpt lat="59.3477336504" lon="34.5976720937"><ele>165.05</ele><time>2026-08-14T13:32:52Z</time></trkpt><trkpt lat="59.3476427067" lon="34.5975640509"><ele>163.63</ele><time>2026-08-14T13:33:02Z</time></trkpt><trkpt lat="59.3475962710" lon="34.5973469596"><ele>164.87</ele><time>2026-08-14T13:33:17Z</time></trkpt><trkpt lat="59.3475658447" lon="34.5971989352"><ele>164.92</ele><time>2026-08-14T13:33:28Z</time></trkpt><trkpt lat="59.3474451452" lon="34.5970960055"><ele>167.36</ele><time>2026-08-14T13:33:47Z</time></trkpt><trkpt lat="59.3473483343" lon="34.5970090013"><ele>172.18</ele><time>2026-08-14T13:34:09Z</time></trkpt><trkpt lat="59.3472785130" lon="34.5969165489"><ele>174.46</ele><time>2026-08-14T13:34:22Z</time></trkpt><trkpt lat="59.3472800218" lon="34.5969252661"><ele>175.62</ele><time>2026-08-14T13:34:40Z</time></trkpt><trkpt lat="59.3471883237" lon="34.5967397746"><ele>175.31</ele><time>2026-08-14T13:34:47Z</time></trkpt><trkpt lat="59.3471727334" lon="34.5967162214"><ele>175.15</ele><time>2026-08-14T13:34:48Z</time></trkpt><trkpt lat="59.3471582327" lon="34.5966947637"><ele>175.02</ele><time>2026-08-14T13:34:49Z</time></trkpt><trkpt lat="59.3471426424" lon="34.5966721326"><ele>174.85</ele><time>2026-08-14T13:34:50Z</time></trkpt><trkpt lat="59.3471277226" lon="34.5966439694"><ele>174.59</ele><time>2026-08-14T13:34:51Z</time></trkpt><trkpt lat="59.3471169937" lon="34.5966124535"><ele>174.44</ele><time>2026-08-14T13:34:52Z</time></trkpt><trkpt lat="59.3471128866" lon="34.5965866372"><ele>174.14</ele><time>2026-08-14T13:34:53Z</time></trkpt><trkpt lat="59.3470214400" lon="34.5962789375"><ele>170.93</ele><time>2026-08-14T13:35:03Z</time></trkpt><trkpt lat="59.3468066957" lon="34.5956428349"><ele>164.15</ele><time>2026-08-14T13:35:17Z</time></trkpt><trkpt lat="59.3467109744" lon="34.5954096504"><ele>159.15</ele><time>2026-08-14T13:35:24Z</time></trkpt><trkpt lat="59.3467009999" lon="34.5953695849"><ele>158.60</ele><time>2026-08-14T13:35:25Z</time></trkpt><trkpt lat="59.3466840684" lon="34.5953389909"><ele>157.76</ele><time>2026-08-14T13:35:26Z</time></trkpt><trkpt lat="59.3465233035" lon="34.5951058064"><ele>155.01</ele><time>2026-08-14T13:35:38Z</time></trkpt><trkpt lat="59.3464768678" lon="34.5949539263"><ele>161.38</ele><time>2026-08-14T13:35:58Z</time></trkpt><trkpt lat="59.3463186175" lon="34.5947398525"><ele>162.07</ele><time>2026-08-14T13:36:11Z</time></trkpt><trkpt lat="59.3460780568" lon="34.5944060013"><ele>161.88</ele><time>2026-08-14T13:36:23Z</time></trkpt><trkpt lat="59.3457231671" lon="34.5941236988"><ele>161.03</ele><time>2026-08-14T13:36:34Z</time></trkpt><trkpt lat="59.3454033975" lon="34.5938434917"><ele>158.78</ele><time>2026-08-14T13:36:46Z</time></trkpt><trkpt lat="59.3450869806" lon="34.5934775379"><ele>157.75</ele><time>2026-08-14T13:36:58Z</time></trkpt><trkpt lat="59.3448790256" lon="34.5933036134"><ele>155.09</ele><time>2026-08-14T13:37:08Z</time></trkpt><trkpt lat="59.3445274886" lon="34.5929276012"><ele>151.87</ele><time>2026-08-14T13:37:21Z</time></trkpt><trkpt lat="59.3441933021" lon="34.5926077478"><ele>148.25</ele><time>2026-08-14T13:37:33Z</time></trkpt><trkpt lat="59.3441108242" lon="34.5924889762"><ele>148.52</ele><time>2026-08-14T13:37:37Z</time></trkpt><trkpt lat="59.3441005982" lon="34.5924677700"><ele>148.56</ele><time>2026-08-14T13:37:38Z</time></trkpt><trkpt lat="59.3440880254" lon="34.5924562030"><ele>150.64</ele><time>2026-08-14T13:37:39Z</time></trkpt><trkpt lat="59.3440683279" lon="34.5924500842"><ele>151.68</ele><time>2026-08-14T13:37:40Z</time></trkpt><trkpt lat="59.3440513965" lon="34.5924485754"><ele>152.65</ele><time>2026-08-14T13:37:41Z</time></trkpt><trkpt lat="59.3440243229" lon="34.5924555324"><ele>153.67</ele><time>2026-08-14T13:37:42Z</time></trkpt><trkpt lat="59.3439877778" lon="34.5924592204"><ele>155.24</ele><time>2026-08-14T13:37:43Z</time></trkpt><trkpt lat="59.3439633027" lon="34.5924715418"><ele>155.60</ele><time>2026-08-14T13:37:44Z</time></trkpt><trkpt lat="59.3439405877" lon="34.5924748108"><ele>156.16</ele><time>2026-08-14T13:37:45Z</time></trkpt><trkpt lat="59.3439146876" lon="34.5924824383"><ele>156.68</ele><time>2026-08-14T13:37:46Z</time></trkpt><trkpt lat="59.3436836824" lon="34.5927514136"><ele>161.65</ele><time>2026-08-14T13:37:57Z</time></trkpt><trkpt lat="59.3435566127" lon="34.5927698538"><ele>163.08</ele><time>2026-08-14T13:38:07Z</time></trkpt><trkpt lat="59.3435905594" lon="34.5928114280"><ele>165.16</ele><time>2026-08-14T13:38:21Z</time></trkpt><trkpt lat="59.3435686827" lon="34.5928484760"><ele>165.55</ele><time>2026-08-14T13:38:24Z</time></trkpt><trkpt lat="59.3435062375" lon="34.5931503084"><ele>165.78</ele><time>2026-08-14T13:38:31Z</time></trkpt><trkpt lat="59.3434843607" lon="34.5932291821"><ele>165.75</ele><time>2026-08-14T13:38:32Z</time></trkpt><trkpt lat="59.3433733843" lon="34.5936027635"><ele>165.28</ele><time>2026-08-14T13:38:36Z</time></trkpt><trkpt lat="59.3432691973" lon="34.5943189971"><ele>164.89</ele><time>2026-08-14T13:38:43Z</time></trkpt><trkpt lat="59.3430296425" lon="34.5959370397"><ele>163.86</ele><time>2026-08-14T13:38:57Z</time></trkpt><trkpt lat="59.3429864757" lon="34.5961907599"><ele>163.30</ele><time>2026-08-14T13:38:59Z</time></trkpt><trkpt lat="59.3429454882" lon="34.5966888126"><ele>163.11</ele><time>2026-08-14T13:39:04Z</time></trkpt><trkpt lat="59.3428925145" lon="34.5969069935"><ele>162.82</ele><time>2026-08-14T13:39:07Z</time></trkpt><trkpt lat="59.3428193405" lon="34.5971189719"><ele>162.83</ele><time>2026-08-14T13:39:10Z</time></trkpt><trkpt lat="59.3427745812" lon="34.5971935708"><ele>162.79</ele><time>2026-08-14T13:39:11Z</time></trkpt><trkpt lat="59.3423491996" lon="34.5980320126"><ele>161.56</ele><time>2026-08-14T13:39:22Z</time></trkpt><trkpt lat="59.3421901111" lon="34.5983204339"><ele>161.21</ele><time>2026-08-14T13:39:27Z</time></trkpt><trkpt lat="59.3419010192" lon="34.5986950211"><ele>160.26</ele><time>2026-08-14T13:39:38Z</time></trkpt><trkpt lat="59.3415526673" lon="34.5988857932"><ele>158.37</ele><time>2026-08-14T13:39:49Z</time></trkpt><trkpt lat="59.3412769865" lon="34.5989921596"><ele>158.48</ele><time>2026-08-14T13:39:57Z</time></trkpt><trkpt lat="59.3412604742" lon="34.5990176406"><ele>158.56</ele><time>2026-08-14T13:39:58Z</time></trkpt><trkpt lat="59.3412376754" lon="34.5990422834"><ele>158.89</ele><time>2026-08-14T13:39:59Z</time></trkpt><trkpt lat="59.3411991186" lon="34.5990690216"><ele>159.23</ele><time>2026-08-14T13:40:00Z</time></trkpt><trkpt lat="59.3411656749" lon="34.5990924910"><ele>159.44</ele><time>2026-08-14T13:40:01Z</time></trkpt><trkpt lat="59.3411375117" lon="34.5991161279"><ele>159.69</ele><time>2026-08-14T13:40:02Z</time></trkpt><trkpt lat="59.3405815400" lon="34.5995132625"><ele>160.94</ele><time>2026-08-14T13:40:15Z</time></trkpt><trkpt lat="59.3402648717" lon="34.5997186191"><ele>162.32</ele><time>2026-08-14T13:40:23Z</time></trkpt><trkpt lat="59.3398987502" lon="34.6001528855"><ele>163.40</ele><time>2026-08-14T13:40:33Z</time></trkpt><trkpt lat="59.3397506420" lon="34.6003311686"><ele>164.32</ele><time>2026-08-14T13:40:36Z</time></trkpt><trkpt lat="59.3395944033" lon="34.6004965436"><ele>165.86</ele><time>2026-08-14T13:40:39Z</time></trkpt><trkpt lat="59.3395567685" lon="34.6005671192"><ele>166.13</ele><time>2026-08-14T13:40:40Z</time></trkpt><trkpt lat="59.3395120930" lon="34.6006367728"><ele>166.59</ele><time>2026-08-14T13:40:41Z</time></trkpt><trkpt lat="59.3394608796" lon="34.6006995533"><ele>166.96</ele><time>2026-08-14T13:40:42Z</time></trkpt><trkpt lat="59.3394094985" lon="34.6007489227"><ele>167.10</ele><time>2026-08-14T13:40:43Z</time></trkpt><trkpt lat="59.3393758032" lon="34.6008065902"><ele>167.30</ele><time>2026-08-14T13:40:44Z</time></trkpt><trkpt lat="59.3393395934" lon="34.6008666884"><ele>167.71</ele><time>2026-08-14T13:40:45Z</time></trkpt><trkpt lat="59.3392347358" lon="34.6010351647"><ele>169.15</ele><time>2026-08-14T13:40:48Z</time></trkpt><trkpt lat="59.3391122762" lon="34.6012032218"><ele>170.13</ele><time>2026-08-14T13:40:51Z</time></trkpt><trkpt lat="59.3390790839" lon="34.6012553573"><ele>170.40</ele><time>2026-08-14T13:40:52Z</time></trkpt><trkpt lat="59.3387914170" lon="34.6016027033"><ele>174.05</ele><time>2026-08-14T13:41:02Z</time></trkpt><trkpt lat="59.3384387903" lon="34.6019368898"><ele>172.14</ele><time>2026-08-14T13:41:13Z</time></trkpt><trkpt lat="59.3381364550" lon="34.6023364551"><ele>168.78</ele><time>2026-08-14T13:41:23Z</time></trkpt><trkpt lat="59.3378210440" lon="34.6025160793"><ele>162.78</ele><time>2026-08-14T13:41:33Z</time></trkpt><trkpt lat="59.3377855048" lon="34.6025014110"><ele>162.46</ele><time>2026-08-14T13:41:34Z</time></trkpt><trkpt lat="59.3374668248" lon="34.6026208531"><ele>159.47</ele><time>2026-08-14T13:41:43Z</time></trkpt><trkpt lat="59.3374205567" lon="34.6026268043"><ele>159.27</ele><time>2026-08-14T13:41:44Z</time></trkpt><trkpt lat="59.3373846821" lon="34.6026222780"><ele>158.89</ele><time>2026-08-14T13:41:45Z</time></trkpt><trkpt lat="59.3373472989" lon="34.6026217751"><ele>158.85</ele><time>2026-08-14T13:41:46Z</time></trkpt><trkpt lat="59.3373247515" lon="34.6026228648"><ele>158.65</ele><time>2026-08-14T13:41:47Z</time></trkpt><trkpt lat="59.3373048864" lon="34.6026317496"><ele>158.50</ele><time>2026-08-14T13:41:48Z</time></trkpt><trkpt lat="59.3372670002" lon="34.6026393771"><ele>158.41</ele><time>2026-08-14T13:41:49Z</time></trkpt><trkpt lat="59.3372225761" lon="34.6026470885"><ele>158.32</ele><time>2026-08-14T13:41:50Z</time></trkpt><trkpt lat="59.3371700216" lon="34.6026611701"><ele>157.98</ele><time>2026-08-14T13:41:51Z</time></trkpt><trkpt lat="59.3371263519" lon="34.6026781853"><ele>157.73</ele><time>2026-08-14T13:41:52Z</time></trkpt><trkpt lat="59.3368463125" lon="34.6029036585"><ele>157.25</ele><time>2026-08-14T13:42:02Z</time></trkpt><trkpt lat="59.3366266228" lon="34.6032234281"><ele>159.36</ele><time>2026-08-14T13:42:12Z</time></trkpt><trkpt lat="59.3364831246" lon="34.6034390945"><ele>162.07</ele><time>2026-08-14T13:42:23Z</time></trkpt><trkpt lat="59.3364464119" lon="34.6034808364"><ele>163.30</ele><time>2026-08-14T13:42:28Z</time></trkpt><trkpt lat="59.3363444041" lon="34.6037408430"><ele>165.71</ele><time>2026-08-14T13:42:38Z</time></trkpt><trkpt lat="59.3363094516" lon="34.6037933975"><ele>167.86</ele><time>2026-08-14T13:42:52Z</time></trkpt><trkpt lat="59.3363578990" lon="34.6038959920"><ele>170.08</ele><time>2026-08-14T13:43:07Z</time></trkpt><trkpt lat="59.3363294844" lon="34.6038807370"><ele>171.93</ele><time>2026-08-14T13:43:27Z</time></trkpt><trkpt lat="59.3363481760" lon="34.6038327087"><ele>171.90</ele><time>2026-08-14T13:43:49Z</time></trkpt><trkpt lat="59.3363546301" lon="34.6038474608"><ele>171.51</ele><time>2026-08-14T13:44:20Z</time></trkpt><trkpt lat="59.3363462482" lon="34.6038854308"><ele>172.08</ele><time>2026-08-14T13:44:49Z</time></trkpt><trkpt lat="59.3363418058" lon="34.6038700081"><ele>172.04</ele><time>2026-08-14T13:45:15Z</time></trkpt><trkpt lat="59.3363688793" lon="34.6038540825"><ele>171.95</ele><time>2026-08-14T13:45:42Z</time></trkpt><trkpt lat="59.3363292329" lon="34.6038342174"><ele>171.67</ele><time>2026-08-14T13:46:10Z</time></trkpt><trkpt lat="59.3362864852" lon="34.6037986781"><ele>171.25</ele><time>2026-08-14T13:46:34Z</time></trkpt><trkpt lat="59.3362882454" lon="34.6037995163"><ele>171.04</ele><time>2026-08-14T13:47:03Z</time></trkpt><trkpt lat="59.3363077752" lon="34.6037756279"><ele>171.45</ele><time>2026-08-14T13:47:26Z</time></trkpt><trkpt lat="59.3363081105" lon="34.6038104966"><ele>172.19</ele><time>2026-08-14T13:47:49Z</time></trkpt><trkpt lat="59.3361812923" lon="34.6041843295"><ele>171.16</ele><time>2026-08-14T13:48:02Z</time></trkpt><trkpt lat="59.3360238802" lon="34.6047192626"><ele>168.76</ele><time>2026-08-14T13:48:14Z</time></trkpt><trkpt lat="59.3358618580" lon="34.6049822029"><ele>169.01</ele><time>2026-08-14T13:48:24Z</time></trkpt><trkpt lat="59.3356466107" lon="34.6054064948"><ele>169.31</ele><time>2026-08-14T13:48:37Z</time></trkpt><trkpt lat="59.3353976682" lon="34.6060653124"><ele>170.07</ele><time>2026-08-14T13:48:49Z</time></trkpt><trkpt lat="59.3351887073" lon="34.6066900995"><ele>173.02</ele><time>2026-08-14T13:49:01Z</time></trkpt><trkpt lat="59.3349591270" lon="34.6071069315"><ele>175.81</ele><time>2026-08-14T13:49:12Z</time></trkpt><trkpt lat="59.3347090948" lon="34.6076587122"><ele>174.16</ele><time>2026-08-14T13:49:25Z</time></trkpt><trkpt lat="59.3345681112" lon="34.6082938090"><ele>171.31</ele><time>2026-08-14T13:49:36Z</time></trkpt><trkpt lat="59.3345487490" lon="34.6088237129"><ele>173.27</ele><time>2026-08-14T13:49:46Z</time></trkpt><trkpt lat="59.3344457354" lon="34.6094268747"><ele>171.27</ele><time>2026-08-14T13:49:58Z</time></trkpt><trkpt lat="59.3342363555" lon="34.6099584550"><ele>168.32</ele><time>2026-08-14T13:50:10Z</time></trkpt><trkpt lat="59.3339522928" lon="34.6104786359"><ele>167.63</ele><time>2026-08-14T13:50:23Z</time></trkpt><trkpt lat="59.3336923700" lon="34.6110158321"><ele>165.16</ele><time>2026-08-14T13:50:34Z</time></trkpt><trkpt lat="59.3335457705" lon="34.6114505176"><ele>166.33</ele><time>2026-08-14T13:50:45Z</time></trkpt><trkpt lat="59.3334117439" lon="34.6119838580"><ele>170.85</ele><time>2026-08-14T13:50:57Z</time></trkpt><trkpt lat="59.3333844189" lon="34.6122149471"><ele>172.97</ele><time>2026-08-14T13:51:05Z</time></trkpt><trkpt lat="59.3333236501" lon="34.6125254966"><ele>172.83</ele><time>2026-08-14T13:51:15Z</time></trkpt><trkpt lat="59.3332569301" lon="34.6127299313"><ele>173.70</ele><time>2026-08-14T13:51:23Z</time></trkpt><trkpt lat="59.3332228996" lon="34.6129379701"><ele>173.96</ele><time>2026-08-14T13:51:28Z</time></trkpt><trkpt lat="59.3332972471" lon="34.6137144696"><ele>173.22</ele><time>2026-08-14T13:51:41Z</time></trkpt><trkpt lat="59.3332946487" lon="34.6143516619"><ele>173.77</ele><time>2026-08-14T13:51:52Z</time></trkpt><trkpt lat="59.3332745321" lon="34.6148954798"><ele>172.31</ele><time>2026-08-14T13:52:04Z</time></trkpt><trkpt lat="59.3332604505" lon="34.6150841564"><ele>171.88</ele><time>2026-08-14T13:52:08Z</time></trkpt><trkpt lat="59.3332062196" lon="34.6152557340"><ele>171.68</ele><time>2026-08-14T13:52:12Z</time></trkpt><trkpt lat="59.3330004439" lon="34.6157784294"><ele>165.88</ele><time>2026-08-14T13:52:23Z</time></trkpt><trkpt lat="59.3329322152" lon="34.6160918288"><ele>164.74</ele><time>2026-08-14T13:52:27Z</time></trkpt><trkpt lat="59.3329200614" lon="34.6161753125"><ele>164.28</ele><time>2026-08-14T13:52:28Z</time></trkpt><trkpt lat="59.3328277767" lon="34.6168156061"><ele>160.88</ele><time>2026-08-14T13:52:38Z</time></trkpt><trkpt lat="59.3326168042" lon="34.6174971387"><ele>157.65</ele><time>2026-08-14T13:52:49Z</time></trkpt><trkpt lat="59.3323015608" lon="34.6182824392"><ele>157.38</ele><time>2026-08-14T13:53:01Z</time></trkpt><trkpt lat="59.3319959566" lon="34.6189263370"><ele>154.45</ele><time>2026-08-14T13:53:12Z</time></trkpt><trkpt lat="59.3318690546" lon="34.6190846711"><ele>155.23</ele><time>2026-08-14T13:53:16Z</time></trkpt><trkpt lat="59.3318320904" lon="34.6191125829"><ele>155.96</ele><time>2026-08-14T13:53:17Z</time></trkpt><trkpt lat="59.3317935336" lon="34.6191468649"><ele>156.06</ele><time>2026-08-14T13:53:18Z</time></trkpt><trkpt lat="59.3317382969" lon="34.6191836614"><ele>155.57</ele><time>2026-08-14T13:53:19Z</time></trkpt><trkpt lat="59.3316926155" lon="34.6192162670"><ele>155.60</ele><time>2026-08-14T13:53:20Z</time></trkpt><trkpt lat="59.3316592555" lon="34.6192616969"><ele>155.67</ele><time>2026-08-14T13:53:21Z</time></trkpt><trkpt lat="59.3316274881" lon="34.6193041094"><ele>155.66</ele><time>2026-08-14T13:53:22Z</time></trkpt><trkpt lat="59.3313912023" lon="34.6196560655"><ele>156.25</ele><time>2026-08-14T13:53:29Z</time></trkpt><trkpt lat="59.3313634582" lon="34.6197406389"><ele>156.89</ele><time>2026-08-14T13:53:30Z</time></trkpt><trkpt lat="59.3312149309" lon="34.6201951895"><ele>159.01</ele><time>2026-08-14T13:53:36Z</time></trkpt><trkpt lat="59.3308276031" lon="34.6212484594"><ele>162.61</ele><time>2026-08-14T13:53:50Z</time></trkpt><trkpt lat="59.3308004458" lon="34.6213294286"><ele>163.18</ele><time>2026-08-14T13:53:51Z</time></trkpt><trkpt lat="59.3306139484" lon="34.6219985560"><ele>162.91</ele><time>2026-08-14T13:54:02Z</time></trkpt><trkpt lat="59.3304429576" lon="34.6225736383"><ele>159.40</ele><time>2026-08-14T13:54:12Z</time></trkpt><trkpt lat="59.3303001300" lon="34.6229587030"><ele>159.52</ele><time>2026-08-14T13:54:22Z</time></trkpt><trkpt lat="59.3302911613" lon="34.6229923982"><ele>159.65</ele><time>2026-08-14T13:54:25Z</time></trkpt><trkpt lat="59.3302799296" lon="34.6230237465"><ele>160.05</ele><time>2026-08-14T13:54:26Z</time></trkpt><trkpt lat="59.3301214278" lon="34.6232367307"><ele>160.94</ele><time>2026-08-14T13:54:33Z</time></trkpt><trkpt lat="59.3299925141" lon="34.6234807279"><ele>161.50</ele><time>2026-08-14T13:54:38Z</time></trkpt><trkpt lat="59.3299582321" lon="34.6235387307"><ele>161.48</ele><time>2026-08-14T13:54:39Z</time></trkpt><trkpt lat="59.3299337570" lon="34.6236074623"><ele>161.39</ele><time>2026-08-14T13:54:40Z</time></trkpt><trkpt lat="59.3299137242" lon="34.6236809716"><ele>161.82</ele><time>2026-08-14T13:54:41Z</time></trkpt><trkpt lat="59.3298932724" lon="34.6237510443"><ele>162.20</ele><time>2026-08-14T13:54:42Z</time></trkpt><trkpt lat="59.3298672885" lon="34.6238227934"><ele>162.55</ele><time>2026-08-14T13:54:43Z</time></trkpt><trkpt lat="59.3298446573" lon="34.6239077859"><ele>162.91</ele><time>2026-08-14T13:54:44Z</time></trkpt><trkpt lat="59.3298208527" lon="34.6239920240"><ele>163.37</ele><time>2026-08-14T13:54:45Z</time></trkpt><trkpt lat="59.3298019096" lon="34.6240768488"><ele>163.46</ele><time>2026-08-14T13:54:46Z</time></trkpt><trkpt lat="59.3297967128" lon="34.6241637692"><ele>163.50</ele><time>2026-08-14T13:54:47Z</time></trkpt><trkpt lat="59.3297790270" lon="34.6242503542"><ele>163.69</ele><time>2026-08-14T13:54:48Z</time></trkpt><trkpt lat="59.3297488522" lon="34.6244183276"><ele>164.44</ele><time>2026-08-14T13:54:50Z</time></trkpt><trkpt lat="59.3297335971" lon="34.6245009732"><ele>164.73</ele><time>2026-08-14T13:54:51Z</time></trkpt><trkpt lat="59.3296388816" lon="34.6249484830"><ele>165.95</ele><time>2026-08-14T13:54:56Z</time></trkpt><trkpt lat="59.3296091259" lon="34.6251242515"><ele>166.32</ele><time>2026-08-14T13:54:58Z</time></trkpt><trkpt lat="59.3295942899" lon="34.6252055559"><ele>166.22</ele><time>2026-08-14T13:54:59Z</time></trkpt><trkpt lat="59.3295869976" lon="34.6252895426"><ele>165.94</ele><time>2026-08-14T13:55:00Z</time></trkpt><trkpt lat="59.3295693956" lon="34.6253693383"><ele>165.74</ele><time>2026-08-14T13:55:01Z</time></trkpt><trkpt lat="59.3295600917" lon="34.6254472900"><ele>165.88</ele><time>2026-08-14T13:55:02Z</time></trkpt><trkpt lat="59.3295484409" lon="34.6255267505"><ele>165.50</ele><time>2026-08-14T13:55:03Z</time></trkpt><trkpt lat="59.3295345269" lon="34.6256944723"><ele>165.08</ele><time>2026-08-14T13:55:05Z</time></trkpt><trkpt lat="59.3294170126" lon="34.6265076846"><ele>163.30</ele><time>2026-08-14T13:55:16Z</time></trkpt><trkpt lat="59.3293395638" lon="34.6268971078"><ele>162.75</ele><time>2026-08-14T13:55:21Z</time></trkpt><trkpt lat="59.3293213751" lon="34.6269781608"><ele>162.32</ele><time>2026-08-14T13:55:22Z</time></trkpt><trkpt lat="59.3293094728" lon="34.6270603035"><ele>162.35</ele><time>2026-08-14T13:55:23Z</time></trkpt><trkpt lat="59.3293033540" lon="34.6271383390"><ele>162.30</ele><time>2026-08-14T13:55:24Z</time></trkpt><trkpt lat="59.3293027673" lon="34.6272167098"><ele>162.40</ele><time>2026-08-14T13:55:25Z</time></trkpt><trkpt lat="59.3292896915" lon="34.6273124311"><ele>162.63</ele><time>2026-08-14T13:55:26Z</time></trkpt><trkpt lat="59.3292787950" lon="34.6274130139"><ele>162.82</ele><time>2026-08-14T13:55:27Z</time></trkpt><trkpt lat="59.3291480374" lon="34.6282651182"><ele>163.89</ele><time>2026-08-14T13:55:37Z</time></trkpt><trkpt lat="59.3289802317" lon="34.6288061701"><ele>164.19</ele><time>2026-08-14T13:55:48Z</time></trkpt><trkpt lat="59.3289290182" lon="34.6292551886"><ele>162.33</ele><time>2026-08-14T13:55:57Z</time></trkpt><trkpt lat="59.3289211392" lon="34.6293219924"><ele>162.42</ele><time>2026-08-14T13:55:58Z</time></trkpt><trkpt lat="59.3288918026" lon="34.6300397348"><ele>164.88</ele><time>2026-08-14T13:56:07Z</time></trkpt><trkpt lat="59.3289416749" lon="34.6305080317"><ele>167.43</ele><time>2026-08-14T13:56:16Z</time></trkpt><trkpt lat="59.3288699258" lon="34.6313256025"><ele>167.99</ele><time>2026-08-14T13:56:27Z</time></trkpt><trkpt lat="59.3288767152" lon="34.6319653094"><ele>168.11</ele><time>2026-08-14T13:56:38Z</time></trkpt><trkpt lat="59.3288167845" lon="34.6328606643"><ele>166.01</ele><time>2026-08-14T13:56:48Z</time></trkpt><trkpt lat="59.3287573569" lon="34.6333130356"><ele>165.46</ele><time>2026-08-14T13:56:53Z</time></trkpt><trkpt lat="59.3287218176" lon="34.6336817555"><ele>164.97</ele><time>2026-08-14T13:56:57Z</time></trkpt><trkpt lat="59.3287017848" lon="34.6341004316"><ele>164.72</ele><time>2026-08-14T13:57:02Z</time></trkpt><trkpt lat="59.3286622223" lon="34.6345646214"><ele>165.75</ele><time>2026-08-14T13:57:08Z</time></trkpt><trkpt lat="59.3286066502" lon="34.6351300646"><ele>166.09</ele><time>2026-08-14T13:57:15Z</time></trkpt><trkpt lat="59.3285244238" lon="34.6360955760"><ele>167.15</ele><time>2026-08-14T13:57:28Z</time></trkpt><trkpt lat="59.3284943327" lon="34.6362529043"><ele>167.25</ele><time>2026-08-14T13:57:30Z</time></trkpt><trkpt lat="59.3283773214" lon="34.6369271446"><ele>167.07</ele><time>2026-08-14T13:57:38Z</time></trkpt><trkpt lat="59.3283096794" lon="34.6380853560"><ele>167.60</ele><time>2026-08-14T13:57:52Z</time></trkpt><trkpt lat="59.3283098470" lon="34.6381793171"><ele>167.78</ele><time>2026-08-14T13:57:53Z</time></trkpt><trkpt lat="59.3282629922" lon="34.6388129890"><ele>164.80</ele><time>2026-08-14T13:58:03Z</time></trkpt><trkpt lat="59.3281787541" lon="34.6392260492"><ele>157.46</ele><time>2026-08-14T13:58:14Z</time></trkpt><trkpt lat="59.3280448951" lon="34.6396631654"><ele>151.75</ele><time>2026-08-14T13:58:24Z</time></trkpt><trkpt lat="59.3278157338" lon="34.6404373180"><ele>144.38</ele><time>2026-08-14T13:58:38Z</time></trkpt><trkpt lat="59.3274738360" lon="34.6410974767"><ele>143.78</ele><time>2026-08-14T13:58:51Z</time></trkpt><trkpt lat="59.3271275796" lon="34.6416926757"><ele>144.92</ele><time>2026-08-14T13:59:02Z</time></trkpt><trkpt lat="59.3270153459" lon="34.6419390198"><ele>146.21</ele><time>2026-08-14T13:59:06Z</time></trkpt><trkpt lat="59.3269829918" lon="34.6420074999"><ele>146.52</ele><time>2026-08-14T13:59:07Z</time></trkpt><trkpt lat="59.3269524816" lon="34.6420888044"><ele>146.80</ele><time>2026-08-14T13:59:08Z</time></trkpt><trkpt lat="59.3268957362" lon="34.6422752179"><ele>148.78</ele><time>2026-08-14T13:59:10Z</time></trkpt><trkpt lat="59.3267695885" lon="34.6429033577"><ele>151.68</ele><time>2026-08-14T13:59:20Z</time></trkpt><trkpt lat="59.3267616257" lon="34.6431082953"><ele>152.93</ele><time>2026-08-14T13:59:25Z</time></trkpt><trkpt lat="59.3267680798" lon="34.6431808826"><ele>153.66</ele><time>2026-08-14T13:59:27Z</time></trkpt><trkpt lat="59.3267729413" lon="34.6432282403"><ele>154.13</ele><time>2026-08-14T13:59:28Z</time></trkpt><trkpt lat="59.3267604522" lon="34.6432980616"><ele>154.64</ele><time>2026-08-14T13:59:29Z</time></trkpt><trkpt lat="59.3267422635" lon="34.6433629375"><ele>155.05</ele><time>2026-08-14T13:59:30Z</time></trkpt><trkpt lat="59.3266911339" lon="34.6436284762"><ele>156.31</ele><time>2026-08-14T13:59:35Z</time></trkpt><trkpt lat="59.3265577778" lon="34.6441408619"><ele>155.63</ele><time>2026-08-14T13:59:42Z</time></trkpt><trkpt lat="59.3265262619" lon="34.6442492399"><ele>155.89</ele><time>2026-08-14T13:59:43Z</time></trkpt><trkpt lat="59.3265099172" lon="34.6443321370"><ele>156.03</ele><time>2026-08-14T13:59:44Z</time></trkpt><trkpt lat="59.3264285289" lon="34.6449070517"><ele>156.57</ele><time>2026-08-14T13:59:54Z</time></trkpt><trkpt lat="59.3262727093" lon="34.6454550605"><ele>156.65</ele><time>2026-08-14T14:00:01Z</time></trkpt><trkpt lat="59.3262441270" lon="34.6455231216"><ele>156.77</ele><time>2026-08-14T14:00:02Z</time></trkpt><trkpt lat="59.3262185622" lon="34.6456010733"><ele>157.02</ele><time>2026-08-14T14:00:03Z</time></trkpt><trkpt lat="59.3260753155" lon="34.6461148001"><ele>155.82</ele><time>2026-08-14T14:00:13Z</time></trkpt><trkpt lat="59.3258893210" lon="34.6467025392"><ele>152.02</ele><time>2026-08-14T14:00:24Z</time></trkpt><trkpt lat="59.3257957790" lon="34.6470437665"><ele>153.20</ele><time>2026-08-14T14:00:32Z</time></trkpt><trkpt lat="59.3257754948" lon="34.6470851731"><ele>153.68</ele><time>2026-08-14T14:00:33Z</time></trkpt><trkpt lat="59.3256443180" lon="34.6473277453"><ele>154.86</ele><time>2026-08-14T14:00:40Z</time></trkpt><trkpt lat="59.3254806194" lon="34.6478457469"><ele>154.77</ele><time>2026-08-14T14:00:50Z</time></trkpt><trkpt lat="59.3253042642" lon="34.6482785884"><ele>154.35</ele><time>2026-08-14T14:01:00Z</time></trkpt><trkpt lat="59.3250323553" lon="34.6486608032"><ele>155.17</ele><time>2026-08-14T14:01:09Z</time></trkpt><trkpt lat="59.3247544952" lon="34.6491228137"><ele>154.40</ele><time>2026-08-14T14:01:20Z</time></trkpt><trkpt lat="59.3245564308" lon="34.6495460998"><ele>152.06</ele><time>2026-08-14T14:01:30Z</time></trkpt><trkpt lat="59.3243696820" lon="34.6499021631"><ele>153.94</ele><time>2026-08-14T14:01:40Z</time></trkpt><trkpt lat="59.3241335638" lon="34.6501592360"><ele>157.31</ele><time>2026-08-14T14:01:49Z</time></trkpt><trkpt lat="59.3241061550" lon="34.6501954459"><ele>158.16</ele><time>2026-08-14T14:01:50Z</time></trkpt><trkpt lat="59.3240863737" lon="34.6502464078"><ele>159.20</ele><time>2026-08-14T14:01:52Z</time></trkpt><trkpt lat="59.3240639940" lon="34.6502745710"><ele>159.11</ele><time>2026-08-14T14:01:53Z</time></trkpt><trkpt lat="59.3240300473" lon="34.6503008064"><ele>159.61</ele><time>2026-08-14T14:01:54Z</time></trkpt><trkpt lat="59.3240012135" lon="34.6503438056"><ele>160.05</ele><time>2026-08-14T14:01:56Z</time></trkpt><trkpt lat="59.3239898980" lon="34.6503708791"><ele>160.03</ele><time>2026-08-14T14:01:57Z</time></trkpt><trkpt lat="59.3238732219" lon="34.6505453065"><ele>160.81</ele><time>2026-08-14T14:02:03Z</time></trkpt><trkpt lat="59.3238315638" lon="34.6505844500"><ele>161.79</ele><time>2026-08-14T14:02:04Z</time></trkpt><trkpt lat="59.3235983793" lon="34.6509618033"><ele>163.79</ele><time>2026-08-14T14:02:15Z</time></trkpt><trkpt lat="59.3234187551" lon="34.6513672359"><ele>161.48</ele><time>2026-08-14T14:02:25Z</time></trkpt><trkpt lat="59.3233334273" lon="34.6515275817"><ele>161.98</ele><time>2026-08-14T14:02:30Z</time></trkpt><trkpt lat="59.3233071920" lon="34.6515969839"><ele>161.53</ele><time>2026-08-14T14:02:33Z</time></trkpt><trkpt lat="59.3232936133" lon="34.6516222972"><ele>161.39</ele><time>2026-08-14T14:02:34Z</time></trkpt><trkpt lat="59.3232733291" lon="34.6516466886"><ele>161.26</ele><time>2026-08-14T14:02:35Z</time></trkpt><trkpt lat="59.3232429028" lon="34.6516704932"><ele>161.06</ele><time>2026-08-14T14:02:36Z</time></trkpt><trkpt lat="59.3232196011" lon="34.6517053619"><ele>161.02</ele><time>2026-08-14T14:02:37Z</time></trkpt><trkpt lat="59.3231966347" lon="34.6517301723"><ele>160.74</ele><time>2026-08-14T14:02:38Z</time></trkpt><trkpt lat="59.3231854029" lon="34.6517577488"><ele>160.59</ele><time>2026-08-14T14:02:39Z</time></trkpt><trkpt lat="59.3230101373" lon="34.6518818010"><ele>160.67</ele><time>2026-08-14T14:02:47Z</time></trkpt><trkpt lat="59.3229737598" lon="34.6519374568"><ele>160.88</ele><time>2026-08-14T14:02:49Z</time></trkpt><trkpt lat="59.3229574151" lon="34.6519398037"><ele>161.05</ele><time>2026-08-14T14:02:50Z</time></trkpt><trkpt lat="59.3228427507" lon="34.6519583277"><ele>161.57</ele><time>2026-08-14T14:02:57Z</time></trkpt><trkpt lat="59.3228297587" lon="34.6519823000"><ele>161.64</ele><time>2026-08-14T14:02:58Z</time></trkpt><trkpt lat="59.3228011765" lon="34.6520207729"><ele>161.69</ele><time>2026-08-14T14:02:59Z</time></trkpt><trkpt lat="59.3224847596" lon="34.6522304881"><ele>158.79</ele><time>2026-08-14T14:03:10Z</time></trkpt><trkpt lat="59.3222843483" lon="34.6522695478"><ele>155.84</ele><time>2026-08-14T14:03:19Z</time></trkpt><trkpt lat="59.3221986014" lon="34.6523606591"><ele>154.90</ele><time>2026-08-14T14:03:22Z</time></trkpt><trkpt lat="59.3221682590" lon="34.6523730643"><ele>154.99</ele><time>2026-08-14T14:03:23Z</time></trkpt><trkpt lat="59.3221400958" lon="34.6523889061"><ele>155.23</ele><time>2026-08-14T14:03:24Z</time></trkpt><trkpt lat="59.3219551910" lon="34.6527097654"><ele>154.30</ele><time>2026-08-14T14:03:33Z</time></trkpt><trkpt lat="59.3216466531" lon="34.6531985980"><ele>153.55</ele><time>2026-08-14T14:03:44Z</time></trkpt><trkpt lat="59.3213855568" lon="34.6536668111"><ele>153.29</ele><time>2026-08-14T14:03:57Z</time></trkpt><trkpt lat="59.3213574775" lon="34.6537852474"><ele>152.45</ele><time>2026-08-14T14:04:01Z</time></trkpt><trkpt lat="59.3212078605" lon="34.6540829726"><ele>153.40</ele><time>2026-08-14T14:04:07Z</time></trkpt><trkpt lat="59.3208698183" lon="34.6546493378"><ele>154.87</ele><time>2026-08-14T14:04:19Z</time></trkpt><trkpt lat="59.3208641186" lon="34.6547034848"><ele>154.54</ele><time>2026-08-14T14:04:20Z</time></trkpt><trkpt lat="59.3208505400" lon="34.6547681931"><ele>155.12</ele><time>2026-08-14T14:04:21Z</time></trkpt><trkpt lat="59.3208486959" lon="34.6548204962"><ele>155.62</ele><time>2026-08-14T14:04:22Z</time></trkpt><trkpt lat="59.3208405655" lon="34.6548888087"><ele>156.01</ele><time>2026-08-14T14:04:23Z</time></trkpt><trkpt lat="59.3208306748" lon="34.6549451351"><ele>156.17</ele><time>2026-08-14T14:04:24Z</time></trkpt><trkpt lat="59.3208236340" lon="34.6550077479"><ele>156.23</ele><time>2026-08-14T14:04:25Z</time></trkpt><trkpt lat="59.3208126538" lon="34.6550806705"><ele>156.49</ele><time>2026-08-14T14:04:26Z</time></trkpt><trkpt lat="59.3207170162" lon="34.6555923857"><ele>157.17</ele><time>2026-08-14T14:04:37Z</time></trkpt><trkpt lat="59.3205855042" lon="34.6560520492"><ele>156.21</ele><time>2026-08-14T14:04:48Z</time></trkpt><trkpt lat="59.3205692433" lon="34.6560834814"><ele>155.97</ele><time>2026-08-14T14:04:49Z</time></trkpt><trkpt lat="59.3205550779" lon="34.6561185177"><ele>156.08</ele><time>2026-08-14T14:04:50Z</time></trkpt><trkpt lat="59.3205659743" lon="34.6561928652"><ele>156.29</ele><time>2026-08-14T14:04:51Z</time></trkpt><trkpt lat="59.3205458578" lon="34.6562443301"><ele>156.45</ele><time>2026-08-14T14:04:52Z</time></trkpt><trkpt lat="59.3205341231" lon="34.6562892571"><ele>156.20</ele><time>2026-08-14T14:04:53Z</time></trkpt><trkpt lat="59.3205198739" lon="34.6563434880"><ele>156.75</ele><time>2026-08-14T14:04:54Z</time></trkpt><trkpt lat="59.3205080554" lon="34.6563927736"><ele>156.84</ele><time>2026-08-14T14:04:55Z</time></trkpt><trkpt lat="59.3204980809" lon="34.6564324200"><ele>157.23</ele><time>2026-08-14T14:04:56Z</time></trkpt><trkpt lat="59.3202824146" lon="34.6572701074"><ele>162.74</ele><time>2026-08-14T14:05:06Z</time></trkpt><trkpt lat="59.3202538323" lon="34.6573758870"><ele>162.78</ele><time>2026-08-14T14:05:07Z</time></trkpt><trkpt lat="59.3202156946" lon="34.6574752126"><ele>163.03</ele><time>2026-08-14T14:05:08Z</time></trkpt><trkpt lat="59.3199539278" lon="34.6580388118"><ele>162.44</ele><time>2026-08-14T14:05:15Z</time></trkpt><trkpt lat="59.3199163768" lon="34.6580829844"><ele>162.45</ele><time>2026-08-14T14:05:16Z</time></trkpt><trkpt lat="59.3198702764" lon="34.6581176855"><ele>161.92</ele><time>2026-08-14T14:05:17Z</time></trkpt><trkpt lat="59.3197432067" lon="34.6581884287"><ele>161.77</ele><time>2026-08-14T14:05:19Z</time></trkpt><trkpt lat="59.3196322303" lon="34.6582115628"><ele>163.50</ele><time>2026-08-14T14:05:20Z</time></trkpt><trkpt lat="59.3192789331" lon="34.6583740879"><ele>165.99</ele><time>2026-08-14T14:05:30Z</time></trkpt><trkpt lat="59.3192617502" lon="34.6584169194"><ele>167.62</ele><time>2026-08-14T14:05:34Z</time></trkpt><trkpt lat="59.3188170902" lon="34.6587304026"><ele>169.37</ele><time>2026-08-14T14:05:43Z</time></trkpt><trkpt lat="59.3186215404" lon="34.6589001361"><ele>169.09</ele><time>2026-08-14T14:05:47Z</time></trkpt><trkpt lat="59.3183676526" lon="34.6593478136"><ele>168.46</ele><time>2026-08-14T14:05:53Z</time></trkpt><trkpt lat="59.3183451891" lon="34.6594189759"><ele>168.15</ele><time>2026-08-14T14:05:54Z</time></trkpt><trkpt lat="59.3183253240" lon="34.6594808344"><ele>167.72</ele><time>2026-08-14T14:05:55Z</time></trkpt><trkpt lat="59.3183216359" lon="34.6595398430"><ele>167.16</ele><time>2026-08-14T14:05:56Z</time></trkpt><trkpt lat="59.3183244858" lon="34.6596104186"><ele>166.77</ele><time>2026-08-14T14:05:57Z</time></trkpt><trkpt lat="59.3183331192" lon="34.6596828382"><ele>166.49</ele><time>2026-08-14T14:05:58Z</time></trkpt><trkpt lat="59.3183397409" lon="34.6597533301"><ele>166.03</ele><time>2026-08-14T14:05:59Z</time></trkpt><trkpt lat="59.3183551636" lon="34.6599012706"><ele>165.00</ele><time>2026-08-14T14:06:01Z</time></trkpt><trkpt lat="59.3183646351" lon="34.6599858440"><ele>164.57</ele><time>2026-08-14T14:06:02Z</time></trkpt><trkpt lat="59.3183871824" lon="34.6602780372"><ele>162.92</ele><time>2026-08-14T14:06:05Z</time></trkpt><trkpt lat="59.3183939718" lon="34.6603818052"><ele>162.62</ele><time>2026-08-14T14:06:06Z</time></trkpt><trkpt lat="59.3184522260" lon="34.6613835264"><ele>163.01</ele><time>2026-08-14T14:06:16Z</time></trkpt><trkpt lat="59.3184569199" lon="34.6615093388"><ele>163.45</ele><time>2026-08-14T14:06:17Z</time></trkpt><trkpt lat="59.3184644636" lon="34.6616283618"><ele>163.53</ele><time>2026-08-14T14:06:18Z</time></trkpt><trkpt lat="59.3184915371" lon="34.6619909629"><ele>163.55</ele><time>2026-08-14T14:06:26Z</time></trkpt><trkpt lat="59.3185010087" lon="34.6620062180"><ele>163.67</ele><time>2026-08-14T14:06:50Z</time></trkpt><trkpt lat="59.3184895255" lon="34.6619884484"><ele>161.53</ele><time>2026-08-14T14:07:15Z</time></trkpt><trkpt lat="59.3184614461" lon="34.6619773842"><ele>163.67</ele><time>2026-08-14T14:07:35Z</time></trkpt><trkpt lat="59.3185024336" lon="34.6620208025"><ele>164.33</ele><time>2026-08-14T14:07:57Z</time></trkpt><trkpt lat="59.3184974045" lon="34.6620072238"><ele>164.31</ele><time>2026-08-14T14:08:26Z</time></trkpt><trkpt lat="59.3185018469" lon="34.6619663201"><ele>163.99</ele><time>2026-08-14T14:08:46Z</time></trkpt><trkpt lat="59.3185143359" lon="34.6619721875"><ele>163.77</ele><time>2026-08-14T14:09:14Z</time></trkpt><trkpt lat="59.3184774555" lon="34.6619873587"><ele>163.12</ele><time>2026-08-14T14:09:38Z</time></trkpt><trkpt lat="59.3184600212" lon="34.6620328724"><ele>160.83</ele><time>2026-08-14T14:10:08Z</time></trkpt><trkpt lat="59.3184420001" lon="34.6619938128"><ele>160.32</ele><time>2026-08-14T14:10:30Z</time></trkpt><trkpt lat="59.3184521422" lon="34.6619926393"><ele>159.71</ele><time>2026-08-14T14:10:53Z</time></trkpt><trkpt lat="59.3185396492" lon="34.6623329446"><ele>159.40</ele><time>2026-08-14T14:11:11Z</time></trkpt><trkpt lat="59.3189082015" lon="34.6631982923"><ele>157.87</ele><time>2026-08-14T14:11:23Z</time></trkpt><trkpt lat="59.3189436570" lon="34.6632734779"><ele>157.85</ele><time>2026-08-14T14:11:24Z</time></trkpt><trkpt lat="59.3190352712" lon="34.6634662617"><ele>157.58</ele><time>2026-08-14T14:11:27Z</time></trkpt><trkpt lat="59.3191983830" lon="34.6637878753"><ele>157.06</ele><time>2026-08-14T14:11:32Z</time></trkpt><trkpt lat="59.3192430586" lon="34.6639370732"><ele>156.59</ele><time>2026-08-14T14:11:34Z</time></trkpt><trkpt lat="59.3192537874" lon="34.6640228201"><ele>156.33</ele><time>2026-08-14T14:11:35Z</time></trkpt><trkpt lat="59.3193045817" lon="34.6646301728"><ele>155.66</ele><time>2026-08-14T14:11:41Z</time></trkpt><trkpt lat="59.3193138856" lon="34.6647276543"><ele>155.29</ele><time>2026-08-14T14:11:42Z</time></trkpt><trkpt lat="59.3195369281" lon="34.6661286056"><ele>155.20</ele><time>2026-08-14T14:11:54Z</time></trkpt><trkpt lat="59.3198674265" lon="34.6676168125"><ele>154.78</ele><time>2026-08-14T14:12:06Z</time></trkpt><trkpt lat="59.3199010380" lon="34.6677428763"><ele>155.11</ele><time>2026-08-14T14:12:07Z</time></trkpt><trkpt lat="59.3201997690" lon="34.6689934563"><ele>158.58</ele><time>2026-08-14T14:12:18Z</time></trkpt><trkpt lat="59.3203938939" lon="34.6697637532"><ele>161.07</ele><time>2026-08-14T14:12:25Z</time></trkpt><trkpt lat="59.3206851650" lon="34.6708107367"><ele>164.51</ele><time>2026-08-14T14:12:35Z</time></trkpt><trkpt lat="59.3207104784" lon="34.6709135827"><ele>164.66</ele><time>2026-08-14T14:12:36Z</time></trkpt><trkpt lat="59.3207547348" lon="34.6710780356"><ele>164.68</ele><time>2026-08-14T14:12:38Z</time></trkpt><trkpt lat="59.3207723368" lon="34.6711650398"><ele>164.64</ele><time>2026-08-14T14:12:39Z</time></trkpt><trkpt lat="59.3207938783" lon="34.6712443326"><ele>164.94</ele><time>2026-08-14T14:12:40Z</time></trkpt><trkpt lat="59.3208263163" lon="34.6713215299"><ele>164.93</ele><time>2026-08-14T14:12:41Z</time></trkpt><trkpt lat="59.3208647892" lon="34.6713964641"><ele>164.86</ele><time>2026-08-14T14:12:42Z</time></trkpt><trkpt lat="59.3209059443" lon="34.6714751702"><ele>164.97</ele><time>2026-08-14T14:12:43Z</time></trkpt><trkpt lat="59.3213569745" lon="34.6723562758"><ele>163.35</ele><time>2026-08-14T14:12:55Z</time></trkpt><trkpt lat="59.3218549434" lon="34.6733975597"><ele>161.78</ele><time>2026-08-14T14:13:09Z</time></trkpt><trkpt lat="59.3220236711" lon="34.6736521181"><ele>161.60</ele><time>2026-08-14T14:13:13Z</time></trkpt><trkpt lat="59.3220724538" lon="34.6737062652"><ele>161.47</ele><time>2026-08-14T14:13:14Z</time></trkpt><trkpt lat="59.3221210688" lon="34.6737531200"><ele>161.24</ele><time>2026-08-14T14:13:15Z</time></trkpt><trkpt lat="59.3227804732" lon="34.6741638333"><ele>158.67</ele><time>2026-08-14T14:13:27Z</time></trkpt><trkpt lat="59.3228919525" lon="34.6742059104"><ele>158.48</ele><time>2026-08-14T14:13:29Z</time></trkpt><trkpt lat="59.3233983032" lon="34.6743582096"><ele>159.79</ele><time>2026-08-14T14:13:41Z</time></trkpt><trkpt lat="59.3235418852" lon="34.6743924078"><ele>158.83</ele><time>2026-08-14T14:13:44Z</time></trkpt><trkpt lat="59.3235809449" lon="34.6744134463"><ele>158.54</ele><time>2026-08-14T14:13:45Z</time></trkpt><trkpt lat="59.3237847928" lon="34.6745679248"><ele>156.00</ele><time>2026-08-14T14:13:51Z</time></trkpt><trkpt lat="59.3238177337" lon="34.6746307891"><ele>155.99</ele><time>2026-08-14T14:13:52Z</time></trkpt><trkpt lat="59.3238465674" lon="34.6747021191"><ele>155.87</ele><time>2026-08-14T14:13:53Z</time></trkpt><trkpt lat="59.3238809332" lon="34.6747589484"><ele>155.89</ele><time>2026-08-14T14:13:54Z</time></trkpt><trkpt lat="59.3239073362" lon="34.6748021990"><ele>155.82</ele><time>2026-08-14T14:13:55Z</time></trkpt><trkpt lat="59.3239384331" lon="34.6748425160"><ele>155.71</ele><time>2026-08-14T14:13:56Z</time></trkpt><trkpt lat="59.3239710387" lon="34.6748843417"><ele>155.47</ele><time>2026-08-14T14:13:57Z</time></trkpt><trkpt lat="59.3240065780" lon="34.6749248262"><ele>155.29</ele><time>2026-08-14T14:13:58Z</time></trkpt><trkpt lat="59.3240372557" lon="34.6749575157"><ele>155.08</ele><time>2026-08-14T14:13:59Z</time></trkpt><trkpt lat="59.3244114239" lon="34.6753249783"><ele>153.80</ele><time>2026-08-14T14:14:10Z</time></trkpt><trkpt lat="59.3248173594" lon="34.6761795133"><ele>155.32</ele><time>2026-08-14T14:14:22Z</time></trkpt><trkpt lat="59.3249754421" lon="34.6767669171"><ele>158.37</ele><time>2026-08-14T14:14:30Z</time></trkpt><trkpt lat="59.3249781244" lon="34.6768113412"><ele>158.43</ele><time>2026-08-14T14:14:31Z</time></trkpt><trkpt lat="59.3249842431" lon="34.6768698469"><ele>158.32</ele><time>2026-08-14T14:14:32Z</time></trkpt><trkpt lat="59.3250045273" lon="34.6769252513"><ele>159.03</ele><time>2026-08-14T14:14:33Z</time></trkpt><trkpt lat="59.3250110652" lon="34.6769662388"><ele>159.05</ele><time>2026-08-14T14:14:34Z</time></trkpt><trkpt lat="59.3250192795" lon="34.6770091541"><ele>159.10</ele><time>2026-08-14T14:14:35Z</time></trkpt><trkpt lat="59.3250366300" lon="34.6770570148"><ele>159.20</ele><time>2026-08-14T14:14:36Z</time></trkpt><trkpt lat="59.3250594288" lon="34.6771195438"><ele>159.40</ele><time>2026-08-14T14:14:37Z</time></trkpt><trkpt lat="59.3251323514" lon="34.6776295826"><ele>159.49</ele><time>2026-08-14T14:14:43Z</time></trkpt><trkpt lat="59.3252051063" lon="34.6783835348"><ele>159.41</ele><time>2026-08-14T14:14:50Z</time></trkpt><trkpt lat="59.3253123946" lon="34.6788548492"><ele>159.61</ele><time>2026-08-14T14:14:55Z</time></trkpt><trkpt lat="59.3253173400" lon="34.6789647359"><ele>159.59</ele><time>2026-08-14T14:14:56Z</time></trkpt><trkpt lat="59.3253149092" lon="34.6790678333"><ele>159.49</ele><time>2026-08-14T14:14:57Z</time></trkpt><trkpt lat="59.3253845628" lon="34.6796134952"><ele>161.81</ele><time>2026-08-14T14:15:02Z</time></trkpt><trkpt lat="59.3254187610" lon="34.6798088774"><ele>161.69</ele><time>2026-08-14T14:15:04Z</time></trkpt><trkpt lat="59.3254400510" lon="34.6799095441"><ele>161.57</ele><time>2026-08-14T14:15:05Z</time></trkpt><trkpt lat="59.3257580604" lon="34.6809836011"><ele>159.85</ele><time>2026-08-14T14:15:16Z</time></trkpt><trkpt lat="59.3257766683" lon="34.6810612176"><ele>159.57</ele><time>2026-08-14T14:15:17Z</time></trkpt><trkpt lat="59.3258322403" lon="34.6815100685"><ele>158.72</ele><time>2026-08-14T14:15:25Z</time></trkpt><trkpt lat="59.3258692883" lon="34.6821324248"><ele>156.43</ele><time>2026-08-14T14:15:35Z</time></trkpt><trkpt lat="59.3258650135" lon="34.6821778547"><ele>156.01</ele><time>2026-08-14T14:15:36Z</time></trkpt><trkpt lat="59.3259070907" lon="34.6828916576"><ele>152.78</ele><time>2026-08-14T14:15:47Z</time></trkpt><trkpt lat="59.3260514271" lon="34.6835736930"><ele>149.94</ele><time>2026-08-14T14:15:57Z</time></trkpt><trkpt lat="59.3260589708" lon="34.6836642176"><ele>149.78</ele><time>2026-08-14T14:15:58Z</time></trkpt><trkpt lat="59.3260890618" lon="34.6839450952"><ele>149.47</ele><time>2026-08-14T14:16:01Z</time></trkpt><trkpt lat="59.3261099327" lon="34.6840369608"><ele>149.05</ele><time>2026-08-14T14:16:02Z</time></trkpt><trkpt lat="59.3261282053" lon="34.6841348615"><ele>148.93</ele><time>2026-08-14T14:16:03Z</time></trkpt><trkpt lat="59.3261491600" lon="34.6842305828"><ele>148.92</ele><time>2026-08-14T14:16:04Z</time></trkpt><trkpt lat="59.3261722941" lon="34.6843160782"><ele>148.66</ele><time>2026-08-14T14:16:05Z</time></trkpt><trkpt lat="59.3261967693" lon="34.6843965445"><ele>148.40</ele><time>2026-08-14T14:16:06Z</time></trkpt><trkpt lat="59.3262208253" lon="34.6844794415"><ele>148.42</ele><time>2026-08-14T14:16:07Z</time></trkpt><trkpt lat="59.3262430374" lon="34.6845547948"><ele>148.02</ele><time>2026-08-14T14:16:08Z</time></trkpt><trkpt lat="59.3262695242" lon="34.6846225206"><ele>147.99</ele><time>2026-08-14T14:16:09Z</time></trkpt><trkpt lat="59.3265276868" lon="34.6853214037"><ele>147.04</ele><time>2026-08-14T14:16:20Z</time></trkpt><trkpt lat="59.3266068958" lon="34.6857580170"><ele>153.32</ele><time>2026-08-14T14:16:30Z</time></trkpt><trkpt lat="59.3266979232" lon="34.6862226259"><ele>160.65</ele><time>2026-08-14T14:16:50Z</time></trkpt><trkpt lat="59.3267757073" lon="34.6866247058"><ele>163.05</ele><time>2026-08-14T14:17:01Z</time></trkpt><trkpt lat="59.3267885316" lon="34.6866590716"><ele>163.22</ele><time>2026-08-14T14:17:02Z</time></trkpt><trkpt lat="59.3267980032" lon="34.6867010649"><ele>163.25</ele><time>2026-08-14T14:17:03Z</time></trkpt><trkpt lat="59.3268368114" lon="34.6869472414"><ele>162.42</ele><time>2026-08-14T14:17:07Z</time></trkpt><trkpt lat="59.3269869313" lon="34.6873681806"><ele>160.96</ele><time>2026-08-14T14:17:13Z</time></trkpt><trkpt lat="59.3270178605" lon="34.6874359064"><ele>161.07</ele><time>2026-08-14T14:17:14Z</time></trkpt><trkpt lat="59.3270436767" lon="34.6874975134"><ele>160.92</ele><time>2026-08-14T14:17:15Z</time></trkpt><trkpt lat="59.3270712532" lon="34.6875574440"><ele>160.65</ele><time>2026-08-14T14:17:16Z</time></trkpt><trkpt lat="59.3270974047" lon="34.6876208950"><ele>160.41</ele><time>2026-08-14T14:17:17Z</time></trkpt><trkpt lat="59.3271280825" lon="34.6876944043"><ele>159.89</ele><time>2026-08-14T14:17:18Z</time></trkpt><trkpt lat="59.3272142485" lon="34.6878484637"><ele>159.29</ele><time>2026-08-14T14:17:20Z</time></trkpt><trkpt lat="59.3272626959" lon="34.6879149321"><ele>159.03</ele><time>2026-08-14T14:17:21Z</time></trkpt><trkpt lat="59.3273564894" lon="34.6880451869"><ele>158.60</ele><time>2026-08-14T14:17:23Z</time></trkpt><trkpt lat="59.3274057750" lon="34.6881094761"><ele>158.56</ele><time>2026-08-14T14:17:24Z</time></trkpt><trkpt lat="59.3275589123" lon="34.6884091292"><ele>159.07</ele><time>2026-08-14T14:17:28Z</time></trkpt><trkpt lat="59.3276847247" lon="34.6887202654"><ele>159.25</ele><time>2026-08-14T14:17:32Z</time></trkpt><trkpt lat="59.3277274724" lon="34.6887894999"><ele>158.46</ele><time>2026-08-14T14:17:33Z</time></trkpt><trkpt lat="59.3277853075" lon="34.6888847183"><ele>157.29</ele><time>2026-08-14T14:17:34Z</time></trkpt><trkpt lat="59.3278706353" lon="34.6890936792"><ele>156.85</ele><time>2026-08-14T14:17:36Z</time></trkpt><trkpt lat="59.3279542029" lon="34.6893330663"><ele>156.44</ele><time>2026-08-14T14:17:38Z</time></trkpt><trkpt lat="59.3279884849" lon="34.6894368343"><ele>155.99</ele><time>2026-08-14T14:17:39Z</time></trkpt><trkpt lat="59.3280785065" lon="34.6897174604"><ele>154.98</ele><time>2026-08-14T14:17:42Z</time></trkpt><trkpt lat="59.3281997927" lon="34.6899798140"><ele>153.20</ele><time>2026-08-14T14:17:49Z</time></trkpt><trkpt lat="59.3281933386" lon="34.6900329553"><ele>153.99</ele><time>2026-08-14T14:17:56Z</time></trkpt><trkpt lat="59.3282054923" lon="34.6900807321"><ele>154.27</ele><time>2026-08-14T14:17:58Z</time></trkpt><trkpt lat="59.3282550294" lon="34.6901910380"><ele>154.14</ele><time>2026-08-14T14:18:01Z</time></trkpt><trkpt lat="59.3284365814" lon="34.6905983984"><ele>153.20</ele><time>2026-08-14T14:18:09Z</time></trkpt><trkpt lat="59.3285538442" lon="34.6908801980"><ele>153.03</ele><time>2026-08-14T14:18:13Z</time></trkpt><trkpt lat="59.3285744637" lon="34.6909648553"><ele>153.04</ele><time>2026-08-14T14:18:14Z</time></trkpt><trkpt lat="59.3286930677" lon="34.6913883928"><ele>153.47</ele><time>2026-08-14T14:18:19Z</time></trkpt><trkpt lat="59.3287115917" lon="34.6914753132"><ele>153.57</ele><time>2026-08-14T14:18:20Z</time></trkpt><trkpt lat="59.3287510704" lon="34.6916509978"><ele>153.87</ele><time>2026-08-14T14:18:22Z</time></trkpt><trkpt lat="59.3288664054" lon="34.6920749545"><ele>154.29</ele><time>2026-08-14T14:18:27Z</time></trkpt><trkpt lat="59.3290555850" lon="34.6927094646"><ele>153.65</ele><time>2026-08-14T14:18:34Z</time></trkpt><trkpt lat="59.3290916272" lon="34.6927879192"><ele>153.56</ele><time>2026-08-14T14:18:35Z</time></trkpt><trkpt lat="59.3291858397" lon="34.6929908451"><ele>152.87</ele><time>2026-08-14T14:18:38Z</time></trkpt><trkpt lat="59.3292145897" lon="34.6930662822"><ele>152.57</ele><time>2026-08-14T14:18:39Z</time></trkpt><trkpt lat="59.3292539846" lon="34.6931438986"><ele>152.37</ele><time>2026-08-14T14:18:40Z</time></trkpt><trkpt lat="59.3292995822" lon="34.6932208445"><ele>152.05</ele><time>2026-08-14T14:18:41Z</time></trkpt><trkpt lat="59.3293430004" lon="34.6932884026"><ele>151.62</ele><time>2026-08-14T14:18:42Z</time></trkpt><trkpt lat="59.3294274900" lon="34.6934275422"><ele>150.48</ele><time>2026-08-14T14:18:44Z</time></trkpt><trkpt lat="59.3294712435" lon="34.6934749838"><ele>150.16</ele><time>2026-08-14T14:18:45Z</time></trkpt><trkpt lat="59.3295983970" lon="34.6936242655"><ele>149.02</ele><time>2026-08-14T14:18:48Z</time></trkpt><trkpt lat="59.3296569027" lon="34.6937074140"><ele>148.48</ele><time>2026-08-14T14:18:49Z</time></trkpt><trkpt lat="59.3298061006" lon="34.6939536743"><ele>146.51</ele><time>2026-08-14T14:18:53Z</time></trkpt><trkpt lat="59.3301337492" lon="34.6948043536"><ele>144.58</ele><time>2026-08-14T14:19:04Z</time></trkpt><trkpt lat="59.3302451447" lon="34.6950474288"><ele>145.89</ele><time>2026-08-14T14:19:08Z</time></trkpt><trkpt lat="59.3302692007" lon="34.6951200999"><ele>146.04</ele><time>2026-08-14T14:19:09Z</time></trkpt><trkpt lat="59.3302965257" lon="34.6951950341"><ele>146.30</ele><time>2026-08-14T14:19:10Z</time></trkpt><trkpt lat="59.3303321488" lon="34.6952697169"><ele>146.75</ele><time>2026-08-14T14:19:11Z</time></trkpt><trkpt lat="59.3303649221" lon="34.6953183319"><ele>147.18</ele><time>2026-08-14T14:19:12Z</time></trkpt><trkpt lat="59.3303959351" lon="34.6953612473"><ele>147.27</ele><time>2026-08-14T14:19:13Z</time></trkpt><trkpt lat="59.3306255154" lon="34.6957510896"><ele>148.60</ele><time>2026-08-14T14:19:23Z</time></trkpt><trkpt lat="59.3308064807" lon="34.6960442048"><ele>149.21</ele><time>2026-08-14T14:19:30Z</time></trkpt><trkpt lat="59.3308539223" lon="34.6960902214"><ele>149.43</ele><time>2026-08-14T14:19:31Z</time></trkpt><trkpt lat="59.3311529886" lon="34.6965515614"><ele>148.41</ele><time>2026-08-14T14:19:38Z</time></trkpt><trkpt lat="59.3311863486" lon="34.6966187004"><ele>149.24</ele><time>2026-08-14T14:19:39Z</time></trkpt><trkpt lat="59.3312083930" lon="34.6966898628"><ele>149.27</ele><time>2026-08-14T14:19:40Z</time></trkpt><trkpt lat="59.3312389031" lon="34.6967492066"><ele>149.75</ele><time>2026-08-14T14:19:41Z</time></trkpt><trkpt lat="59.3313015159" lon="34.6968517173"><ele>148.61</ele><time>2026-08-14T14:19:42Z</time></trkpt><trkpt lat="59.3313283380" lon="34.6969154198"><ele>148.97</ele><time>2026-08-14T14:19:43Z</time></trkpt><trkpt lat="59.3313644640" lon="34.6970452555"><ele>148.99</ele><time>2026-08-14T14:19:44Z</time></trkpt><trkpt lat="59.3313821498" lon="34.6971585788"><ele>149.13</ele><time>2026-08-14T14:19:45Z</time></trkpt><trkpt lat="59.3316717446" lon="34.6979241818"><ele>145.92</ele><time>2026-08-14T14:19:54Z</time></trkpt><trkpt lat="59.3319821265" lon="34.6986234002"><ele>144.47</ele><time>2026-08-14T14:20:05Z</time></trkpt><trkpt lat="59.3321615830" lon="34.6992339380"><ele>145.99</ele><time>2026-08-14T14:20:13Z</time></trkpt><trkpt lat="59.3324170634" lon="34.6999146324"><ele>147.01</ele><time>2026-08-14T14:20:22Z</time></trkpt><trkpt lat="59.3324772455" lon="34.7001157142"><ele>146.56</ele><time>2026-08-14T14:20:24Z</time></trkpt><trkpt lat="59.3325333204" lon="34.7002828494"><ele>145.34</ele><time>2026-08-14T14:20:26Z</time></trkpt><trkpt lat="59.3325602263" lon="34.7003701888"><ele>144.93</ele><time>2026-08-14T14:20:27Z</time></trkpt><trkpt lat="59.3325950950" lon="34.7004622221"><ele>144.99</ele><time>2026-08-14T14:20:28Z</time></trkpt><trkpt lat="59.3327017967" lon="34.7007126734"><ele>145.05</ele><time>2026-08-14T14:20:31Z</time></trkpt><trkpt lat="59.3327307142" lon="34.7007929720"><ele>144.84</ele><time>2026-08-14T14:20:32Z</time></trkpt><trkpt lat="59.3327561114" lon="34.7008731030"><ele>144.92</ele><time>2026-08-14T14:20:33Z</time></trkpt><trkpt lat="59.3327898066" lon="34.7009534854"><ele>145.05</ele><time>2026-08-14T14:20:34Z</time></trkpt><trkpt lat="59.3328244239" lon="34.7010330297"><ele>145.03</ele><time>2026-08-14T14:20:35Z</time></trkpt><trkpt lat="59.3328616396" lon="34.7011155076"><ele>145.01</ele><time>2026-08-14T14:20:36Z</time></trkpt><trkpt lat="59.3329355679" lon="34.7012657952"><ele>145.11</ele><time>2026-08-14T14:20:38Z</time></trkpt><trkpt lat="59.3331127614" lon="34.7017308231"><ele>146.46</ele><time>2026-08-14T14:20:47Z</time></trkpt><trkpt lat="59.3333058804" lon="34.7020752355"><ele>147.52</ele><time>2026-08-14T14:20:54Z</time></trkpt><trkpt lat="59.3333294336" lon="34.7021639999"><ele>147.71</ele><time>2026-08-14T14:20:55Z</time></trkpt><trkpt lat="59.3334553298" lon="34.7026473004"><ele>151.81</ele><time>2026-08-14T14:21:03Z</time></trkpt><trkpt lat="59.3336034380" lon="34.7026733682"><ele>152.41</ele><time>2026-08-14T14:21:07Z</time></trkpt><trkpt lat="59.3342278060" lon="34.7022635769"><ele>151.43</ele><time>2026-08-14T14:21:19Z</time></trkpt><trkpt lat="59.3345921673" lon="34.7019927576"><ele>147.53</ele><time>2026-08-14T14:21:25Z</time></trkpt><trkpt lat="59.3353151903" lon="34.7015014105"><ele>145.11</ele><time>2026-08-14T14:21:37Z</time></trkpt><trkpt lat="59.3355513923" lon="34.7013145778"><ele>143.66</ele><time>2026-08-14T14:21:41Z</time></trkpt><trkpt lat="59.3356624525" lon="34.7012544796"><ele>142.25</ele><time>2026-08-14T14:21:43Z</time></trkpt><trkpt lat="59.3363941088" lon="34.7006991785"><ele>130.41</ele><time>2026-08-14T14:21:55Z</time></trkpt><trkpt lat="59.3371648248" lon="34.7000697814"><ele>125.71</ele><time>2026-08-14T14:22:07Z</time></trkpt><trkpt lat="59.3378339522" lon="34.6995789371"><ele>121.44</ele><time>2026-08-14T14:22:19Z</time></trkpt><trkpt lat="59.3382823002" lon="34.6991671342"><ele>122.51</ele><time>2026-08-14T14:22:30Z</time></trkpt><trkpt lat="59.3385509402" lon="34.6989890188"><ele>120.30</ele><time>2026-08-14T14:22:36Z</time></trkpt><trkpt lat="59.3388678599" lon="34.6989654656"><ele>120.79</ele><time>2026-08-14T14:22:41Z</time></trkpt><trkpt lat="59.3391045649" lon="34.6989345364"><ele>125.72</ele><time>2026-08-14T14:22:44Z</time></trkpt><trkpt lat="59.3392892182" lon="34.6989042778"><ele>129.25</ele><time>2026-08-14T14:22:47Z</time></trkpt><trkpt lat="59.3397959042" lon="34.6987987496"><ele>140.43</ele><time>2026-08-14T14:22:58Z</time></trkpt><trkpt lat="59.3401364610" lon="34.6988781262"><ele>139.08</ele><time>2026-08-14T14:23:06Z</time></trkpt><trkpt lat="59.3404565658" lon="34.6988893580"><ele>139.48</ele><time>2026-08-14T14:23:13Z</time></trkpt><trkpt lat="59.3406777643" lon="34.6989254002"><ele>140.50</ele><time>2026-08-14T14:23:17Z</time></trkpt><trkpt lat="59.3409162294" lon="34.6989505459"><ele>138.48</ele><time>2026-08-14T14:23:21Z</time></trkpt><trkpt lat="59.3413064908" lon="34.6989129949"><ele>141.13</ele><time>2026-08-14T14:23:28Z</time></trkpt><trkpt lat="59.3418943137" lon="34.6989235561"><ele>139.33</ele><time>2026-08-14T14:23:40Z</time></trkpt><trkpt lat="59.3422627822" lon="34.6989913657"><ele>138.56</ele><time>2026-08-14T14:23:48Z</time></trkpt><trkpt lat="59.3424551468" lon="34.6989926230"><ele>138.73</ele><time>2026-08-14T14:23:52Z</time></trkpt><trkpt lat="59.3427059334" lon="34.6990121529"><ele>142.25</ele><time>2026-08-14T14:23:56Z</time></trkpt><trkpt lat="59.3429910857" lon="34.6989678126"><ele>141.43</ele><time>2026-08-14T14:24:02Z</time></trkpt><trkpt lat="59.3432362564" lon="34.6989827324"><ele>141.86</ele><time>2026-08-14T14:24:08Z</time></trkpt><trkpt lat="59.3433438800" lon="34.6989883482"><ele>140.75</ele><time>2026-08-14T14:24:11Z</time></trkpt><trkpt lat="59.3437865283" lon="34.6989736799"><ele>146.07</ele><time>2026-08-14T14:24:18Z</time></trkpt><trkpt lat="59.3444647081" lon="34.6990442555"><ele>149.05</ele><time>2026-08-14T14:24:29Z</time></trkpt><trkpt lat="59.3453448918" lon="34.6991243865"><ele>149.36</ele><time>2026-08-14T14:24:42Z</time></trkpt><trkpt lat="59.3464916199" lon="34.6991858259"><ele>152.60</ele><time>2026-08-14T14:24:58Z</time></trkpt><trkpt lat="59.3473547045" lon="34.6992341895"><ele>153.61</ele><time>2026-08-14T14:25:10Z</time></trkpt><trkpt lat="59.3476966862" lon="34.6992409788"><ele>154.83</ele><time>2026-08-14T14:25:15Z</time></trkpt><trkpt lat="59.3483952340" lon="34.6992696449"><ele>156.24</ele><time>2026-08-14T14:25:26Z</time></trkpt><trkpt lat="59.3489702325" lon="34.6992812119"><ele>157.10</ele><time>2026-08-14T14:25:35Z</time></trkpt><trkpt lat="59.3492966238" lon="34.6992935333"><ele>159.65</ele><time>2026-08-14T14:25:40Z</time></trkpt><trkpt lat="59.3498654198" lon="34.6993563976"><ele>158.61</ele><time>2026-08-14T14:25:50Z</time></trkpt><trkpt lat="59.3503990117" lon="34.6993855666"><ele>161.98</ele><time>2026-08-14T14:26:02Z</time></trkpt><trkpt lat="59.3505763728" lon="34.6994674578"><ele>162.27</ele><time>2026-08-14T14:26:13Z</time></trkpt><trkpt lat="59.3505767919" lon="34.6994849760"><ele>162.27</ele><time>2026-08-14T14:26:34Z</time></trkpt><trkpt lat="59.3505990878" lon="34.6994754206"><ele>162.24</ele><time>2026-08-14T14:26:58Z</time></trkpt><trkpt lat="59.3505890295" lon="34.6994673740"><ele>160.46</ele><time>2026-08-14T14:27:26Z</time></trkpt><trkpt lat="59.3505808990" lon="34.6994759236"><ele>159.39</ele><time>2026-08-14T14:27:58Z</time></trkpt><trkpt lat="59.3505855091" lon="34.6994821262"><ele>160.11</ele><time>2026-08-14T14:28:32Z</time></trkpt><trkpt lat="59.3505887780" lon="34.6994739957"><ele>161.00</ele><time>2026-08-14T14:29:00Z</time></trkpt><trkpt lat="59.3505860120" lon="34.6994527057"><ele>161.40</ele><time>2026-08-14T14:29:31Z</time></trkpt><trkpt lat="59.3505757861" lon="34.6994491015"><ele>160.75</ele><time>2026-08-14T14:30:00Z</time></trkpt><trkpt lat="59.3505748641" lon="34.6994617581"><ele>161.19</ele><time>2026-08-14T14:30:30Z</time></trkpt><trkpt lat="59.3505689129" lon="34.6993885841"><ele>159.99</ele><time>2026-08-14T14:30:53Z</time></trkpt></trkseg></trk></gpx>